GFSGL_sfc_dewp_000.txt.gz
Dewpoint
39 39 38 38 36 36 36 37 37 38 35 34 34 34 35 37 38 38 36 34 30 30 29 28 27 27 26 25 25 25 23 23 21 21 20 23 26 27 27 29 29 29 30
36 36 36 36 35 35 36 37 37 37 37 36 37 38 37 37 34 32 31 29 27 25 26 26 25 17 24 24 23 25 24 24 23 23 23 22 25 26 28 29 25 22 26
35 34 34 36 36 36 37 37 38 38 38 39 37 36 36 34 33 29 26 25 26 26 25 24 23 24 24 23 24 23 23 19 22 21 21 22 23 23 24 26 27 28 24
35 34 35 36 38 38 38 36 35 34 33 32 30 30 30 27 25 24 23 24 24 23 24 25 23 23 23 23 21 22 20 20 20 19 18 19 20 22 22 22 23 25 25
35 33 33 33 31 31 30 30 29 28 24 23 23 23 24 22 18 26 22 23 24 24 24 23 24 25 26 26 22 21 21 20 19 19 19 20 20 21 21 22 22 24 25
33 31 29 30 28 27 27 26 24 22 21 22 22 22 23 18 29 28 28 24 23 21 21 21 21 25 24 26 26 25 26 23 22 21 20 21 21 21 22 22 24 23 22
30 28 29 29 25 24 21 19 20 22 23 23 23 23 24 24 25 25 25 22 21 21 21 21 18 15 22 20 24 27 26 26 25 24 23 23 23 24 24 25 25 25 23
29 27 28 26 23 20 19 19 21 22 22 22 23 23 22 19 24 23 23 22 23 23 21 21 19 19 21 23 22 22 22 23 24 24 24 22 23 23 24 24 25 26 28
27 28 28 25 22 19 19 20 21 21 22 22 22 22 21 21 24 22 22 24 23 22 20 20 21 23 24 25 25 27 24 24 25 28 28 27 28 29 28 27 29 27 28
28 30 26 25 22 19 21 22 23 22 21 22 24 24 24 24 23 22 22 23 25 24 24 23 25 24 26 25 28 28 25 22 23 26 26 30 30 27 29 29 28 26 26
27 27 26 24 20 21 22 22 23 22 24 28 30 27 25 24 22 21 21 24 25 23 22 23 25 28 27 25 24 26 24 25 23 23 23 24 25 27 29 30 30 31 28
27 27 26 23 20 19 22 23 22 23 25 27 29 28 23 28 20 21 21 23 25 26 25 26 30 24 24 22 21 22 22 23 25 26 26 25 25 26 26 27 28 29 31
26 25 24 23 22 22 22 23 22 21 24 24 20 21 19 21 21 22 24 23 22 25 28 26 23 23 22 21 22 21 23 27 26 25 25 26 27 28 30 31 31 29 29
24 24 23 23 23 23 23 21 19 23 23 19 19 18 19 18 20 22 22 23 24 25 24 28 24 23 24 25 23 23 24 24 23 24 24 25 28 30 31 31 30 31 30
22 22 24 25 25 24 22 20 21 23 22 20 19 19 20 19 20 23 23 22 23 23 24 24 21 21 22 20 20 20 22 22 23 24 25 25 26 27 29 30 30 30 30
23 23 26 28 27 25 20 20 22 21 19 18 18 20 20 18 20 21 21 21 21 21 21 19 19 19 20 19 19 19 21 21 21 23 25 25 25 26 27 30 28 28 29
28 28 28 27 26 24 23 23 22 21 19 18 17 17 17 17 18 19 19 19 19 19 18 17 18 18 19 16 17 18 19 20 22 22 23 24 24 24 28 29 30 29 28
29 28 28 27 26 26 25 24 23 22 21 21 18 14 15 16 16 16 17 18 16 16 16 16 16 17 15 14 15 17 19 20 21 21 22 23 24 24 25 26 28 29 30
26 26 29 30 28 26 26 24 23 21 20 19 17 14 16 15 15 16 16 16 15 14 14 14 15 14 15 15 18 18 21 20 21 22 22 22 24 23 23 23 25 26 27
23 25 26 27 26 25 24 23 21 21 19 19 16 16 16 16 17 16 16 16 13 10 12 11 13 14 16 16 18 19 18 20 20 20 22 23 23 24 23 22 23 24 24
24 23 25 25 24 24 24 22 21 21 20 19 18 18 14 16 16 15 13 13 12 11 12 12 14 15 16 16 15 17 17 19 18 19 20 22 24 23 22 22 22 22 21
26 27 27 26 25 25 24 23 22 21 19 19 19 18 14 17 16 15 13 14 14 13 12 13 13 13 14 14 15 16 16 17 18 18 19 21 21 22 23 22 21 22 20
28 28 26 24 25 24 25 23 22 23 22 21 19 18 18 18 17 16 15 15 14 13 13 13 13 12 13 14 15 15 15 15 17 18 17 18 19 20 22 21 20 21 19
27 29 27 27 26 25 24 24 24 22 21 21 21 21 19 18 18 17 17 17 15 14 14 12 11 10 11 12 13 13 12 14 15 16 16 17 17 18 19 18 19 18 19
30 30 29 28 27 25 24 24 24 24 23 22 22 22 19 19 17 17 18 18 16 15 12 12 12 10 10 10 10 10 10 10 11 10 16 15 15 15 16 16 17 17 17
28 29 29 29 28 26 25 24 24 24 23 23 22 22 21 19 18 18 17 15 15 14 11 12 12 10 10 9 9 9 8 9 10 10 14 14 14 14 15 14 14 16 15

GFSGL_sfc_dewp_006.txt.gz
Dewpoint
40 40 41 41 40 39 39 39 38 38 37 36 36 37 37 37 39 39 38 36 34 33 34 34 34 33 33 33 31 29 28 30 28 26 28 27 29 32 29 30 33 36 38
40 40 38 38 37 36 38 36 36 36 36 35 35 34 35 34 36 36 36 35 33 32 31 30 30 27 28 28 27 27 27 27 26 23 25 25 25 27 28 31 29 25 31
39 37 36 36 35 35 34 34 34 34 33 32 29 28 26 27 26 26 26 27 26 25 24 25 25 26 26 26 26 26 26 23 25 24 23 25 25 26 25 27 27 30 29
38 36 36 36 33 32 33 31 32 31 29 27 27 27 28 25 23 25 24 25 25 23 24 23 23 24 25 26 26 26 24 23 22 22 21 22 23 24 25 23 24 26 27
38 36 37 35 33 33 33 31 31 30 26 26 25 26 27 24 23 26 24 23 23 22 22 21 22 25 29 28 22 23 23 22 22 21 21 21 22 23 24 27 27 28 29
33 35 35 34 32 33 32 32 29 28 26 26 26 26 26 20 28 27 25 23 22 21 21 20 21 25 25 29 30 29 27 22 20 20 19 20 20 22 24 25 26 25 24
32 32 35 37 35 35 32 28 25 26 27 27 27 26 26 26 29 27 25 22 21 20 19 20 20 19 25 23 27 28 27 30 28 25 22 22 21 21 22 23 23 24 25
26 32 35 36 34 32 31 30 27 26 27 26 27 27 26 24 29 28 26 23 21 20 20 19 20 20 24 24 24 25 24 24 25 25 25 26 25 24 25 26 27 27 27
22 31 32 36 31 31 30 30 27 26 26 27 27 27 27 25 29 30 28 23 23 21 21 22 23 22 23 25 23 24 24 24 25 28 29 30 30 30 29 27 25 26 25
32 31 30 28 30 30 31 29 26 25 25 29 28 28 28 26 29 27 25 24 21 22 23 22 23 24 27 27 27 27 25 26 25 26 25 24 25 29 32 31 28 24 22
30 31 32 32 29 28 28 25 25 25 27 30 29 28 27 27 26 24 25 24 23 23 21 21 23 29 27 24 23 24 24 24 24 23 22 22 23 24 25 26 30 29 25
32 31 31 30 27 22 25 25 25 24 27 27 25 25 26 26 24 23 24 21 22 23 22 24 24 25 24 24 24 25 25 24 23 22 23 24 26 26 27 26 27 31 32
30 28 28 26 24 24 23 23 23 24 25 25 22 21 20 22 21 22 20 20 21 23 23 24 25 25 24 25 26 25 25 24 25 25 24 26 27 28 28 29 30 31 31
27 27 27 25 25 25 23 22 23 26 25 23 21 19 19 19 19 19 20 21 20 21 21 22 24 23 23 25 25 25 25 26 24 25 25 26 28 28 29 30 31 30 29
27 26 27 29 28 26 23 24 27 26 23 22 21 20 17 16 17 18 19 20 21 21 21 22 20 19 20 22 21 23 24 23 23 23 24 25 26 26 27 27 29 27 27
29 28 29 29 29 26 25 23 25 23 21 19 17 19 18 18 18 18 18 19 21 21 20 18 18 18 18 20 20 20 21 22 22 23 23 24 24 24 25 26 30 27 23
29 28 28 27 28 27 27 26 24 26 24 23 21 20 19 17 18 18 18 18 21 20 18 18 18 16 16 16 17 18 19 22 22 22 23 23 24 24 26 25 26 26 25
29 27 29 30 29 29 27 26 26 25 23 24 25 23 16 18 18 20 18 16 16 17 16 16 15 16 16 16 16 17 19 20 20 20 22 23 21 24 25 23 24 26 26
28 27 28 30 30 29 28 28 27 26 24 23 23 22 18 17 19 21 18 14 13 13 13 13 15 15 16 16 17 17 19 20 19 19 20 22 23 24 23 23 23 21 22
27 25 24 28 29 29 28 27 25 25 24 23 22 21 18 15 16 16 17 12 11 13 14 14 14 16 16 15 15 16 17 17 17 17 17 19 22 23 23 23 23 23 23
28 28 26 28 27 29 27 26 27 26 25 24 22 19 11 13 17 14 15 14 11 11 12 14 15 15 15 14 15 14 14 14 14 15 15 17 20 20 22 23 22 23 22
27 27 29 29 29 28 28 26 25 26 25 25 23 22 14 16 17 15 18 15 13 11 13 13 14 14 14 13 14 13 12 10 10 12 12 14 17 17 19 21 19 16 21
28 29 28 28 29 29 27 27 27 27 26 25 24 24 23 22 16 15 14 16 17 14 11 11 12 13 13 13 14 14 12 10 10 11 10 11 16 15 16 16 17 14 12
29 30 28 28 29 29 27 27 28 26 26 26 26 25 24 23 17 15 14 15 13 14 12 9 11 13 12 11 12 11 12 10 10 11 10 13 15 14 14 14 11 15 8
29 30 29 29 28 29 29 27 27 27 27 27 26 26 24 24 20 17 15 14 12 11 10 7 10 12 11 10 11 10 8 9 8 8 10 13 11 10 11 13 10 13 7
29 28 28 29 29 29 29 29 27 27 27 27 27 26 26 23 19 19 16 13 12 11 9 9 8 10 11 12 10 11 9 8 7 7 9 12 11 10 9 9 9 11 9

GFSGL_sfc_dewp_009.txt.gz
Dewpoint
39 40 38 38 36 37 36 35 35 34 34 35 36 35 35 35 35 36 36 36 36 35 34 33 30 29 32 36 36 34 32 32 31 28 27 27 26 27 28 35 39 39 39
39 39 36 36 33 33 33 33 32 32 34 34 32 29 28 27 28 28 31 31 28 26 26 26 26 23 25 27 28 27 27 27 26 24 25 25 24 26 27 26 26 22 34
39 37 36 36 32 31 30 32 31 30 28 27 26 27 27 28 27 26 27 27 26 25 25 25 23 22 22 24 26 27 27 25 24 23 23 24 24 25 24 26 25 27 26
39 38 39 39 35 32 33 32 29 28 25 25 25 26 27 27 26 26 25 25 24 23 25 24 23 22 22 23 23 25 25 25 23 22 22 22 23 24 25 25 26 27 26
38 37 37 38 37 37 37 34 32 29 26 24 24 26 26 25 24 26 25 23 23 23 23 22 21 22 25 26 25 25 25 24 22 21 21 21 21 22 22 26 25 26 27
25 26 36 38 38 39 38 36 31 27 24 24 25 26 26 23 28 27 25 23 22 22 20 19 20 22 23 24 27 29 28 25 22 21 20 19 19 21 22 22 23 23 23
25 30 37 37 37 37 37 34 30 27 24 25 26 26 25 25 30 28 26 24 22 21 20 19 19 17 22 23 25 27 26 27 28 27 25 23 22 23 22 21 22 23 23
30 32 34 35 35 37 37 31 28 27 24 25 25 27 26 25 29 31 30 25 23 22 22 20 20 21 23 23 22 22 24 25 24 24 27 26 26 25 25 24 26 28 26
30 31 31 32 34 34 36 32 30 26 25 27 27 27 26 26 29 28 27 24 23 23 22 22 21 20 23 26 25 25 25 24 25 26 28 30 30 32 31 30 27 25 22
31 31 33 33 33 34 34 31 25 23 27 28 27 27 28 25 26 25 27 25 21 22 22 21 22 23 28 28 25 23 22 21 24 24 24 23 24 25 26 28 27 26 25
32 32 32 31 31 31 28 24 23 26 27 25 24 25 25 24 22 24 23 22 21 22 20 20 22 23 25 25 24 24 23 23 25 23 22 22 22 23 24 25 26 27 26
30 31 29 29 26 24 23 23 24 24 24 23 15 18 21 22 21 22 20 19 20 21 21 21 23 26 23 24 25 27 25 25 22 22 23 23 24 25 27 30 29 28 29
29 28 27 27 26 25 23 22 23 23 21 21 21 16 19 21 19 19 20 20 20 21 21 23 24 22 24 25 26 26 25 26 24 23 24 25 26 27 28 29 29 31 30
27 27 27 27 28 26 24 23 24 21 19 22 20 17 16 18 17 18 19 20 21 21 20 22 22 22 22 24 22 23 24 23 23 22 22 25 27 27 27 28 28 28 29
28 28 27 27 27 26 24 22 25 22 21 19 18 17 6 5 16 20 19 19 21 22 20 19 19 18 18 20 19 20 21 22 21 22 22 23 24 25 25 27 28 29 24
27 27 26 25 25 26 25 24 26 24 23 21 19 15 12 17 20 20 19 19 21 19 18 16 16 16 16 16 17 18 19 21 21 21 22 22 23 23 24 26 26 23 22
27 27 26 26 25 25 23 23 18 23 27 27 23 22 21 18 19 19 19 16 16 17 15 15 14 14 15 16 16 17 17 21 21 20 21 21 22 23 24 23 20 21 21
27 26 24 23 22 22 22 25 26 23 20 18 24 24 18 18 18 19 19 15 11 13 14 14 13 14 15 15 15 16 17 19 18 18 18 19 21 22 18 21 20 16 22
27 24 24 21 19 22 26 26 25 24 24 21 19 21 17 16 19 19 18 7 5 7 12 14 14 15 15 14 13 14 15 15 14 15 16 17 17 21 20 18 18 18 17
27 23 22 21 20 26 27 25 25 25 24 22 19 14 13 10 3 1 1 -0 -1 4 4 11 14 15 13 13 13 12 13 12 11 12 12 14 16 19 19 19 19 19 16
25 25 22 23 21 26 25 24 25 24 24 22 18 14 9 7 4 4 4 2 2 3 0 5 7 10 12 11 14 12 10 7 8 9 10 10 12 14 16 19 16 17 19
26 23 22 20 24 26 26 26 24 22 23 22 18 16 10 3 10 9 5 4 1 3 3 3 4 7 11 11 12 8 9 5 6 8 9 9 10 12 13 14 15 10 11
18 17 24 26 23 20 21 23 25 25 24 24 22 17 14 10 9 9 6 3 3 3 2 2 -1 3 7 8 9 10 8 7 8 8 7 8 10 12 8 8 7 11 5
16 15 22 23 14 17 22 25 24 25 24 23 19 21 14 16 8 7 7 3 3 1 -1 0 2 4 5 8 8 9 10 7 7 8 6 8 10 11 7 10 9 8 5
17 14 16 17 17 18 18 23 26 25 25 20 16 20 20 14 11 7 4 3 3 1 2 -0 0 3 3 8 8 8 7 9 7 7 8 8 7 8 7 8 6 6 2
21 21 22 22 14 18 19 22 23 24 25 25 23 17 21 13 13 13 7 4 4 1 1 -1 2 3 5 8 9 9 7 7 6 7 7 10 7 6 6 5 5 5 4

GFSGL_sfc_dewp_012.txt.gz
Dewpoint
39 38 38 36 36 37 36 35 35 34 33 33 34 34 30 30 30 30 31 33 29 27 27 26 26 26 26 27 27 28 30 32 29 27 29 26 24 25 25 27 30 40 41
40 39 38 37 35 33 35 36 34 33 33 32 32 27 27 26 27 26 27 27 26 25 25 25 24 21 23 23 24 24 26 26 26 24 25 24 23 24 25 25 25 24 33
38 38 38 38 36 33 33 33 34 33 32 34 27 25 25 27 26 26 26 25 24 24 24 24 23 23 21 21 22 23 23 23 26 24 23 24 24 24 24 26 26 28 26
31 35 36 36 38 34 34 35 36 36 37 34 27 26 28 26 26 25 24 23 23 23 25 24 23 21 20 21 21 23 23 24 25 23 22 22 22 23 25 25 24 26 25
26 28 36 37 37 36 37 36 36 37 37 28 26 26 27 26 24 25 24 23 23 23 23 22 21 21 22 21 21 23 28 26 25 23 22 21 20 20 21 24 23 23 23
26 34 36 36 37 37 37 38 37 36 27 28 26 26 25 24 29 28 27 24 23 22 21 20 20 21 21 23 24 25 24 27 25 26 23 20 19 20 21 21 21 21 20
29 33 34 37 35 36 37 37 36 33 32 25 25 26 26 25 30 30 29 25 24 22 21 21 20 18 22 22 24 25 24 25 25 25 25 24 22 22 22 21 21 21 22
30 31 32 34 33 34 35 34 35 35 26 25 27 26 25 25 29 29 28 25 23 23 22 22 20 20 21 21 23 26 24 25 24 23 23 25 25 25 24 24 23 23 27
30 30 31 32 32 33 34 33 33 28 26 27 26 26 26 25 24 26 26 23 22 21 21 20 20 22 24 26 24 24 23 22 22 25 28 27 29 29 29 29 26 25 23
31 31 32 32 33 32 32 32 27 25 27 26 25 24 23 22 22 22 21 22 17 20 20 19 21 21 25 27 26 25 22 21 21 22 24 23 23 23 24 25 23 23 22
30 31 31 29 28 28 25 24 26 27 25 23 21 23 22 21 20 20 20 20 20 20 19 19 21 24 24 24 26 25 24 26 25 25 23 22 22 23 23 24 25 24 23
29 29 27 27 27 24 23 25 25 23 23 21 10 16 20 21 19 20 20 19 20 20 20 21 23 23 25 25 25 26 25 26 25 23 22 22 23 24 26 28 29 29 27
29 27 26 27 27 26 22 23 23 22 20 20 21 14 18 20 18 20 21 20 21 21 21 21 20 21 22 23 23 25 24 23 23 21 22 23 25 27 29 29 30 30 31
27 27 27 27 27 26 23 24 23 19 18 22 19 17 14 16 16 17 19 16 21 21 20 20 20 20 20 21 21 22 22 22 22 21 22 24 26 26 26 28 27 27 29
28 27 27 26 26 26 22 23 24 21 20 19 18 16 4 3 14 23 20 18 20 18 14 17 17 16 16 16 17 18 20 21 21 21 21 22 23 25 25 26 27 27 25
28 27 27 25 23 24 24 24 26 25 23 24 22 14 11 18 20 21 19 17 15 17 13 13 13 13 14 15 14 15 16 19 19 20 20 20 21 22 23 24 24 21 22
30 28 27 26 25 23 21 22 16 22 26 26 26 23 22 19 20 19 19 16 14 14 7 9 9 12 13 14 14 15 14 16 18 18 18 18 19 21 21 20 18 17 20
29 29 26 27 23 23 16 22 25 17 13 15 21 25 23 19 18 18 18 14 9 10 8 6 11 13 13 14 13 13 14 13 12 14 15 15 16 19 18 19 18 15 19
32 29 23 20 20 21 17 20 23 22 20 18 15 18 17 18 18 19 18 5 3 4 7 8 6 13 12 12 11 10 8 9 8 9 11 12 13 16 16 18 17 13 13
30 27 20 19 22 24 20 19 23 23 22 21 17 12 11 10 2 -0 -3 -6 -5 2 1 6 6 8 6 9 8 7 7 5 6 7 7 8 10 14 15 16 16 16 14
29 26 25 25 25 25 20 21 21 23 22 18 16 10 9 8 5 3 3 -1 -0 1 -2 3 -0 -2 1 3 11 7 6 -0 5 6 6 7 7 9 13 14 13 12 13
27 25 25 26 23 17 21 25 21 19 17 21 20 17 10 1 3 9 11 5 3 3 3 1 2 2 2 4 4 1 4 2 3 4 4 5 7 10 9 7 5 4 6
22 16 16 19 20 16 13 17 22 20 20 21 21 15 9 9 10 11 11 8 2 3 -0 -1 -4 -0 -2 -2 -2 3 5 6 5 4 3 3 6 7 3 1 2 3 1
18 14 16 17 10 11 8 15 25 21 23 21 13 10 14 16 9 8 7 5 -2 -0 -7 -3 0 2 1 -2 -3 0 6 5 6 7 4 4 5 7 2 3 1 0 -2
17 15 15 16 16 14 11 13 18 26 23 20 14 7 11 9 11 8 9 3 4 0 3 -2 -1 0 1 0 2 4 2 5 5 6 5 6 5 5 3 3 0 1 -3
28 27 22 20 19 16 15 15 18 22 19 24 22 18 13 11 11 8 9 1 3 4 1 -3 -1 2 0 2 4 5 2 5 5 5 5 7 5 3 3 2 2 2 2

GFSGL_sfc_dewp_015.txt.gz
Dewpoint
40 39 39 39 37 37 37 36 36 35 34 35 36 35 33 29 28 28 29 30 29 26 25 25 25 25 25 25 25 25 25 26 25 25 29 29 25 24 25 27 28 29 37
35 36 37 37 36 35 34 35 34 35 35 32 34 34 29 28 27 27 26 27 25 24 24 24 24 21 22 23 23 21 22 23 24 21 25 25 23 24 24 24 25 25 28
29 31 32 34 36 37 33 33 34 32 32 35 35 33 28 27 27 26 25 24 23 24 24 23 23 23 21 20 20 20 22 22 23 23 23 24 24 24 23 24 25 26 23
25 29 33 35 35 34 34 33 33 34 36 35 36 31 28 28 26 24 23 24 24 23 24 24 23 22 20 19 19 20 23 25 25 27 25 23 23 23 23 23 23 24 22
25 30 34 36 36 36 36 36 36 36 36 38 29 29 28 26 24 24 24 24 23 23 24 23 22 22 23 21 19 20 21 22 25 25 25 25 24 20 20 22 22 21 22
25 31 34 35 36 36 36 36 36 36 35 30 31 26 25 24 29 29 30 26 25 24 23 22 22 22 21 22 23 23 23 23 23 24 22 24 24 20 20 21 20 20 19
25 32 33 34 35 33 35 35 35 33 36 29 25 26 25 25 30 29 29 27 25 24 22 21 20 18 21 21 22 23 24 25 25 25 23 22 23 24 22 21 21 21 21
27 30 32 32 32 32 33 34 33 32 30 26 26 25 25 25 25 26 26 23 21 21 19 19 19 20 22 21 24 23 23 23 23 24 26 24 23 24 24 23 22 23 23
29 30 30 32 32 32 32 31 31 30 26 26 26 25 22 20 22 22 22 22 21 20 20 18 19 20 22 26 25 24 24 23 22 23 23 25 29 30 30 27 25 24 22
29 30 31 32 30 29 28 29 26 26 26 25 22 23 21 20 21 20 20 20 15 20 20 19 20 21 24 24 25 24 22 21 22 22 22 24 24 23 23 24 22 21 21
29 29 30 28 27 26 24 23 26 26 24 23 22 22 21 20 19 20 20 19 19 21 19 18 21 22 24 24 24 25 24 25 25 24 24 23 22 22 23 23 24 23 21
28 29 27 26 26 24 23 25 25 23 22 21 9 15 20 20 19 21 21 20 20 21 20 20 21 20 23 22 23 25 24 24 23 23 23 23 24 24 26 27 28 27 25
29 28 26 27 26 25 22 23 23 22 19 19 21 14 18 21 18 20 23 20 21 17 19 19 19 18 19 20 20 22 22 21 21 20 21 22 24 26 28 29 29 30 30
28 28 28 27 27 26 23 23 22 20 18 21 19 17 14 16 16 16 21 16 20 17 16 16 17 19 17 17 17 19 20 21 21 20 21 23 25 25 26 28 27 27 27
29 29 28 29 26 25 22 23 24 23 22 19 18 16 3 4 14 22 19 17 11 16 9 8 12 13 13 15 15 15 16 17 17 19 19 19 21 23 25 27 27 27 23
31 30 30 29 26 25 23 24 26 26 25 25 25 15 11 18 21 20 19 17 16 15 9 3 1 5 11 14 13 13 13 14 15 16 17 18 18 20 22 23 24 22 23
29 30 29 29 27 24 23 23 18 22 25 26 26 25 24 22 20 18 18 15 14 13 4 1 -4 0 8 13 12 12 12 11 12 14 14 14 16 18 20 20 20 21 21
30 29 30 28 28 27 25 20 18 18 13 14 21 25 25 22 19 18 17 14 8 8 6 2 0 3 5 12 12 11 10 8 7 8 11 11 12 15 16 18 19 15 17
31 30 29 27 23 22 21 16 19 21 20 15 13 17 17 21 19 19 18 5 3 3 5 6 0 5 4 6 3 7 4 4 2 2 6 9 10 12 14 16 15 15 14
32 30 27 25 23 24 24 21 21 20 21 18 13 11 9 9 3 -1 -3 -6 -7 2 1 5 6 4 -0 -0 -5 -4 4 3 5 4 2 3 5 9 12 13 14 9 11
32 30 26 25 23 22 19 19 22 20 23 21 14 8 11 10 8 3 5 2 3 3 1 3 1 -4 -3 -4 2 -4 -3 -4 4 3 3 4 2 4 9 9 9 10 11
30 29 27 26 25 17 18 22 23 20 20 15 18 13 10 1 5 7 7 7 5 5 5 2 3 3 2 3 -0 -8 -6 -7 -1 3 2 3 5 5 5 4 3 2 6
30 28 24 20 18 15 11 17 19 20 20 17 19 16 7 8 13 10 9 9 4 2 3 1 -2 1 -2 -5 -7 -2 -3 -3 -2 2 3 3 5 5 1 -1 1 2 1
29 25 21 17 8 11 9 14 14 16 22 23 22 14 12 11 10 9 8 6 1 -0 -4 -0 2 3 2 -5 -8 -5 1 -4 -3 -0 2 4 5 7 4 4 1 -1 -3
29 25 19 18 21 21 16 14 15 16 22 24 21 17 16 12 9 9 9 6 3 -2 2 1 1 3 2 1 -1 0 -2 1 -4 -3 -2 4 3 2 3 4 1 3 -0
30 27 27 27 24 23 21 20 21 20 21 22 22 22 19 15 14 12 9 4 4 3 3 -1 -0 2 1 1 1 2 -1 -0 -4 -2 -3 2 4 4 2 2 2 2 3

GFSGL_sfc_dewp_021.txt.gz
Dewpoint
32 34 33 33 35 37 35 35 34 36 35 37 37 37 36 35 35 36 33 30 29 30 30 28 27 27 25 24 24 22 20 19 17 17 17 18 20 22 22 24 24 28 30
30 30 30 33 33 34 34 34 35 35 36 36 36 36 35 35 37 33 29 28 28 28 26 26 26 23 24 24 22 21 20 19 18 15 16 17 21 22 23 25 23 24 24
26 26 28 30 33 34 34 35 36 36 37 37 35 35 37 37 30 29 28 27 25 26 26 26 25 25 23 21 21 19 19 18 19 17 17 18 18 19 25 24 24 26 23
24 24 27 31 34 35 36 37 37 36 37 37 37 38 35 30 28 26 25 26 27 27 27 26 24 22 20 19 19 20 18 21 20 19 18 17 18 19 21 23 23 23 23
26 26 28 31 35 36 37 36 36 37 37 37 35 33 30 28 24 28 28 27 26 24 22 19 18 20 22 21 19 19 19 19 19 20 17 15 15 16 16 19 22 24 28
26 26 28 32 34 35 35 35 35 35 35 36 32 28 27 25 30 29 28 23 20 17 16 16 16 18 18 21 21 22 22 23 24 20 18 21 20 19 19 18 24 22 20
25 26 27 32 33 33 33 33 33 33 35 34 29 26 26 25 24 25 24 22 19 17 16 15 15 14 18 17 19 22 24 23 23 24 23 19 17 17 19 23 23 24 22
25 26 30 32 32 32 33 32 31 31 33 32 27 26 24 19 22 22 22 19 18 17 16 16 16 16 17 19 24 21 19 17 19 21 24 23 21 21 21 24 25 23 23
25 27 29 31 31 31 30 30 29 30 30 28 26 24 20 19 20 21 21 21 20 19 18 17 17 16 20 24 21 21 17 16 19 21 24 25 26 26 26 24 24 23 23
27 28 29 30 30 30 29 28 27 27 27 26 23 22 21 21 19 20 21 23 23 21 19 16 17 18 21 20 20 21 19 18 17 19 20 22 24 24 26 24 21 24 22
29 30 30 28 29 29 28 27 26 26 27 27 26 24 21 21 20 20 21 24 22 21 17 15 17 19 18 18 19 21 21 20 21 20 19 19 19 21 24 26 23 22 21
28 30 28 29 28 26 28 27 26 26 26 25 26 26 24 25 21 20 21 22 21 21 19 17 19 17 17 18 18 19 18 20 21 21 21 20 21 22 22 24 28 28 25
30 29 28 28 28 27 27 27 24 24 25 25 23 25 23 24 23 20 21 23 20 21 21 17 16 16 16 15 16 17 17 18 19 19 19 19 22 24 27 29 29 28 30
29 30 30 29 27 28 29 26 24 26 25 24 25 24 24 23 24 22 23 23 20 19 18 16 16 15 14 16 15 15 15 15 17 18 18 20 22 24 26 28 28 29 29
29 29 30 30 30 29 29 25 25 26 26 27 26 25 27 26 24 23 24 23 22 19 17 17 15 14 12 13 14 13 12 11 14 17 18 18 19 21 23 25 27 28 28
29 29 31 31 31 30 28 26 27 27 26 27 27 27 29 25 22 23 23 19 17 15 15 15 14 15 14 11 13 13 12 9 11 15 17 17 17 19 20 22 23 24 25
28 30 31 31 31 30 30 29 28 28 27 28 28 28 28 27 24 25 23 19 17 15 16 16 17 15 14 11 10 11 10 10 10 13 15 16 17 18 20 20 21 21 21
29 31 32 32 31 31 31 30 30 29 28 28 26 25 26 26 27 26 23 20 19 17 16 16 17 16 14 11 10 10 10 11 10 9 14 15 16 17 18 17 19 19 19
29 30 32 33 32 32 32 31 30 28 27 26 26 24 25 25 26 27 24 23 22 20 18 16 18 16 15 14 15 14 14 13 11 11 11 13 14 14 15 16 17 16 16
30 31 32 31 32 31 30 29 28 28 27 27 27 26 25 21 26 26 26 25 23 22 22 19 18 17 18 17 17 16 14 14 13 11 11 13 14 14 13 15 16 16 15
29 29 31 32 30 29 30 29 27 28 27 27 27 30 24 24 25 26 26 25 23 23 23 22 21 20 19 18 16 16 14 15 13 10 10 11 13 13 12 14 14 15 14
29 30 30 31 31 30 29 30 28 27 26 26 27 28 21 22 25 26 26 26 26 24 24 24 22 21 20 18 18 18 15 14 14 12 10 9 12 13 12 12 12 13 13
31 31 30 29 31 30 30 29 28 28 27 27 26 26 27 26 26 25 26 26 26 25 24 23 23 21 21 19 19 17 16 14 15 13 10 10 12 13 13 12 11 10 10
32 32 30 29 30 29 29 28 28 25 26 27 27 27 26 27 27 27 27 27 26 26 25 21 21 20 20 20 19 17 15 15 15 13 7 9 11 11 12 10 11 10 10
30 30 32 31 31 30 29 28 28 29 28 28 28 28 28 29 28 28 28 27 24 24 23 20 20 19 18 17 18 16 15 12 13 9 10 9 10 10 10 9 11 10 10
30 31 32 31 31 31 30 29 29 30 30 30 30 29 30 30 29 29 28 26 24 23 23 23 21 18 18 18 17 15 10 10 11 6 9 10 10 11 11 10 9 11 9

GFSGL_sfc_dewp_024.txt.gz
Dewpoint
33 31 31 29 30 30 29 29 30 32 32 31 32 33 33 33 34 35 36 35 32 29 29 30 29 28 25 24 24 22 21 19 18 18 17 19 21 21 20 24 24 24 24
30 29 27 28 27 28 28 30 32 32 32 32 33 33 32 33 37 38 34 29 28 28 28 28 28 23 25 24 22 21 19 19 18 18 18 18 19 21 21 23 18 20 22
26 25 25 26 27 28 29 32 33 33 31 32 32 33 32 35 35 33 31 29 28 28 28 28 26 25 23 21 20 19 18 18 20 20 18 19 19 20 19 22 22 25 20
24 22 24 28 29 30 31 33 33 32 32 32 33 33 34 32 32 30 27 30 29 27 27 26 23 20 20 20 18 19 18 20 20 19 18 17 19 18 18 19 20 22 23
25 23 27 29 30 31 34 34 33 33 32 32 32 33 33 31 28 30 28 28 26 24 22 19 19 20 20 20 18 19 19 19 19 19 19 19 17 18 19 20 19 18 21
24 26 26 28 29 30 33 32 31 32 31 31 31 32 31 25 28 27 26 24 23 19 18 17 18 19 19 20 21 21 21 21 22 21 21 19 19 17 17 18 20 20 20
25 25 25 27 28 30 29 28 28 30 32 31 32 31 29 29 23 23 23 21 20 19 18 17 16 14 19 17 19 21 24 24 26 25 21 22 23 21 22 20 21 20 23
24 24 24 26 27 27 28 28 30 31 30 30 31 29 29 24 22 21 22 22 21 20 19 19 18 17 17 19 20 20 18 18 15 17 20 20 20 22 22 23 23 21 22
22 21 24 28 27 26 26 28 30 29 29 29 29 29 28 25 21 20 21 23 23 21 19 19 17 16 19 21 19 18 16 15 19 20 21 22 23 26 25 25 23 20 23
23 24 26 27 26 26 27 29 30 29 27 26 27 28 24 25 21 19 21 25 27 23 21 18 16 18 19 19 20 20 20 18 16 17 18 19 21 22 26 26 23 21 20
26 27 25 26 26 27 29 29 29 28 28 30 30 28 26 26 25 20 20 26 25 23 20 19 17 18 18 18 18 20 20 18 18 19 19 19 19 21 21 23 29 23 21
25 25 26 27 26 26 28 29 28 28 29 29 33 31 28 28 24 22 21 22 22 25 22 21 21 17 17 17 17 17 17 19 21 21 22 21 22 23 25 26 27 26 26
26 27 27 28 27 26 27 28 28 27 28 28 26 27 26 28 26 24 21 21 23 24 23 21 18 16 16 15 14 16 17 18 19 20 19 20 22 24 27 30 31 32 28
27 27 27 28 27 26 25 27 28 27 28 26 26 25 25 25 26 25 25 25 24 23 21 21 18 18 17 15 16 15 17 16 17 20 20 20 22 24 25 27 29 32 30
26 27 28 29 28 27 26 27 28 28 28 27 26 27 29 28 27 26 25 25 26 22 21 22 20 18 16 14 16 15 16 13 14 18 20 20 19 20 22 26 26 28 29
28 28 29 30 29 28 27 26 29 27 28 28 28 29 31 29 26 24 23 24 21 18 20 21 22 22 19 16 16 16 16 14 12 15 18 18 19 20 20 23 24 25 26
28 28 28 29 28 28 28 29 29 29 29 29 29 29 28 28 28 27 25 25 21 19 21 22 23 23 21 16 14 14 15 15 14 13 15 17 17 18 21 21 22 22 23
29 30 30 30 30 31 31 31 31 31 31 30 30 27 27 27 27 27 26 25 22 22 21 22 23 22 20 16 14 14 15 17 17 14 16 16 17 17 17 17 19 21 19
29 29 31 33 33 32 33 32 32 32 32 28 28 27 28 26 26 26 27 28 23 22 21 20 23 21 20 19 20 20 19 18 17 17 17 16 17 16 15 16 17 17 17
28 29 30 29 30 32 32 30 30 32 31 29 26 26 27 27 29 28 29 29 26 24 24 22 22 22 22 22 23 22 20 19 18 16 16 17 18 17 15 15 17 16 15
29 28 28 28 28 28 31 31 30 32 31 28 29 33 28 28 28 28 27 29 28 26 27 24 25 25 24 24 21 21 20 20 18 16 16 15 16 16 15 14 15 14 13
31 30 31 32 30 31 31 31 32 32 31 29 30 31 28 31 29 30 29 30 32 30 30 28 26 25 24 23 23 23 21 19 19 18 18 13 15 17 16 15 14 14 13
32 33 32 33 32 31 31 31 32 33 33 33 31 30 31 32 31 30 32 33 32 32 32 28 28 26 26 26 25 23 21 20 19 19 17 15 15 17 17 16 13 12 12
32 32 31 32 33 32 32 32 32 31 31 32 32 33 33 33 32 32 32 32 32 32 32 30 27 27 26 26 24 24 22 21 20 18 16 14 15 15 16 13 13 12 13
32 32 32 32 32 32 32 32 32 32 32 32 32 32 32 32 32 32 32 32 32 32 32 30 29 28 26 24 24 24 21 18 17 16 17 14 14 13 13 12 12 14 12
32 32 32 33 32 32 32 32 32 32 32 32 32 32 32 32 31 32 32 32 32 31 31 31 29 27 26 25 23 22 20 16 16 13 16 14 14 14 14 13 10 12 12

GFSGL_sfc_dewp_027.txt.gz
Dewpoint
35 34 37 33 31 31 31 30 30 32 31 31 30 30 30 30 31 34 37 37 36 36 32 30 32 31 29 28 28 23 23 22 20 20 19 22 22 23 22 24 25 26 26
33 37 35 31 29 30 30 28 31 31 32 31 29 29 29 29 31 35 33 36 34 32 31 30 29 25 28 24 22 21 21 20 20 18 19 21 22 22 23 24 20 18 23
32 33 29 29 29 29 29 29 30 31 31 31 29 30 29 30 29 31 33 31 30 30 30 29 27 25 22 21 21 20 19 16 20 21 20 22 21 20 21 22 22 22 19
33 28 27 27 29 30 29 29 31 31 31 30 30 30 31 30 29 29 28 30 31 29 28 26 23 21 21 21 18 19 18 18 18 19 18 20 19 22 23 22 23 24 21
31 27 27 28 30 29 29 30 32 32 30 30 29 29 31 30 27 30 28 27 27 25 24 20 21 20 19 21 18 18 19 18 18 18 19 20 21 19 19 21 22 21 20
30 28 26 28 28 28 28 31 32 29 28 29 29 29 31 26 28 27 25 25 24 21 20 20 19 22 22 23 22 21 21 20 22 23 20 17 16 19 24 25 23 21 17
28 25 26 27 26 26 26 26 26 28 30 30 29 30 31 30 26 24 23 22 23 22 21 20 18 14 21 19 21 21 21 24 24 23 22 22 24 20 20 22 22 23 22
26 25 25 24 23 25 25 25 27 28 30 29 29 30 30 27 25 23 23 23 23 23 22 21 20 19 19 20 19 18 16 15 16 14 19 19 19 19 19 21 22 20 22
24 24 21 22 24 25 24 25 26 28 29 29 28 29 30 28 25 22 21 24 24 23 22 21 19 17 20 20 18 18 16 15 17 21 19 22 24 25 25 25 26 23 24
22 21 21 24 24 24 25 26 28 28 27 26 26 29 27 28 24 23 21 26 26 25 23 20 20 17 19 18 19 19 18 16 13 14 18 20 21 22 26 25 27 26 24
22 24 24 22 23 25 26 27 28 28 29 31 33 31 29 30 28 24 22 24 26 25 22 20 21 20 18 18 18 19 20 17 17 19 20 21 21 21 22 25 26 28 27
27 26 23 24 24 24 27 28 28 29 30 30 35 32 31 30 28 25 23 22 23 25 24 22 24 21 18 18 17 17 17 19 22 20 21 21 21 23 23 25 30 33 31
27 26 25 26 26 26 27 26 26 28 29 30 29 32 29 30 31 28 25 23 22 25 25 23 21 20 17 18 15 16 19 19 18 19 20 20 21 22 24 27 29 29 34
26 26 26 27 27 27 27 25 26 30 31 30 29 28 29 28 28 29 28 27 25 26 26 25 22 21 20 21 20 19 19 19 16 17 19 20 23 23 24 25 27 28 30
25 26 28 29 30 28 26 27 27 29 31 29 30 30 33 32 29 28 29 29 29 26 23 24 23 21 20 19 19 18 18 17 16 16 17 18 19 20 21 24 25 26 26
27 28 32 31 30 28 26 27 29 29 29 28 28 30 35 30 28 27 25 24 24 23 21 22 24 24 23 20 19 18 19 18 16 16 16 16 16 17 19 22 22 23 24
29 30 29 29 28 28 30 30 29 31 30 29 29 29 29 30 29 29 28 26 25 23 22 22 24 25 24 20 18 17 17 18 18 17 17 18 17 16 19 18 20 21 21
30 30 30 30 31 31 31 31 32 31 32 33 32 29 29 29 29 29 28 27 25 26 22 22 23 24 22 20 18 18 18 19 19 17 18 19 19 18 17 16 16 18 18
30 30 32 33 33 32 32 32 31 31 31 31 32 30 30 29 29 29 28 27 26 25 24 24 27 23 22 22 23 23 22 21 20 20 19 19 19 19 17 15 16 17 17
29 30 30 31 31 30 30 30 31 31 30 31 32 31 30 30 31 30 31 30 29 27 27 25 25 24 25 24 26 25 23 23 21 20 20 20 20 19 19 16 16 15 14
31 32 31 30 31 31 32 31 31 31 31 31 32 34 30 30 31 32 31 32 31 29 29 28 29 29 28 26 24 24 22 23 21 20 19 19 18 18 19 18 16 14 13
34 34 33 32 32 34 33 32 32 31 30 31 32 34 29 31 30 30 31 32 33 32 31 31 29 28 28 26 26 26 24 23 22 20 20 19 17 18 19 18 17 15 13
35 35 34 30 31 31 33 33 32 33 33 33 33 33 34 33 32 31 31 32 33 33 32 31 31 30 30 30 30 26 24 23 22 22 19 19 17 18 18 18 16 15 14
34 35 33 30 32 33 33 33 33 31 32 33 33 33 33 33 33 33 33 33 33 33 33 32 31 29 29 30 30 27 25 24 23 20 18 18 16 16 18 16 15 16 15
35 35 33 32 33 33 32 32 33 32 32 32 32 32 33 33 33 33 33 33 33 33 33 33 32 31 29 28 28 26 25 22 22 20 20 17 16 15 15 15 15 14 15
33 33 33 34 33 32 31 31 31 31 30 30 31 31 32 31 32 33 33 32 32 32 33 33 33 32 31 30 28 27 25 23 20 18 19 17 17 16 17 16 13 13 14

GFSGL_sfc_dewp_030.txt.gz
Dewpoint
40 41 40 38 39 36 38 37 35 35 34 34 34 33 33 33 34 34 34 34 35 36 36 35 35 32 31 31 31 27 24 23 20 20 20 22 21 23 23 24 25 23 23
40 38 38 39 36 36 36 36 36 35 36 34 34 32 33 33 33 33 33 34 34 33 33 33 31 27 28 26 24 23 22 21 19 18 20 21 22 22 22 22 21 20 22
35 35 35 36 36 34 35 35 34 35 35 35 33 33 33 33 32 32 32 32 33 33 32 30 29 26 23 23 22 20 21 19 20 19 18 20 21 21 21 23 23 24 23
35 34 36 36 36 35 34 34 34 35 34 34 33 34 34 32 31 31 30 31 31 29 30 29 25 23 22 20 18 19 18 19 19 19 19 19 19 21 23 21 22 23 23
36 35 34 37 33 34 34 34 34 36 34 33 33 34 33 32 28 31 28 27 28 26 27 24 22 22 21 20 18 19 20 20 19 17 18 20 20 18 17 24 26 23 22
36 36 34 33 33 34 33 33 34 35 33 32 33 33 33 28 31 29 26 24 25 25 23 22 22 25 25 25 25 22 22 20 20 21 21 20 19 22 24 21 20 20 19
37 34 34 32 32 32 30 29 30 32 33 33 33 32 32 29 30 27 24 22 24 25 23 22 21 17 24 21 22 21 21 22 23 22 21 23 23 19 19 18 19 20 21
34 32 31 30 28 27 29 30 31 32 32 33 32 32 32 29 30 27 24 22 24 24 24 23 22 21 22 20 20 18 18 17 17 16 18 17 17 19 20 20 21 21 23
28 30 30 27 26 28 29 30 31 30 32 32 31 31 31 28 29 26 23 24 25 25 24 24 22 20 21 20 19 19 18 17 18 20 19 20 23 26 26 24 24 23 22
29 28 28 27 28 28 29 30 31 31 30 31 31 31 29 30 28 26 24 26 26 26 25 23 22 20 18 19 19 19 17 18 16 15 18 21 22 24 27 26 28 25 26
30 29 27 29 31 29 30 30 30 30 31 31 30 30 30 31 27 27 25 25 26 26 25 24 25 21 21 20 18 20 19 19 18 19 20 20 22 23 22 24 25 27 27
32 32 31 29 28 26 30 30 30 30 31 31 33 31 31 30 30 28 26 25 24 23 24 25 25 23 22 20 19 19 18 20 19 18 19 20 21 22 23 23 25 27 28
32 30 30 29 28 27 29 29 29 29 29 31 31 31 30 31 31 30 28 27 25 23 25 26 25 23 23 22 22 20 19 20 18 14 17 18 20 22 23 24 24 25 27
31 31 30 29 29 29 29 29 29 31 30 30 31 30 30 31 32 31 27 26 25 25 25 27 24 22 20 20 20 22 22 21 18 16 16 18 20 21 21 23 22 24 24
30 28 30 31 31 31 29 29 29 30 31 30 30 31 32 31 30 29 31 31 30 28 20 21 20 22 22 21 21 21 21 21 18 17 15 17 18 18 18 20 22 23 22
29 30 32 33 32 30 29 28 30 29 30 30 30 29 30 32 30 29 29 27 25 24 21 18 17 20 20 20 18 19 19 18 19 18 17 17 18 17 17 18 21 22 20
30 31 31 30 31 30 30 30 29 31 32 31 31 30 30 29 31 30 29 28 27 25 20 19 20 21 24 22 20 19 16 17 17 18 16 16 17 19 18 18 18 19 18
31 30 30 31 32 31 30 31 30 29 29 29 31 30 30 30 30 30 30 29 26 26 25 22 21 22 22 22 21 19 18 16 16 16 13 17 16 17 18 17 16 17 17
31 31 32 33 32 31 31 30 30 29 30 30 30 29 29 31 31 30 30 27 24 23 24 24 23 23 24 22 20 20 17 15 14 10 12 16 17 18 14 19 13 14 15
30 31 30 32 32 31 31 30 28 28 28 29 29 29 31 31 28 27 27 26 25 24 24 25 25 24 25 25 22 20 18 15 17 15 15 11 16 12 12 17 15 9 15
31 31 31 33 33 33 32 30 30 30 30 29 28 30 30 32 30 28 28 28 27 26 26 25 25 25 25 27 22 20 21 18 17 14 14 13 10 8 15 18 17 17 14
33 32 32 32 33 31 31 30 30 30 30 30 29 29 31 32 31 28 27 28 31 30 29 28 27 27 27 25 25 24 22 19 20 16 13 13 11 11 12 17 15 14 14
33 33 33 32 32 31 29 29 29 29 29 30 30 30 30 31 31 30 29 30 30 30 31 31 31 30 28 28 27 25 24 24 21 19 14 12 11 11 11 9 14 11 9
26 28 29 30 33 31 29 29 29 27 29 31 31 30 31 31 32 32 32 32 32 32 31 32 32 31 30 30 29 27 25 25 24 18 13 11 11 11 11 10 9 10 12
26 27 29 28 31 31 31 31 29 29 31 31 30 29 29 30 30 30 31 32 31 32 31 32 32 32 31 30 30 29 25 24 24 17 16 12 9 8 7 8 6 8 9
26 28 29 29 29 29 31 29 28 25 27 27 26 26 26 24 24 24 24 24 25 27 29 30 30 32 31 30 29 29 27 24 22 18 18 17 12 9 8 9 9 7 9

GFSGL_sfc_dewp_033.txt.gz
Dewpoint
40 39 37 35 34 35 35 36 35 34 33 32 33 32 30 31 32 32 32 32 33 34 34 34 34 34 33 31 28 25 23 22 19 20 21 22 21 22 22 24 25 24 24
39 38 36 36 35 35 35 36 37 34 34 33 34 31 31 31 32 33 32 32 32 32 32 31 31 27 25 24 23 20 20 20 19 18 19 20 20 22 22 22 22 21 23
36 34 36 36 35 35 34 35 34 33 34 34 32 31 31 32 31 32 31 31 32 31 31 30 29 26 21 21 19 19 19 18 20 19 18 20 20 21 20 22 23 24 23
34 33 36 36 37 34 35 32 32 33 33 32 31 32 33 33 31 31 31 30 29 28 28 28 27 22 20 18 17 17 18 19 19 19 18 18 19 20 22 20 23 24 24
35 35 37 38 35 36 34 34 34 34 32 32 32 32 34 33 30 30 28 27 26 25 26 25 23 23 25 21 17 18 20 19 20 19 18 18 19 20 20 25 21 19 19
36 37 37 37 35 35 32 31 31 32 33 33 32 33 32 28 33 31 27 24 24 24 23 23 22 24 26 26 24 23 21 20 19 18 19 18 19 23 23 20 18 17 16
40 38 38 39 35 31 30 29 29 29 30 31 32 32 32 30 31 30 28 23 23 23 24 23 21 22 23 20 20 20 19 19 22 20 18 19 17 17 18 19 19 20 20
38 34 33 32 30 31 29 29 31 32 32 32 32 32 33 29 32 31 27 22 22 24 24 23 22 21 21 20 20 18 18 18 18 17 18 17 17 19 20 21 22 22 23
31 30 31 32 30 30 31 33 34 33 30 31 32 31 31 29 31 30 25 23 24 24 25 24 24 20 21 20 19 18 18 18 18 20 20 22 23 24 24 26 25 24 22
32 31 31 32 33 33 34 34 32 29 28 30 29 30 31 29 31 29 26 25 25 26 25 23 23 20 20 19 20 18 17 16 18 17 18 20 22 23 26 24 24 23 22
32 34 35 35 34 34 33 30 29 29 30 30 30 30 30 29 28 30 28 25 25 25 25 24 23 22 22 22 21 20 18 19 20 19 19 19 20 22 22 23 24 24 24
34 35 34 32 31 30 30 30 29 29 28 29 30 29 29 29 29 30 30 28 26 22 24 24 24 26 24 23 22 22 22 22 15 17 17 17 19 19 21 22 24 25 25
34 33 32 32 32 30 29 28 28 28 28 28 29 26 28 29 29 30 30 29 28 23 24 24 26 26 25 25 25 24 22 19 15 12 14 16 17 19 21 22 23 23 25
32 32 32 32 31 30 30 30 29 28 26 28 28 27 27 28 29 28 28 28 29 26 23 24 23 24 21 21 20 22 21 19 17 16 13 15 18 18 18 19 20 21 22
31 31 29 30 30 30 31 30 29 27 28 27 27 27 25 24 28 32 29 27 25 25 18 24 20 18 19 22 21 21 20 19 17 13 12 14 17 18 18 18 19 20 18
29 28 28 27 28 29 29 29 30 29 30 31 31 28 27 31 32 32 33 31 30 29 24 18 10 8 15 20 19 18 17 16 17 16 12 15 15 15 17 18 19 17 18
28 28 28 29 28 28 27 27 26 28 31 31 32 32 32 30 31 32 31 30 29 27 16 15 10 13 15 20 21 18 16 15 15 15 13 11 12 16 15 17 16 16 16
28 29 29 29 29 29 27 27 26 27 25 26 29 30 31 32 31 31 32 32 26 27 22 19 18 17 19 21 20 19 16 13 13 13 9 6 5 10 11 14 17 8 15
29 29 29 29 29 30 30 28 27 27 26 27 27 26 27 31 31 31 32 29 24 23 23 23 22 21 20 21 20 18 13 9 7 4 6 6 8 9 8 11 15 10 10
32 29 28 29 30 31 31 30 29 28 28 27 26 27 25 24 29 30 30 29 27 24 24 23 24 23 22 23 24 23 16 11 9 6 5 8 2 4 4 6 9 8 13
30 31 30 31 31 31 30 30 31 29 27 27 27 27 27 27 28 27 27 28 27 26 25 24 24 24 24 22 21 22 22 17 16 13 11 7 -1 4 6 7 9 12 14
25 24 24 24 26 27 30 31 30 29 27 24 27 25 25 26 29 30 30 29 29 28 27 27 26 26 25 25 24 22 22 22 19 16 12 9 8 5 4 8 5 6 9
22 22 22 23 24 25 26 26 29 30 27 23 23 25 24 27 29 30 31 31 31 31 31 30 29 29 27 26 27 26 24 22 20 19 16 10 9 5 1 5 4 4 4
23 23 21 21 24 25 25 27 29 28 26 24 27 30 28 27 28 27 30 31 32 32 32 31 31 30 30 29 29 28 27 25 24 22 18 14 11 8 2 4 4 2 4
18 18 18 19 20 20 21 25 28 29 27 26 20 20 23 22 22 23 24 23 23 24 24 27 31 31 31 31 29 28 27 27 26 21 19 15 11 7 4 4 1 4 1
13 14 11 13 14 16 17 18 19 21 21 22 19 19 17 14 14 15 18 19 18 18 18 20 22 23 28 30 30 30 29 27 26 22 19 17 13 8 5 3 2 3 4

GFSGL_sfc_dewp_036.txt.gz
Dewpoint
39 38 37 35 36 36 36 36 35 35 35 34 35 33 31 30 31 34 33 33 32 33 33 34 33 34 33 31 27 25 22 21 18 19 20 21 20 21 21 23 24 23 25
39 37 35 36 41 38 36 37 36 35 36 35 35 33 31 31 31 32 33 32 31 32 31 30 30 28 26 24 22 20 19 20 19 17 18 18 19 20 21 22 21 21 24
39 37 35 35 34 34 36 37 37 36 34 34 34 31 31 32 32 33 32 32 32 33 31 29 29 29 22 23 20 19 19 18 19 19 18 19 19 20 20 22 22 22 24
36 34 34 34 35 35 37 36 35 34 34 34 32 32 33 33 33 32 31 32 31 29 27 26 25 24 22 20 18 17 18 18 19 19 19 18 18 19 21 21 22 22 20
39 38 41 40 38 39 36 35 35 34 33 33 32 33 33 33 32 32 31 29 27 26 26 24 23 23 25 22 18 18 19 19 19 19 18 18 18 18 20 22 22 18 18
39 40 41 39 36 36 35 33 32 33 32 32 32 33 33 31 32 34 30 27 25 24 22 24 23 24 26 27 25 24 21 19 18 17 18 17 17 18 21 18 18 18 17
41 40 40 38 36 35 33 32 31 32 33 33 32 33 33 33 33 33 31 25 24 23 23 24 22 22 24 21 22 20 19 19 21 20 18 18 16 16 16 18 20 20 21
38 37 36 34 33 33 33 33 34 34 33 32 32 31 32 32 33 33 30 23 22 23 24 24 22 22 22 20 19 18 18 17 18 17 18 18 17 20 21 23 25 26 24
31 32 33 33 32 33 34 35 35 33 33 31 30 31 31 31 32 32 28 23 23 24 25 25 24 22 23 23 20 19 18 17 16 19 20 22 22 22 24 25 22 22 19
32 33 33 34 36 36 36 34 33 32 29 29 30 30 31 29 32 32 29 26 25 26 25 25 25 22 24 22 21 19 17 15 16 18 19 19 21 21 23 23 23 21 21
35 36 38 38 37 35 33 32 29 29 29 29 29 29 29 29 29 32 31 25 25 25 25 24 24 24 23 23 24 21 18 18 20 20 19 19 19 19 20 21 23 23 22
36 37 36 33 32 31 31 31 30 29 27 27 24 28 28 29 30 31 32 30 26 23 24 25 24 26 25 26 24 24 24 23 17 16 17 17 17 18 18 20 22 23 23
34 32 32 32 32 31 30 28 27 27 25 26 27 25 26 28 28 31 31 31 30 25 25 25 25 25 26 26 26 26 22 20 18 11 15 15 16 18 20 20 20 21 22
31 31 31 31 31 30 29 29 28 25 24 27 27 27 26 27 27 27 29 29 31 29 25 26 23 24 20 21 21 23 22 20 19 17 14 14 16 17 17 19 18 19 20
30 31 30 28 29 29 29 30 29 28 27 26 26 26 23 24 26 29 29 28 29 29 24 22 21 20 22 21 21 21 21 20 18 15 12 13 15 17 17 18 18 18 16
29 28 27 27 27 28 28 28 30 30 30 31 31 27 27 30 31 31 33 33 32 30 24 22 22 20 20 19 17 18 18 17 18 16 12 14 13 13 14 17 18 15 15
27 27 27 27 27 27 28 27 27 29 31 31 31 32 31 31 32 32 32 33 33 31 26 20 21 16 16 18 19 18 17 17 16 16 15 13 10 13 12 14 15 15 14
29 28 28 28 28 28 28 28 29 28 29 29 29 29 29 31 31 32 32 32 30 30 25 22 20 17 17 18 19 19 19 14 14 14 10 6 1 8 9 11 13 9 12
32 31 31 31 31 31 31 31 32 32 31 30 29 26 26 30 31 32 32 31 29 26 26 25 22 21 19 20 19 16 14 13 13 9 9 6 -1 8 7 8 7 10 9
27 26 25 24 24 24 24 26 27 29 30 29 29 28 25 21 21 29 29 29 30 27 26 25 24 24 22 21 19 18 16 16 16 12 8 2 -1 4 4 3 2 8 15
20 20 20 22 22 22 23 23 24 25 26 28 31 29 24 25 28 22 23 26 29 28 27 26 25 24 25 24 22 21 20 20 19 18 15 10 2 2 7 3 2 8 13
19 21 22 22 21 21 21 24 24 24 25 25 26 27 27 23 26 25 28 29 28 29 29 28 26 25 25 25 24 23 21 20 19 18 16 12 10 8 4 3 3 2 6
18 16 17 17 17 17 18 18 18 21 25 26 29 28 23 24 25 26 29 29 28 30 29 29 28 27 27 27 28 27 24 22 22 22 19 14 10 8 2 2 2 2 2
13 14 11 11 11 12 13 13 16 16 16 20 24 24 22 22 21 20 20 20 21 21 21 22 26 29 29 29 28 28 28 27 25 23 22 18 15 10 4 2 3 -0 -0
9 9 6 7 8 8 8 10 10 11 12 13 14 15 16 16 16 14 13 12 15 16 17 19 21 22 22 24 29 28 29 27 27 25 24 20 18 14 11 7 2 2 -1
8 7 5 4 5 5 5 6 5 7 8 9 10 11 11 12 12 11 11 11 11 12 14 16 17 18 18 19 20 24 29 28 27 26 24 22 18 15 11 10 5 0 3

GFSGL_sfc_dewp_039.txt.gz
Dewpoint
41 42 41 42 41 40 39 36 35 36 35 34 35 34 35 33 32 33 34 33 33 33 34 34 33 33 34 34 30 27 23 21 19 19 20 20 19 19 20 22 23 23 24
42 41 41 41 41 38 37 35 35 35 35 35 37 36 34 32 31 33 33 32 32 31 31 32 32 31 31 27 24 22 20 20 19 16 18 19 19 19 20 21 21 21 23
41 42 41 39 37 35 37 38 36 37 37 36 35 34 33 32 31 32 32 32 32 31 32 31 30 29 28 24 22 20 20 18 19 18 18 19 19 19 19 21 22 22 23
41 39 39 41 39 39 39 39 37 36 36 35 35 34 34 32 32 33 32 32 31 32 31 28 26 26 24 22 21 19 18 18 19 19 18 17 18 19 20 20 19 21 18
42 41 41 41 39 40 39 37 38 37 35 35 34 33 33 33 32 33 32 32 31 28 28 26 25 24 25 22 19 18 18 19 19 18 17 16 17 17 19 18 18 17 18
41 42 41 41 39 37 36 36 35 34 33 35 37 35 33 32 33 35 33 30 28 27 25 23 23 26 27 30 27 24 22 19 18 16 16 16 16 18 18 17 17 18 17
42 42 41 39 37 35 34 33 33 34 37 38 36 33 31 32 34 34 34 28 26 25 23 22 23 21 25 25 28 25 22 21 22 18 17 17 17 16 17 19 20 21 21
41 41 39 35 34 33 33 34 36 39 38 33 32 30 31 30 33 34 33 25 24 24 23 24 23 22 24 21 20 19 18 18 17 15 17 18 18 19 20 21 24 24 22
33 33 34 35 35 36 36 38 39 35 32 31 30 29 29 29 32 33 31 24 24 23 24 25 24 23 25 26 21 20 19 19 17 19 21 21 22 21 21 20 20 20 17
33 34 35 37 38 39 38 36 33 32 32 29 28 29 30 29 31 33 32 25 24 25 24 25 28 25 25 26 23 20 19 18 15 16 19 19 19 20 21 21 21 19 18
39 40 40 40 39 38 34 32 30 29 29 28 28 28 28 29 29 32 33 27 26 26 26 25 25 27 26 26 25 21 20 19 19 19 20 19 19 19 18 19 21 20 19
38 38 37 35 32 31 31 31 30 28 27 27 24 26 27 28 30 31 33 33 28 26 25 25 26 27 27 26 25 26 26 23 20 19 18 18 17 18 17 19 21 21 21
33 32 32 32 31 31 31 30 28 27 26 26 27 26 26 27 27 30 32 32 32 28 27 26 27 27 27 26 27 28 24 21 19 12 16 17 16 17 19 21 20 20 20
31 30 30 30 30 29 29 29 28 26 25 27 27 26 26 26 26 26 27 28 31 31 28 27 27 27 25 23 22 25 22 20 19 18 16 15 16 17 16 19 17 18 18
29 29 29 29 28 28 28 29 28 28 28 28 28 27 24 25 26 28 27 26 26 28 29 28 25 24 23 22 22 22 21 19 17 14 12 13 14 17 15 16 17 17 12
28 28 27 27 27 27 27 27 30 30 30 31 31 29 29 29 30 31 32 32 32 31 28 24 24 24 22 22 20 20 17 17 18 17 13 14 15 14 13 16 17 13 14
28 29 29 28 28 28 28 28 28 29 31 31 31 32 32 32 33 33 32 32 32 32 28 26 23 23 22 21 21 19 18 17 17 16 15 13 14 12 11 13 12 12 12
28 28 28 27 27 26 25 26 27 26 26 27 29 31 31 31 33 33 32 31 29 30 30 26 23 24 22 21 20 19 19 17 13 14 11 13 10 10 8 11 11 5 10
23 21 21 21 21 21 22 21 22 22 22 23 24 24 27 30 30 32 33 27 29 28 27 27 25 24 23 22 21 20 19 15 9 6 13 12 8 10 8 10 6 6 7
18 19 19 21 21 21 19 18 18 20 21 22 22 23 24 26 28 27 24 24 29 27 27 26 26 25 24 23 21 20 17 14 11 11 12 13 11 8 9 6 -1 1 10
19 19 17 18 18 17 18 17 18 17 15 17 21 23 24 25 27 28 26 24 28 29 28 28 27 26 25 24 23 21 20 20 18 17 16 15 10 7 9 6 1 7 10
15 16 14 13 14 13 13 15 14 15 14 14 14 16 18 26 27 28 27 26 29 28 28 29 28 27 26 26 25 24 23 22 20 20 18 16 15 13 10 3 1 1 5
12 11 8 9 9 8 9 9 11 9 10 11 12 13 14 15 15 17 18 19 20 19 20 21 23 27 27 27 27 26 25 23 23 23 21 19 16 14 8 5 4 -1 1
9 6 6 4 5 5 3 4 6 5 6 8 8 10 11 12 12 12 12 13 13 12 15 17 19 21 21 23 28 28 28 27 27 25 24 22 18 14 12 6 5 1 -1
2 -2 -2 1 0 -1 -1 1 0 0 2 3 5 6 8 9 10 9 10 10 8 8 8 10 13 16 18 17 19 21 24 27 28 25 24 23 20 16 14 12 5 6 0
2 1 0 -3 -3 -3 -4 -2 -4 -3 -2 -1 1 3 5 6 7 6 7 7 6 6 6 8 10 11 13 16 17 19 20 20 26 27 25 23 20 18 15 13 9 8 8

GFSGL_sfc_dewp_042.txt.gz
Dewpoint
52 50 49 48 48 48 46 46 42 39 36 37 39 36 36 35 34 34 34 34 34 34 34 33 33 33 33 34 33 32 30 29 25 20 21 20 19 19 20 21 23 22 23
48 46 48 48 47 46 45 41 37 37 37 36 36 36 35 34 34 33 33 34 33 32 32 33 33 33 32 32 30 26 23 21 19 17 18 19 19 19 20 20 19 20 22
47 45 46 45 44 43 41 40 38 38 38 39 37 37 37 37 33 32 34 33 33 32 31 31 31 30 28 27 24 23 21 19 19 18 18 19 20 19 18 20 20 21 21
45 45 44 42 41 41 40 38 39 38 37 37 38 37 36 33 34 33 32 32 32 32 32 32 31 29 27 26 23 22 20 18 18 18 19 18 18 18 19 19 18 17 17
45 44 41 41 40 41 39 38 38 37 36 35 37 39 40 37 33 34 33 32 31 31 31 30 28 27 28 26 21 20 18 18 19 19 17 16 14 15 14 18 17 18 19
42 41 41 41 39 38 37 35 36 37 39 40 40 39 39 38 36 35 34 32 31 30 29 27 25 28 30 31 30 26 21 20 20 17 16 15 13 15 19 17 17 18 15
42 41 41 39 36 36 35 35 36 37 40 40 39 39 37 33 33 34 35 32 30 28 27 25 23 22 27 23 28 29 27 25 22 20 17 15 16 17 17 18 19 20 20
40 39 38 36 34 35 36 37 39 40 39 38 36 33 31 30 33 34 34 31 28 27 25 24 23 23 24 24 24 24 21 19 20 19 17 16 18 19 19 19 21 21 20
34 34 34 35 36 37 38 39 40 39 37 34 32 30 29 29 32 32 32 29 26 25 24 24 24 24 27 28 23 21 19 18 21 23 21 22 22 22 22 21 18 18 17
35 36 38 39 40 40 39 38 36 34 32 32 29 29 30 30 31 32 33 28 26 26 25 25 28 26 27 28 26 22 20 19 19 15 16 18 21 20 22 20 19 18 17
39 40 40 40 39 39 37 33 31 30 29 29 29 29 28 28 28 32 33 29 27 27 26 26 26 29 30 29 28 23 21 20 20 17 17 19 20 19 19 19 19 20 18
37 37 36 34 32 31 31 30 30 29 27 27 25 27 28 28 29 30 33 33 31 27 27 27 27 29 29 29 28 27 25 24 22 20 20 20 20 19 18 18 19 21 21
32 31 31 30 30 30 29 29 28 27 25 27 27 27 27 28 27 30 32 32 32 30 29 29 29 28 29 30 30 28 26 25 22 20 19 19 19 19 18 19 20 20 20
29 29 29 29 29 28 28 28 27 26 26 27 27 27 27 27 26 27 27 26 29 30 28 30 28 27 27 29 28 29 28 25 23 21 19 19 18 17 18 19 18 18 18
28 28 28 28 27 28 28 27 27 27 28 27 28 27 27 28 29 29 28 27 26 27 25 28 28 27 26 25 25 25 25 23 21 19 17 17 16 16 17 18 18 18 16
28 28 27 27 26 27 27 26 28 29 30 30 30 29 30 31 32 32 31 32 33 32 28 28 26 24 24 24 24 24 24 22 22 20 18 17 17 16 16 16 18 16 15
26 25 23 22 21 21 21 21 20 21 23 23 24 25 26 27 28 29 31 32 33 32 29 28 27 26 26 24 24 24 22 21 21 20 19 17 16 16 14 15 16 15 14
21 22 20 20 20 20 18 20 20 19 17 17 20 21 23 25 26 27 28 29 30 31 30 29 28 27 26 25 24 23 23 21 18 18 16 15 14 14 14 14 15 12 12
18 19 20 19 19 18 18 17 18 17 17 15 15 16 17 19 21 25 26 28 28 29 29 28 28 28 27 26 25 24 23 21 18 15 16 13 12 14 12 13 13 9 9
17 18 16 17 17 15 15 14 14 15 15 14 13 13 15 14 13 15 23 24 27 27 29 28 28 27 27 25 25 24 22 20 18 14 14 14 12 13 14 13 10 11 13
15 15 12 12 12 12 11 12 11 12 9 10 11 11 12 13 13 14 14 14 20 26 28 28 28 28 28 26 25 23 21 20 19 18 17 15 13 14 15 15 12 11 12
12 9 9 9 9 8 8 8 7 7 6 7 7 9 8 10 11 11 12 12 13 14 16 19 21 25 27 26 25 24 23 22 21 20 18 17 16 15 16 14 11 10 12
10 5 5 5 4 2 1 2 4 1 2 3 3 5 6 6 8 8 9 10 10 10 12 12 15 18 18 21 24 27 25 24 24 24 22 19 18 16 16 14 11 9 9
6 -0 3 -0 -3 -1 -9 -9 -6 -4 -1 -1 -2 0 2 3 4 6 6 8 8 8 9 10 10 11 12 14 18 21 22 27 27 26 25 23 20 18 16 15 13 10 10
-5 -9 -9 -7 -9 -13 -14 -10 -11 -12 -7 -6 -5 -3 -0 -1 2 1 2 5 5 6 7 8 9 7 8 9 12 17 19 21 22 26 26 25 21 19 17 16 15 12 9
-1 -5 -6 -9 -12 -15 -16 -15 -13 -15 -11 -8 -7 -6 -4 -4 -1 -2 -1 1 1 2 5 6 6 5 5 8 12 14 14 17 19 21 25 25 21 19 18 17 15 14 11

GFSGL_sfc_dewp_045.txt.gz
Dewpoint
58 58 58 57 56 56 54 53 49 46 42 39 40 43 43 39 38 37 38 38 37 37 37 37 36 36 35 35 35 34 32 31 29 25 23 23 23 22 21 21 18 18 19
57 56 56 56 54 54 52 51 49 45 42 41 42 41 39 38 36 39 38 35 35 36 36 36 35 33 36 35 34 33 31 30 27 23 21 20 21 22 22 20 14 14 19
54 53 53 53 51 51 50 48 45 43 41 40 39 38 38 38 39 38 39 36 35 35 36 35 35 35 34 33 33 31 29 25 25 22 20 20 20 20 18 16 14 19 14
50 49 49 49 49 48 45 44 43 41 39 39 40 40 39 37 39 38 35 34 34 34 35 35 34 34 33 33 31 29 27 24 22 20 19 18 19 18 17 12 13 14 14
48 48 47 45 44 43 41 40 40 39 38 38 39 40 41 41 39 38 38 37 37 35 35 34 35 35 35 33 27 27 25 23 21 20 18 18 17 16 12 12 14 14 16
46 44 42 41 40 39 38 38 39 39 39 40 40 40 41 40 39 38 38 37 33 32 33 34 34 33 33 32 32 30 25 24 24 21 20 18 17 17 14 14 15 15 13
43 41 40 38 37 37 38 38 39 40 41 41 41 41 40 40 37 36 35 32 33 33 33 32 31 27 29 27 29 31 30 27 25 24 23 20 21 16 13 15 16 16 16
40 39 37 36 36 37 39 40 40 41 40 40 40 40 39 36 34 34 34 33 32 32 32 32 32 30 27 26 25 30 26 25 25 22 21 21 20 15 17 18 20 19 16
36 35 35 37 37 39 39 40 41 40 40 39 38 36 34 33 33 32 32 32 31 31 30 30 29 28 28 29 32 29 24 23 24 25 24 24 23 22 23 21 21 18 19
37 37 37 39 39 40 40 39 38 36 34 33 32 33 33 32 33 33 32 33 33 32 31 29 29 28 29 30 32 30 27 23 21 20 20 21 21 21 23 21 19 20 18
38 39 40 40 39 38 36 34 33 32 32 33 32 32 32 32 31 32 32 32 33 32 31 30 30 29 30 30 30 33 30 26 24 22 20 17 15 17 19 19 19 20 19
36 34 32 32 31 31 32 32 31 31 31 31 34 32 32 32 31 31 32 32 32 34 32 32 32 31 31 30 31 32 30 28 27 26 25 21 21 21 20 19 20 20 19
30 30 30 30 29 29 29 29 29 29 30 30 30 31 30 31 32 31 31 31 32 33 34 33 32 31 31 30 30 31 31 29 29 27 25 23 23 21 21 22 21 21 20
30 30 30 30 29 29 28 28 28 29 28 27 27 27 28 28 30 30 32 33 32 32 32 34 33 31 31 31 30 32 32 32 29 28 26 24 24 24 24 23 22 21 20
28 27 26 25 23 21 19 21 21 22 26 24 24 23 27 27 26 27 27 28 30 30 32 33 33 31 30 30 29 30 30 30 29 29 27 25 24 23 23 23 22 21 19
21 19 20 20 20 18 17 16 21 22 22 21 21 23 24 23 21 22 22 24 27 28 29 29 30 32 30 29 28 27 27 28 28 28 28 26 24 23 23 23 22 21 19
17 17 18 19 18 18 18 17 17 18 18 19 18 19 19 20 20 20 21 23 26 27 28 27 30 32 30 29 27 25 26 28 29 27 27 26 26 24 24 23 23 21 19
18 20 17 18 19 18 17 17 17 17 17 17 16 16 16 17 18 19 20 20 24 25 25 29 30 32 31 29 28 27 27 27 27 27 27 27 27 25 24 23 21 21 20
15 15 17 18 18 16 16 15 15 14 14 13 13 13 13 14 16 16 17 17 17 16 19 26 30 31 31 30 30 30 28 28 28 27 27 26 25 23 24 23 22 19 18
14 15 13 14 14 13 12 12 11 12 11 11 11 11 11 11 13 14 15 16 15 14 17 16 17 30 32 31 31 30 29 29 27 26 27 27 25 25 24 23 23 23 19
12 11 11 11 11 10 10 10 9 10 9 9 9 10 7 9 10 11 11 12 12 12 14 14 17 18 22 31 30 30 28 28 27 26 26 25 25 23 24 24 24 22 20
10 8 9 9 9 8 6 7 8 6 5 5 6 6 5 9 8 8 10 9 11 11 12 12 13 15 16 17 22 28 27 27 27 27 26 25 23 23 23 23 23 23 20
8 7 6 5 6 4 5 3 4 4 3 4 4 4 5 6 6 5 8 7 8 9 10 10 11 11 13 14 16 21 23 26 28 29 26 25 24 24 23 23 22 21 21
5 6 4 5 4 2 2 2 2 -0 -0 1 3 3 2 3 4 4 5 5 5 6 7 9 9 10 10 11 13 17 21 20 23 27 28 27 25 24 24 23 23 21 21
6 5 4 4 2 1 0 -0 -0 -0 -0 -0 0 1 0 1 1 2 3 3 2 3 3 5 7 8 8 8 10 12 13 12 18 22 26 28 27 25 24 23 23 22 20
5 3 3 3 2 0 -1 -2 -2 -3 -3 -2 -2 -1 -1 -1 -1 0 0 0 0 -1 1 3 4 4 6 8 10 11 8 9 14 17 22 25 27 25 24 23 22 22 19

GFSGL_sfc_dewp_048.txt.gz
Dewpoint
58 59 60 59 59 59 58 57 56 55 52 48 47 45 43 43 42 40 42 41 39 41 41 39 37 36 33 33 34 33 31 29 26 25 24 25 27 26 25 24 24 22 18
58 59 59 59 58 58 57 57 56 52 49 47 44 42 44 41 41 41 41 40 40 39 39 37 35 30 34 35 33 33 32 31 28 26 25 23 24 25 25 24 19 13 16
57 57 57 56 56 55 53 52 51 49 46 43 43 44 41 41 40 41 41 42 41 40 38 36 34 34 34 34 34 34 32 28 27 25 23 23 23 22 22 22 20 18 13
55 54 53 53 52 51 50 48 47 45 43 43 42 41 41 41 41 41 42 41 41 39 37 36 35 35 34 34 32 34 32 29 27 25 23 22 21 22 20 18 16 13 14
54 52 51 49 48 48 48 47 45 42 41 41 41 41 42 41 41 42 40 40 40 40 39 37 36 36 37 35 31 32 31 29 27 24 22 21 20 19 17 17 14 13 16
50 48 46 45 45 44 42 42 41 40 40 40 40 41 41 41 39 39 39 40 40 38 34 33 33 35 36 36 35 34 32 31 29 26 25 23 22 20 18 18 13 13 14
46 44 43 41 40 40 39 38 39 41 43 42 42 42 42 42 39 39 38 37 34 33 33 32 29 26 33 34 34 33 32 30 27 28 28 26 24 21 20 18 15 16 16
42 41 39 39 39 39 39 40 42 43 42 41 41 41 41 39 37 35 34 33 33 32 32 31 30 30 31 32 32 30 29 29 30 28 27 25 23 22 22 18 19 20 19
39 38 38 39 39 39 40 41 42 41 40 40 38 37 36 35 34 34 33 33 32 32 30 30 30 30 31 33 31 30 28 29 31 29 30 29 25 23 22 21 21 20 22
38 38 38 39 40 40 41 40 39 37 35 33 32 33 33 33 33 34 33 33 32 32 32 30 31 30 31 31 30 30 30 28 28 28 25 25 26 25 26 23 20 21 20
38 39 39 40 38 36 35 34 34 32 32 34 33 33 32 32 32 33 33 33 33 34 32 31 31 32 31 31 30 31 32 30 30 32 29 23 22 21 19 21 21 20 21
37 34 33 32 29 29 30 30 29 29 30 31 37 33 33 33 32 32 33 32 32 34 32 34 34 33 33 32 31 30 30 31 34 34 31 27 24 22 19 19 20 20 20
32 30 29 28 28 28 28 30 28 29 30 30 28 29 26 27 26 28 28 27 26 29 30 32 31 32 34 33 32 31 31 33 33 32 31 28 27 25 23 23 23 22 22
28 29 29 28 27 26 25 22 20 23 23 21 21 22 23 23 24 24 23 24 24 26 27 30 29 30 31 32 34 33 34 34 33 32 31 29 29 29 25 24 23 23 23
27 25 25 23 17 14 13 16 19 21 22 21 21 21 25 24 22 22 23 23 25 24 26 29 29 28 29 29 32 34 34 33 32 33 32 31 31 27 27 25 25 23 22
20 17 20 20 19 15 13 14 22 21 19 19 19 21 22 20 19 20 21 21 21 21 26 26 29 31 29 26 29 32 33 31 30 31 32 31 30 29 27 25 24 24 22
15 16 17 19 17 16 16 17 17 20 18 17 16 16 16 17 17 18 19 19 20 20 22 23 28 31 31 26 28 30 31 31 30 29 30 31 31 29 28 26 26 23 22
17 18 17 18 17 18 17 18 18 18 19 19 15 14 14 15 16 16 17 17 18 18 18 18 21 24 23 25 31 31 32 32 30 30 30 31 31 29 29 25 23 25 22
14 14 19 21 19 17 18 18 17 16 16 15 15 13 14 12 14 15 15 17 16 16 15 16 17 19 21 21 30 34 32 32 32 31 30 30 31 30 28 26 24 23 22
13 14 14 16 17 16 15 15 14 14 14 14 14 14 13 11 16 17 17 17 16 14 15 14 15 16 19 21 22 28 33 32 32 31 31 31 31 30 28 25 26 25 21
12 12 12 14 14 13 14 14 13 14 13 13 14 14 7 9 14 14 13 15 14 13 14 14 14 16 17 17 18 21 24 32 31 30 30 30 31 29 27 26 26 23 23
12 11 12 13 12 14 11 11 12 12 10 10 12 10 7 12 12 11 11 13 14 12 12 13 13 14 15 15 15 17 19 25 30 30 30 29 30 29 27 26 26 26 23
12 13 11 10 11 8 12 10 11 11 10 10 10 10 10 11 11 10 11 12 12 11 11 11 11 11 13 15 14 15 16 19 20 23 28 29 29 29 28 26 25 25 24
10 12 8 11 12 10 11 11 11 7 7 9 10 10 10 9 10 9 9 10 9 10 10 9 8 8 9 11 12 13 15 18 16 18 23 26 29 29 29 27 26 24 24
13 13 12 11 11 10 10 9 8 8 8 8 8 8 8 8 7 8 8 8 6 7 6 6 7 7 7 8 9 12 14 13 13 14 19 22 29 30 28 28 28 27 26
11 10 10 10 10 9 8 7 7 6 6 6 6 7 7 6 6 7 6 5 4 3 4 6 6 6 6 7 8 12 11 10 12 13 15 19 25 29 29 28 28 27 25

GFSGL_sfc_dewp_051.txt.gz
Dewpoint
57 59 60 60 60 60 60 60 58 57 55 53 53 51 47 47 45 43 43 43 42 43 43 42 41 42 38 38 37 35 34 33 29 29 28 30 30 30 27 28 28 27 26
57 58 60 60 60 60 60 58 58 57 54 51 49 48 46 44 44 42 42 42 41 42 42 41 42 40 40 39 37 37 35 34 31 31 30 29 29 29 30 29 23 19 22
56 57 59 58 57 57 55 53 53 51 50 49 46 46 45 44 42 42 42 42 42 42 41 41 42 40 40 39 37 36 35 31 34 33 31 29 28 27 26 28 26 26 18
56 56 56 56 55 54 53 51 49 47 45 44 45 43 42 41 41 41 42 42 42 42 42 42 41 40 39 38 37 37 35 35 34 32 30 29 28 27 26 23 23 24 19
54 53 52 53 52 51 50 49 47 45 44 42 42 42 42 42 42 42 42 42 41 41 42 41 41 40 38 37 33 37 36 34 34 33 29 28 26 24 24 23 23 20 21
53 51 50 49 49 47 47 46 45 44 43 42 42 42 42 40 39 39 40 41 40 40 40 40 39 35 35 35 35 36 35 36 35 33 30 30 28 26 28 26 22 20 17
48 47 45 44 43 43 41 41 41 42 43 43 42 42 42 42 39 39 38 40 38 36 34 33 31 27 31 29 33 35 35 34 31 32 31 31 30 29 30 27 22 22 19
44 42 42 42 41 41 41 41 42 43 42 43 42 41 41 39 39 39 36 34 32 32 32 31 32 32 33 32 32 33 33 34 33 29 29 29 30 31 31 24 24 21 20
41 40 40 41 41 41 41 41 42 42 41 41 40 38 37 35 37 34 32 33 31 31 30 30 30 31 32 33 32 33 32 32 30 33 33 33 28 24 23 25 24 22 25
39 39 40 40 40 41 42 41 40 40 36 34 32 32 32 31 34 34 32 33 33 33 32 31 31 31 31 31 33 33 31 30 30 29 31 31 29 28 27 24 24 24 23
40 40 40 40 40 40 38 37 34 33 32 34 32 33 31 32 33 34 33 31 32 30 30 31 33 32 33 33 33 34 33 32 31 31 30 30 33 29 27 27 25 23 24
39 38 37 36 33 33 33 30 28 29 31 32 34 32 33 33 30 30 28 25 24 25 24 28 29 29 29 28 30 32 34 33 35 34 32 32 33 33 30 27 26 25 24
36 34 32 29 26 26 27 28 27 28 29 28 25 26 25 26 24 28 24 24 24 24 25 26 26 26 27 29 30 31 32 33 33 32 32 32 31 30 30 31 29 26 25
30 29 28 27 26 25 22 17 18 23 23 21 21 22 23 23 23 23 21 22 22 23 23 25 24 26 26 26 27 29 31 31 32 32 33 33 32 32 33 31 29 27 26
27 25 25 22 19 15 15 16 20 23 22 21 22 21 25 24 22 20 20 20 23 22 24 25 27 28 28 28 28 27 28 30 31 33 33 34 31 32 33 31 29 27 26
22 20 24 23 20 14 12 19 22 21 21 20 18 20 21 19 18 18 19 19 19 21 21 23 24 26 25 24 26 26 29 29 31 33 33 32 31 31 31 31 29 28 24
20 19 19 20 18 17 17 18 18 22 20 20 18 15 14 15 16 17 17 17 19 18 19 18 22 23 22 21 22 24 23 26 33 33 33 32 32 30 31 30 29 28 25
17 22 18 19 18 19 18 19 19 19 20 21 19 14 13 14 15 16 16 17 17 16 15 15 17 19 19 19 20 21 23 21 33 32 33 32 33 31 31 30 29 29 25
15 17 21 22 21 19 19 19 18 17 18 17 16 17 15 14 14 16 16 18 16 15 13 13 15 16 18 19 20 21 20 20 31 32 32 31 32 30 30 30 30 28 27
12 16 17 17 17 17 16 16 15 16 15 16 16 16 16 13 15 18 18 18 16 14 14 12 13 15 17 18 19 20 18 20 22 32 32 32 32 32 30 30 29 28 25
13 13 15 14 15 14 15 15 14 15 15 15 16 17 9 10 14 15 14 15 14 13 14 13 14 16 16 17 16 17 16 17 21 22 29 32 32 30 31 31 29 28 28
13 12 13 15 14 16 14 13 14 14 13 13 14 13 10 14 14 13 13 14 15 14 14 13 13 13 13 14 15 16 15 15 17 19 19 21 29 30 30 30 29 28 26
14 15 12 11 13 11 15 13 14 14 13 13 13 13 13 14 13 12 12 13 12 13 13 13 13 12 11 14 14 14 14 13 15 16 16 18 21 30 30 29 28 28 26
14 16 11 13 15 12 15 14 14 11 11 12 13 13 12 12 12 11 11 12 11 11 12 12 10 8 10 12 12 13 12 15 15 14 15 16 19 22 30 29 28 28 26
16 15 14 14 13 13 13 13 12 12 12 12 12 11 10 11 9 10 10 10 9 10 9 8 9 9 9 8 10 9 11 14 12 12 14 16 17 20 25 29 28 28 27
13 11 11 13 13 12 12 11 11 11 10 10 9 9 9 8 7 8 7 7 7 6 5 8 8 7 7 8 9 10 11 9 9 10 13 14 17 22 26 29 29 28 27

GFSGL_sfc_dewp_054.txt.gz
Dewpoint
59 59 59 59 59 60 61 60 60 58 57 55 54 53 51 47 48 45 44 43 43 43 43 42 42 43 42 42 41 38 36 35 33 33 31 30 31 32 28 32 32 29 30
60 60 60 60 61 60 60 59 58 57 56 55 52 49 47 46 44 43 43 43 43 42 42 42 42 42 41 41 40 38 36 35 34 32 32 31 31 31 30 29 29 23 25
58 60 60 60 58 56 55 54 53 52 50 49 47 46 45 45 43 43 42 41 41 41 42 42 41 41 41 41 40 39 37 35 35 33 32 33 33 31 28 29 28 28 26
58 58 57 56 54 53 52 50 49 47 46 46 46 45 44 43 42 42 41 41 41 42 42 42 41 41 40 40 39 39 37 36 36 34 33 32 31 30 29 26 25 27 25
56 55 54 53 52 51 49 48 46 45 45 43 43 43 42 42 42 41 41 42 42 42 42 42 42 41 40 39 39 37 35 33 33 33 32 32 31 29 26 27 26 25 25
53 53 52 51 51 50 48 46 45 44 43 43 43 42 42 41 40 39 41 41 41 40 40 40 40 40 40 39 38 37 33 31 32 32 32 31 30 31 29 28 28 24 24
51 51 50 48 47 46 45 43 43 43 43 43 42 42 42 42 39 39 39 40 40 40 39 38 34 30 33 33 33 34 34 34 32 33 31 31 31 31 31 29 28 27 25
47 45 45 44 42 42 42 43 43 43 43 43 43 42 42 41 39 39 38 38 33 33 33 33 33 33 33 33 32 31 31 31 33 33 32 32 31 31 29 29 29 26 23
43 43 42 42 42 42 41 42 43 42 42 42 41 40 39 39 39 36 33 33 33 32 32 32 33 31 33 34 32 31 31 30 31 34 35 35 34 33 31 28 26 25 21
41 41 42 42 42 42 42 42 41 41 40 37 34 35 31 34 34 33 32 32 31 29 29 28 30 31 31 30 29 29 29 31 33 33 32 32 34 29 29 27 26 25 27
41 41 42 42 42 41 40 39 39 36 36 34 33 34 33 31 30 28 27 25 25 24 24 24 24 27 27 27 27 24 23 25 29 31 32 33 33 31 29 27 26 26 25
41 40 40 39 38 37 36 33 31 33 33 33 32 32 33 30 28 26 25 24 24 23 22 23 24 25 26 27 26 27 27 28 30 28 28 29 32 33 34 32 28 26 25
38 37 36 34 32 30 31 31 31 31 30 29 27 29 28 28 28 25 23 22 22 23 23 23 23 23 25 26 27 28 26 25 24 25 26 26 28 31 33 33 33 31 27
35 32 30 29 28 27 23 22 27 27 27 27 27 26 26 25 24 22 21 21 21 21 21 20 21 23 24 23 24 24 25 27 28 29 28 29 30 32 33 33 31 29 29
30 29 28 28 24 20 19 22 25 22 24 26 24 24 22 22 20 19 19 19 19 20 19 20 21 21 20 19 19 20 21 22 23 24 26 29 30 32 32 32 31 30 27
27 26 29 27 25 20 18 18 25 22 21 20 20 22 22 19 17 17 18 18 18 20 19 18 17 17 17 17 17 17 18 19 19 21 21 27 31 31 31 31 31 29 26
23 24 25 26 25 23 24 25 22 21 21 21 20 17 16 15 15 17 17 17 18 20 16 17 15 16 16 16 15 16 16 18 17 18 19 25 30 31 30 30 29 28 27
21 26 24 24 24 25 24 24 24 24 24 23 20 18 17 15 15 16 17 17 17 17 16 15 14 14 14 14 14 15 15 16 16 16 18 27 31 29 29 29 29 26 27
22 24 26 25 24 23 24 24 23 22 22 22 21 20 18 15 15 16 17 16 14 14 15 13 13 13 13 14 13 14 15 14 15 16 19 24 30 29 27 25 28 27 27
22 23 25 23 21 21 21 21 20 20 20 21 20 20 18 14 10 11 14 12 11 13 13 13 13 12 12 12 12 13 12 12 13 14 16 17 18 28 25 22 25 28 27
21 19 19 18 18 18 19 19 18 19 19 19 18 15 9 12 11 14 14 11 13 12 11 13 12 11 11 11 10 9 11 9 11 13 14 14 15 18 27 25 28 28 27
17 17 17 18 17 19 16 16 18 17 17 16 17 16 11 13 15 13 12 12 8 10 12 11 10 10 10 10 7 8 9 8 10 11 11 11 12 14 18 25 29 28 27
18 18 15 14 15 14 17 17 17 17 16 15 14 15 15 13 13 12 11 8 9 8 8 9 8 9 8 6 7 10 8 9 8 10 11 9 9 11 15 18 27 27 27
17 17 13 15 18 14 16 17 15 14 14 14 14 14 13 12 10 8 8 8 6 5 5 7 8 4 4 7 9 8 8 7 8 12 11 8 7 11 13 16 20 27 27
18 17 16 16 16 16 16 15 15 14 14 13 12 12 11 10 10 8 6 6 5 4 6 2 4 6 6 4 5 5 7 11 7 6 7 8 8 10 12 16 21 27 27
15 14 14 15 15 15 14 13 12 12 11 11 11 7 8 8 7 4 5 3 6 3 0 3 2 2 2 5 8 9 8 7 6 5 7 9 8 10 13 15 18 25 26

GFSGL_sfc_dewp_057.txt.gz
Dewpoint
55 55 56 59 60 59 57 56 58 56 56 56 55 53 52 50 48 47 45 45 44 44 44 43 43 43 43 43 43 42 40 37 35 33 34 32 29 30 31 35 33 34 33
56 59 59 59 59 59 59 58 58 57 56 55 54 52 49 47 46 45 44 43 43 42 42 42 42 43 43 42 42 41 39 38 35 33 33 33 32 32 31 30 30 28 29
60 59 59 59 59 58 56 55 54 53 51 50 49 48 46 45 44 44 43 43 43 42 42 41 42 42 41 41 41 40 40 39 37 35 35 33 34 32 32 30 29 29 27
60 59 57 56 55 53 52 51 50 49 48 47 47 45 45 44 43 43 42 42 41 41 42 43 42 41 41 41 40 40 39 39 38 37 36 36 33 34 34 32 30 30 29
56 55 53 52 52 50 48 48 47 47 46 45 44 44 43 43 42 42 41 41 41 41 42 42 42 42 41 40 40 38 37 36 34 33 32 30 30 30 30 31 30 28 26
53 53 52 51 50 48 47 46 45 44 43 43 43 42 41 41 39 39 40 41 41 41 40 40 39 40 40 39 39 38 39 37 34 32 31 30 30 29 30 29 28 29 27
52 52 51 50 48 47 45 44 43 42 42 41 40 40 40 39 39 39 39 41 40 38 37 37 38 35 34 33 33 33 33 34 33 33 31 30 31 31 30 29 29 29 28
49 48 48 46 45 44 42 43 42 41 41 41 42 42 42 41 38 39 37 36 35 33 32 32 31 30 32 30 28 28 28 30 31 32 32 32 32 33 32 32 32 31 28
45 44 44 43 42 42 42 42 42 42 41 41 41 40 39 40 38 37 34 32 31 29 28 28 28 28 30 28 24 22 20 19 21 26 30 32 33 34 34 33 30 27 25
43 43 42 42 42 42 42 41 41 40 41 40 37 35 34 31 32 33 30 27 23 23 24 25 26 26 28 26 24 23 23 23 23 23 25 27 29 29 32 32 31 28 27
42 42 42 42 41 41 40 39 40 37 33 32 32 32 30 28 28 27 26 23 24 25 23 23 23 25 23 24 26 26 25 26 27 26 26 26 26 28 29 32 32 32 30
41 41 41 40 40 39 38 37 34 33 31 30 30 29 27 26 26 25 24 23 23 23 22 23 23 22 24 26 26 27 26 26 27 26 26 25 25 26 28 31 30 31 32
40 39 39 38 37 37 30 31 32 31 28 27 27 26 26 25 23 22 21 21 21 22 23 21 21 23 24 25 22 21 22 21 21 22 23 23 24 28 28 30 33 32 29
37 37 35 31 29 25 27 26 25 24 25 26 25 25 25 22 21 20 20 21 20 20 21 20 21 23 22 21 20 19 19 18 19 19 19 20 21 22 28 30 31 31 29
32 29 28 25 21 23 25 22 20 23 26 23 24 24 22 21 20 19 19 20 19 21 19 18 20 20 17 17 17 17 17 16 16 17 17 17 19 19 21 30 32 31 28
26 25 25 25 22 19 21 20 23 22 22 22 23 23 23 20 17 17 17 18 18 20 19 15 8 6 13 15 15 14 14 14 14 16 15 15 16 18 19 30 31 29 28
25 25 25 24 23 23 22 21 21 23 23 22 20 19 20 17 16 17 16 18 18 18 15 15 7 6 10 14 13 13 12 13 14 13 13 14 17 16 22 29 29 28 27
25 26 25 25 25 24 24 25 24 23 22 22 21 19 19 17 16 16 17 17 17 16 16 15 10 11 12 12 12 11 11 12 11 11 12 13 15 15 17 29 28 27 26
25 25 24 24 25 25 25 24 23 23 22 22 23 21 18 15 14 13 17 14 12 13 15 14 11 12 11 11 6 5 7 8 10 8 10 11 13 12 13 24 27 25 22
25 26 25 25 25 24 23 22 21 21 21 21 20 19 17 13 7 5 8 5 5 10 9 12 13 12 6 7 1 2 5 6 7 7 9 9 11 11 11 14 21 25 26
23 23 24 24 22 21 21 20 19 19 19 19 17 14 12 12 10 10 14 8 8 9 4 8 6 -1 1 3 9 5 4 5 5 7 6 7 10 9 10 12 16 21 25
23 23 22 20 20 19 17 17 18 17 17 16 16 15 12 9 12 13 10 5 1 4 5 3 0 2 3 7 4 2 4 5 5 5 4 6 8 8 9 10 13 14 25
21 20 19 18 17 16 17 18 17 16 14 14 14 14 12 10 10 9 5 -0 1 1 -2 -2 -8 2 1 -2 -2 6 6 4 5 5 5 6 5 6 7 8 10 13 17
19 18 16 17 17 14 14 13 13 14 14 12 10 9 10 8 3 1 0 -2 -5 -8 -11 -8 -4 -1 2 4 3 3 5 6 7 8 3 3 3 5 6 7 9 11 16
17 16 15 15 13 12 11 11 10 9 8 7 5 7 6 1 3 -3 -8 -8 -7 -11 -5 -7 -7 -2 -2 -2 -1 1 5 8 8 8 8 5 4 5 7 8 8 12 14
16 14 13 13 12 10 7 4 3 2 2 3 2 -3 -5 -2 -4 -11 -9 -8 -4 -6 -8 -7 -4 -4 -2 1 3 6 7 8 8 8 9 8 5 6 8 8 8 10 15

GFSGL_sfc_dewp_060.txt.gz
Dewpoint
55 55 55 56 57 59 59 58 58 57 56 54 56 56 55 54 51 49 47 47 46 45 44 44 44 44 44 44 44 44 43 41 39 38 35 34 31 31 30 35 37 36 36
56 57 58 59 59 59 59 58 58 56 55 54 55 53 51 49 48 46 46 45 44 43 44 44 43 43 43 43 43 42 41 41 39 37 36 34 33 34 34 34 32 31 33
58 58 59 59 59 59 59 59 59 56 54 54 53 52 49 47 45 45 44 44 44 43 43 42 42 43 42 41 41 41 41 40 40 38 38 38 37 35 34 33 33 33 32
58 58 58 58 58 58 56 55 54 53 51 50 49 48 46 45 44 44 44 43 43 42 42 42 42 42 41 41 41 40 40 38 37 37 36 36 34 35 34 34 33 32 31
58 58 57 58 55 53 52 51 49 48 48 47 46 46 44 44 43 43 43 42 41 41 41 42 42 42 41 40 40 40 35 35 35 34 34 33 31 29 30 31 31 31 30
57 56 54 53 51 50 49 49 47 46 46 45 44 44 44 43 39 40 41 41 40 41 41 41 39 39 37 34 34 33 33 32 32 34 33 31 31 30 30 31 31 28 28
54 53 52 50 49 48 47 46 45 44 44 44 43 42 42 41 38 39 39 41 41 39 37 34 32 30 32 30 29 29 29 30 30 29 29 29 30 31 33 33 32 30 30
52 51 50 48 46 45 45 44 45 44 42 41 41 40 39 39 38 38 37 36 33 32 31 29 28 28 28 25 23 21 21 21 21 20 22 23 25 26 28 29 29 31 34
49 49 48 46 45 45 43 42 41 40 40 40 41 40 39 38 37 35 34 31 28 26 26 26 25 24 26 25 24 23 23 24 25 27 28 29 29 30 30 29 25 26 26
47 46 46 46 44 43 41 40 40 41 41 41 39 37 37 35 34 33 30 26 23 22 23 22 24 24 23 24 25 25 24 24 25 26 27 27 28 27 29 28 27 26 26
44 44 42 42 42 41 41 41 40 38 35 34 31 29 29 29 28 28 26 23 24 23 22 22 23 22 22 25 26 25 23 21 22 22 23 24 24 25 25 26 28 30 28
44 42 41 41 41 40 40 39 34 32 31 30 27 26 26 26 27 25 24 24 22 23 21 23 22 22 24 25 24 21 20 21 20 19 19 19 19 19 21 22 23 27 32
41 40 40 40 39 38 37 34 32 31 30 28 26 24 24 23 22 22 21 21 21 21 21 20 21 22 23 23 19 18 21 19 17 16 16 17 17 17 19 21 22 26 32
39 39 38 34 29 29 28 29 29 27 28 27 26 24 23 21 21 20 20 21 19 20 21 21 21 23 22 21 19 18 19 17 16 16 15 16 16 16 16 18 18 21 29
35 29 26 27 25 22 20 22 24 25 26 26 25 25 22 20 20 20 19 21 21 22 20 19 20 17 15 15 17 16 16 14 14 14 14 13 13 14 14 17 17 19 24
27 24 25 24 23 17 17 21 25 25 26 25 25 24 23 21 19 18 17 18 18 20 20 17 13 11 13 14 14 13 13 12 12 12 12 11 12 12 13 14 15 21 28
24 24 24 24 23 22 22 22 22 24 24 23 23 24 23 20 18 17 17 17 17 17 17 14 8 9 11 12 12 12 11 11 11 10 10 8 10 11 11 11 14 16 27
25 26 25 25 25 26 25 24 24 23 23 23 24 21 20 21 18 15 18 18 17 16 16 15 13 13 12 11 11 10 10 8 6 8 6 7 8 9 9 9 11 11 26
25 25 26 26 26 26 25 25 25 25 25 24 24 22 20 18 15 15 17 16 15 14 12 11 13 12 11 10 5 2 -5 -4 1 -0 2 6 4 6 8 9 10 12 17
26 26 25 25 24 24 24 24 24 23 22 21 21 18 16 14 12 12 13 10 12 12 11 12 12 10 6 5 -0 -3 -6 -5 0 2 3 1 2 5 7 8 9 9 13
24 24 24 23 23 22 22 21 21 20 20 19 17 16 15 14 13 13 15 12 12 11 9 10 7 2 2 2 6 -4 -3 -6 3 5 4 2 2 3 6 7 8 10 12
23 22 22 21 21 19 19 20 19 18 18 16 16 15 14 13 14 14 13 10 7 9 9 6 2 2 3 3 -0 -9 -3 1 -4 1 3 2 3 4 3 5 7 8 9
20 20 20 19 18 17 17 18 16 16 15 15 15 14 14 12 11 10 9 5 7 4 1 -1 -8 -4 -3 -9 -7 -2 2 1 3 4 3 2 4 3 2 3 6 7 8
18 18 18 17 16 15 15 14 14 14 14 12 11 10 9 7 5 4 2 -1 -2 -11 -14 -14 -10 -5 -3 -7 -8 -4 2 3 5 6 6 5 4 3 3 3 5 7 7
16 15 14 14 12 12 12 11 10 9 8 7 5 4 5 1 1 -7 -10 -12 -13 -15 -12 -11 -10 -7 -6 -6 -5 -4 -2 3 5 6 6 6 5 4 3 3 5 7 8
13 12 12 12 10 9 7 6 4 1 -0 -0 -3 -8 -8 -7 -8 -16 -16 -12 -12 -12 -11 -10 -9 -7 -6 -3 -1 3 2 1 2 3 5 5 4 4 5 4 6 8 8

GFSGL_sfc_dewp_063.txt.gz
Dewpoint
50 50 48 49 51 53 55 56 57 57 57 57 57 57 57 57 55 54 52 49 48 46 46 46 44 45 45 45 44 44 43 43 40 41 39 36 34 34 33 33 37 37 38
53 53 54 54 56 56 57 57 58 58 57 57 55 55 55 54 53 51 49 48 46 45 45 45 44 44 44 43 43 42 42 42 41 39 38 36 34 34 34 35 35 35 34
55 56 56 57 58 58 58 58 58 58 57 55 55 53 53 50 50 48 47 46 45 45 44 44 44 43 42 42 41 41 41 41 40 38 38 38 36 36 35 35 34 35 34
56 56 56 57 58 57 58 58 58 57 55 55 54 52 50 48 47 45 45 44 44 43 43 43 43 42 42 41 41 40 40 38 35 35 36 35 34 34 33 32 34 34 33
55 56 56 57 57 57 57 57 54 55 54 53 49 47 46 46 46 44 44 43 43 42 42 42 42 42 41 40 40 39 37 36 36 35 34 33 32 32 29 30 30 31 31
56 56 56 56 57 57 55 52 50 49 49 47 46 45 45 46 40 41 42 42 41 41 41 41 38 35 34 33 32 32 31 27 25 26 26 25 26 27 28 28 28 27 25
55 55 56 56 53 52 50 50 48 47 48 46 44 44 45 43 39 39 39 41 40 40 38 35 30 29 29 26 24 22 22 23 26 25 23 24 23 24 25 25 25 25 24
56 55 54 52 51 50 49 47 46 46 44 43 44 44 43 41 38 38 37 37 34 32 30 29 28 26 26 24 22 21 23 23 24 23 21 22 23 24 25 25 25 26 26
53 52 51 50 48 47 45 45 45 43 43 42 42 41 40 39 36 35 33 30 26 26 25 24 23 24 24 24 23 24 24 24 25 25 25 26 28 29 28 27 25 25 24
51 51 49 48 46 44 44 44 42 42 42 41 39 39 38 37 35 34 30 26 23 23 22 22 25 23 23 24 25 25 24 22 21 21 21 23 23 26 27 26 25 22 22
48 47 46 45 44 43 41 41 41 40 37 34 32 32 32 31 30 30 28 24 24 22 21 21 22 21 23 25 25 23 20 20 19 19 19 20 20 21 20 20 21 22 20
44 43 43 42 41 41 40 38 36 34 32 29 28 27 27 26 27 26 25 23 23 23 21 22 22 22 24 23 21 19 18 21 19 17 17 17 17 16 17 18 18 20 21
42 42 41 41 40 39 36 34 33 32 30 28 27 25 24 23 23 24 23 21 21 22 22 21 21 22 21 21 17 17 19 18 17 14 14 14 14 15 15 17 17 18 19
40 39 37 34 33 33 33 32 31 31 29 26 25 23 21 20 20 21 21 22 20 21 21 21 22 22 20 19 18 17 16 16 15 14 13 14 14 13 13 14 15 15 16
35 32 30 28 26 25 25 26 27 28 29 27 26 23 21 20 20 21 21 22 23 23 22 21 18 16 14 15 15 14 14 12 12 13 12 11 10 10 11 13 13 13 14
29 29 28 25 24 22 22 22 27 28 28 28 27 25 24 22 21 22 22 20 19 20 20 17 14 13 14 13 13 12 11 10 9 10 9 10 7 8 9 9 11 11 12
27 26 24 23 22 22 21 21 21 24 25 25 24 24 23 23 23 18 18 18 18 17 17 14 12 12 13 11 11 10 9 10 9 7 7 8 6 8 6 6 9 10 9
26 26 25 24 24 25 25 25 25 24 22 23 25 25 25 24 22 20 18 19 17 16 17 14 13 13 11 9 8 7 8 8 5 5 5 5 3 5 3 4 7 7 8
26 27 27 27 27 27 27 26 26 25 25 23 23 24 24 23 21 21 18 17 16 15 13 12 13 12 10 8 8 6 3 1 -1 -4 -3 -2 -2 0 1 2 5 6 8
26 26 26 25 25 25 25 24 24 23 22 22 21 19 18 17 14 14 14 13 14 13 12 12 12 10 8 8 5 1 -3 -6 -5 -4 -3 -8 -8 -1 0 1 3 3 7
24 23 23 23 22 21 21 21 21 20 19 19 17 17 17 15 14 14 15 12 13 13 11 10 8 6 6 6 5 -1 -4 -10 -4 -1 -1 0 -4 -1 2 3 2 4 7
22 21 20 19 19 19 19 19 18 18 17 16 16 16 16 13 14 13 11 8 7 10 9 7 5 4 3 1 -1 -11 -9 -10 -8 -5 -2 0 1 1 2 2 1 1 5
20 19 18 17 17 17 16 16 15 15 15 14 14 13 12 10 9 8 7 4 7 4 1 0 -7 -4 -4 -9 -12 -8 -7 -2 -1 1 0 0 1 2 2 1 1 1 4
16 16 16 15 15 14 13 12 13 12 12 11 10 9 8 5 1 1 -1 -5 -8 -13 -15 -16 -13 -8 -6 -10 -11 -8 -3 -3 1 2 2 2 2 2 2 2 2 1 3
15 14 13 11 10 10 9 8 7 6 6 5 2 -1 2 -2 -2 -12 -18 -18 -13 -18 -13 -13 -13 -10 -9 -9 -8 -7 -6 -2 -0 1 1 1 1 0 1 2 3 2 3
11 10 9 8 7 6 3 1 -2 -3 -5 -6 -8 -10 -8 -8 -11 -21 -17 -16 -15 -13 -13 -12 -10 -10 -9 -7 -5 -2 -4 -4 -3 -1 1 1 -1 0 1 2 3 3 4

GFSGL_sfc_dewp_066.txt.gz
Dewpoint
51 51 50 50 50 51 52 53 54 55 56 55 55 56 56 56 55 55 56 54 53 52 50 49 48 47 46 45 45 44 43 43 40 41 41 39 38 38 37 37 36 37 37
51 52 51 50 50 50 51 52 54 54 55 56 56 56 57 56 56 56 54 51 51 48 47 47 46 46 45 44 44 43 42 42 41 39 40 38 37 37 36 36 37 36 36
51 51 52 50 50 50 51 51 52 53 54 56 56 56 56 55 54 53 52 51 49 48 46 46 45 45 43 43 43 42 41 41 40 39 38 38 37 37 36 35 35 36 35
51 51 51 52 51 51 51 52 54 56 57 57 57 56 54 53 52 50 49 47 46 45 45 45 44 44 43 42 41 40 40 39 36 36 35 35 36 35 34 32 31 33 32
51 52 52 53 53 52 53 54 54 56 57 57 55 52 49 49 48 47 47 45 44 43 43 43 43 43 41 41 40 39 38 36 36 34 33 31 29 29 28 30 26 25 25
52 52 54 54 55 55 55 56 56 56 56 55 52 52 48 48 45 43 45 44 43 42 41 39 38 36 35 34 33 32 31 28 26 26 26 22 21 26 26 24 24 23 21
53 53 54 55 55 55 56 56 54 54 52 49 48 48 46 44 42 42 40 43 42 41 38 34 31 31 29 25 24 23 24 25 25 24 21 22 23 22 24 24 24 24 23
53 54 54 55 55 53 52 51 49 48 48 47 47 45 44 41 40 40 39 38 36 34 33 31 28 25 25 22 20 22 23 24 25 24 23 24 25 25 26 26 25 24 24
53 53 54 54 52 50 49 47 46 45 45 44 44 43 40 39 37 36 34 31 29 27 26 25 25 24 24 24 23 23 23 24 20 20 20 21 22 24 25 26 23 22 20
54 53 52 51 49 48 46 45 44 44 42 41 40 40 37 36 35 34 31 28 25 23 23 23 24 23 25 27 25 24 20 19 18 16 16 19 19 20 22 20 20 18 18
51 50 48 47 45 45 43 43 42 40 38 35 34 34 34 34 33 32 29 27 24 22 20 20 22 24 26 26 23 22 20 18 16 15 15 16 17 18 17 17 18 18 18
47 46 45 43 42 42 41 39 37 35 33 31 30 29 28 28 28 28 27 25 23 21 21 21 23 25 25 22 21 20 19 18 18 16 15 14 14 14 14 15 16 17 18
44 43 42 41 40 39 37 36 34 34 32 31 29 26 24 25 25 24 23 23 23 22 23 22 24 24 22 20 19 19 19 17 15 15 14 12 12 12 11 13 14 14 16
41 39 38 37 36 36 36 35 33 32 31 29 27 24 23 20 21 22 22 21 21 21 22 22 23 22 20 19 18 17 16 15 13 13 12 12 12 12 9 10 12 13 14
36 34 33 31 30 28 28 30 31 31 31 30 27 24 22 21 20 21 22 22 24 23 23 21 18 16 15 15 15 14 14 13 11 12 11 9 9 9 7 9 9 10 11
32 31 31 30 29 27 27 27 30 29 29 28 26 25 25 24 24 24 24 23 23 23 21 18 15 14 14 13 14 13 12 11 10 9 8 6 7 7 6 7 7 8 9
30 28 27 27 26 25 25 24 22 27 29 29 28 27 27 26 24 22 21 20 19 18 18 15 13 13 13 12 12 11 10 9 10 7 6 5 6 5 6 4 4 5 6
28 28 27 27 26 25 25 25 25 24 22 23 26 25 24 22 22 24 25 23 19 18 16 14 13 13 12 10 10 8 7 8 7 4 4 4 4 4 3 2 2 3 5
27 27 27 27 27 27 27 26 25 24 23 22 24 24 24 24 24 23 22 19 17 16 16 15 15 14 12 11 10 8 7 6 4 3 1 1 0 1 0 1 1 1 2
25 25 25 25 25 24 24 24 23 23 23 22 21 18 18 18 15 15 15 15 16 16 15 14 14 12 10 9 8 6 4 4 2 1 1 -2 -3 -2 -0 -0 1 1 2
22 22 22 21 21 21 21 20 20 19 18 17 16 17 17 16 15 15 15 13 13 13 11 11 9 8 7 6 5 4 2 -1 -2 -2 -2 -0 -4 -3 -0 1 2 2 2
20 19 19 19 19 18 18 18 17 16 16 15 15 15 15 14 13 11 9 8 8 9 8 6 4 3 3 1 -0 -3 -5 -9 -8 -4 -4 -3 -1 1 1 1 1 1 1
18 17 16 16 16 15 15 15 14 13 12 12 11 11 10 9 8 7 5 0 0 -3 -3 -3 -7 -4 -3 -7 -9 -7 -8 -5 -3 -1 -2 -1 -1 0 1 1 1 1 1
15 15 13 13 13 11 10 9 10 10 9 8 6 5 2 -0 -4 -8 -11 -13 -11 -15 -18 -18 -13 -9 -7 -9 -10 -8 -5 -5 -2 -0 -0 -0 -1 -0 0 1 1 2 2
12 11 9 8 7 6 4 4 2 2 1 -2 -5 -8 -2 -4 -5 -17 -20 -19 -16 -20 -14 -14 -14 -11 -10 -10 -10 -9 -8 -3 -2 -1 -2 -1 -2 -2 -1 -0 0 2 2
8 7 6 5 3 2 -2 -7 -12 -12 -13 -12 -14 -13 -12 -12 -12 -21 -19 -17 -15 -14 -13 -12 -11 -11 -11 -9 -7 -4 -6 -5 -5 -4 -2 -2 -2 -2 -1 -0 0 2 3

GFSGL_sfc_dewp_069.txt.gz
Dewpoint
53 53 53 53 53 53 53 54 53 54 54 54 54 54 54 54 56 57 57 58 57 57 56 55 54 54 51 49 49 47 46 46 44 42 42 42 42 43 41 41 41 41 40
54 54 54 54 53 53 53 53 54 53 54 54 54 54 55 55 57 57 56 55 55 55 53 53 53 50 49 47 47 45 45 44 43 41 42 41 40 40 40 41 38 35 37
53 54 54 54 53 53 53 54 54 54 54 56 56 56 55 54 55 56 56 55 54 54 53 50 49 48 46 45 45 43 43 42 42 40 40 39 38 38 37 37 36 35 31
52 53 53 53 53 53 53 53 54 54 54 54 54 56 56 56 55 55 55 55 53 51 50 49 47 46 45 45 43 43 42 41 40 38 37 36 36 36 35 32 29 27 22
52 52 52 53 53 53 53 53 53 53 53 54 55 57 57 56 54 53 53 52 48 47 47 46 45 45 43 42 42 41 40 39 38 37 35 34 33 29 25 24 21 21 22
52 52 52 52 53 52 52 53 53 54 55 57 58 57 53 52 45 45 48 48 46 45 43 42 41 39 38 37 37 36 37 36 33 34 31 28 25 22 21 22 21 19 15
52 52 52 53 53 54 53 52 54 55 56 57 57 55 52 51 42 43 44 46 44 42 39 37 34 33 32 29 28 27 27 26 27 25 24 21 20 22 23 22 21 22 20
52 52 52 54 54 54 55 55 55 56 56 54 52 50 47 43 41 41 41 43 40 38 36 34 32 29 27 23 21 21 22 22 23 21 23 23 24 24 25 24 24 23 20
52 53 53 54 54 55 55 54 49 49 47 47 46 44 42 40 38 38 38 36 33 32 30 29 28 26 27 25 22 21 21 22 21 20 19 19 20 21 22 22 19 16 19
52 53 54 55 55 53 51 47 46 46 44 43 42 41 38 37 36 35 34 32 29 27 28 26 26 24 26 26 22 21 19 18 16 13 15 17 17 17 18 16 15 17 16
54 53 52 51 50 48 45 45 43 41 39 37 35 36 36 35 34 34 33 30 27 25 23 21 23 27 27 25 24 22 20 17 17 14 14 15 15 16 15 15 15 17 17
49 48 47 46 45 45 43 40 38 36 34 32 31 30 31 32 32 32 31 29 27 24 20 21 25 27 25 23 22 21 19 18 19 17 16 14 13 13 13 12 12 13 15
45 44 44 43 42 42 40 38 35 34 32 31 29 28 27 27 29 30 29 26 25 23 21 24 26 25 22 21 21 20 18 18 18 17 15 12 11 10 10 11 11 11 12
42 41 40 39 38 37 36 35 34 33 32 30 28 26 25 25 25 23 23 23 23 23 24 25 24 22 21 20 19 18 17 17 15 16 14 12 11 12 12 10 11 12 12
38 36 35 34 32 31 31 33 33 33 33 31 29 27 25 24 22 23 23 23 24 23 24 22 21 20 18 17 16 15 15 14 14 15 13 11 9 10 10 10 11 10 11
34 33 33 33 31 30 29 28 30 29 30 30 28 26 25 24 25 27 26 25 24 24 22 20 19 19 17 16 16 15 14 12 12 11 11 9 8 9 9 8 9 10 9
31 30 29 29 28 27 26 25 24 28 30 29 29 28 27 27 27 27 27 26 24 20 20 19 19 19 18 14 14 13 12 11 10 10 9 9 8 8 8 7 8 8 7
28 28 27 27 26 25 25 25 25 24 23 24 27 27 27 26 25 25 24 24 22 20 18 17 17 16 15 14 13 12 11 11 11 9 9 8 8 7 7 6 6 7 7
27 27 27 27 27 27 27 26 25 25 25 24 24 25 25 25 24 24 23 21 19 17 16 16 17 16 14 13 13 12 11 10 9 9 7 6 7 7 6 6 6 5 5
24 25 25 25 25 25 26 26 25 24 23 22 20 20 21 20 20 19 19 20 18 16 16 14 14 13 13 11 11 11 10 9 8 7 7 7 7 7 6 5 6 6 5
22 22 23 23 22 23 23 22 22 21 20 19 19 19 17 18 17 16 15 15 14 13 13 12 12 11 10 9 7 7 6 6 5 4 4 4 5 5 4 6 6 5 5
21 20 20 20 20 20 19 19 19 18 17 16 16 15 14 16 14 12 11 12 11 11 10 8 7 6 5 4 4 4 3 2 3 3 3 2 3 4 4 5 5 6 5
18 18 17 17 16 16 16 15 15 14 14 13 13 12 12 12 11 9 8 7 7 6 5 5 4 2 2 2 2 1 0 0 1 2 2 2 2 3 4 4 4 4 5
16 15 13 13 13 12 13 12 11 9 10 10 10 9 9 7 7 5 4 5 4 4 2 1 -0 -2 -2 -1 0 0 -1 0 1 1 1 2 1 2 3 3 4 4 5
12 11 10 9 8 8 8 7 7 7 6 6 6 7 5 5 4 3 2 1 -1 -0 -1 -2 -2 -3 -4 -5 -5 -4 -3 -3 -1 -1 0 1 1 1 1 2 3 4 4
7 6 6 6 5 4 4 3 2 3 2 3 3 2 2 2 1 1 -1 -2 -3 -3 -4 -3 -3 -5 -6 -5 -5 -4 -5 -5 -4 -2 -0 0 0 1 2 3 3 4 4

GFSGL_sfc_dewp_075.txt.gz
Dewpoint
54 55 55 56 56 58 58 58 58 58 58 57 57 56 55 55 55 56 55 56 55 56 57 57 57 57 58 58 59 57 57 54 51 51 49 51 47 46 42 45 46 45 45
55 56 57 57 55 57 57 58 59 58 58 57 56 56 55 55 56 56 55 54 55 54 55 56 55 56 57 59 57 55 54 53 52 50 46 47 45 45 44 44 44 42 43
52 54 57 57 57 57 57 58 57 58 57 56 56 56 55 55 55 55 55 55 55 55 55 56 55 56 57 57 55 54 53 52 51 49 45 45 45 45 45 42 42 43 40
53 53 54 57 57 57 56 57 57 57 57 57 57 56 56 55 54 54 53 55 55 54 55 56 56 57 56 55 53 52 51 49 47 46 45 43 43 43 40 40 39 40 36
54 54 55 57 57 56 56 56 56 57 56 56 57 57 57 56 54 55 54 54 53 54 55 56 56 54 50 52 53 51 49 48 45 45 42 42 41 39 39 38 36 35 35
55 55 55 55 55 56 57 57 57 56 56 56 56 55 56 54 48 45 50 54 54 54 54 54 54 49 48 44 44 44 46 46 44 43 41 39 39 38 37 35 31 29 25
54 54 54 55 55 57 56 55 55 56 57 56 55 55 55 56 45 45 44 54 54 54 55 53 47 45 44 41 37 35 35 35 36 40 38 37 37 35 33 31 29 29 24
53 53 53 54 55 55 56 55 56 56 56 56 57 57 56 55 43 45 43 54 55 55 51 46 42 39 39 37 34 32 31 31 32 31 34 33 32 29 27 27 28 25 25
51 52 52 53 53 54 55 56 57 57 57 56 56 56 55 55 42 43 45 44 39 37 37 38 37 35 35 35 32 32 32 30 31 30 29 27 26 24 22 23 24 22 26
49 51 52 52 53 53 55 56 57 56 55 54 48 47 43 45 40 41 42 38 34 33 34 34 34 33 33 33 31 30 27 24 21 21 20 17 17 19 17 18 17 19 19
45 49 51 52 53 53 54 56 56 53 47 42 39 38 38 38 37 38 37 34 32 30 30 30 31 32 32 32 31 31 29 28 26 25 25 22 18 19 19 19 17 18 19
54 54 53 54 53 53 55 53 48 45 39 36 34 32 33 33 34 34 33 32 31 29 28 29 30 30 30 29 28 28 28 29 28 24 22 17 17 16 17 16 16 16 16
52 49 48 46 46 48 46 42 40 40 38 36 34 31 30 31 32 32 31 31 30 29 28 28 29 28 26 25 26 26 28 27 25 24 21 18 17 15 13 14 16 15 15
41 40 39 38 36 37 37 39 39 37 35 32 30 28 27 28 29 29 30 30 30 28 28 27 27 28 26 24 25 25 23 23 21 22 22 19 18 18 17 16 18 18 17
35 35 34 32 32 31 31 33 33 33 34 31 30 28 27 26 27 28 28 28 28 27 27 27 26 25 25 25 24 23 23 21 21 21 20 19 17 17 17 18 17 17 17
32 31 31 31 30 29 28 27 30 30 30 30 30 28 28 29 30 30 31 30 29 29 28 27 28 28 27 26 25 22 21 17 17 16 17 17 16 16 16 16 15 16 16
30 29 29 28 28 27 27 25 24 28 30 30 30 30 29 30 29 29 29 29 29 30 28 28 27 27 24 23 22 19 18 17 15 16 17 16 16 15 14 14 14 14 14
29 29 27 27 26 26 26 25 25 24 23 25 29 29 29 28 28 28 28 26 25 25 24 23 22 21 19 17 17 17 17 18 17 15 15 15 15 14 12 11 11 12 11
28 28 28 28 28 28 27 26 26 25 24 23 24 25 26 27 27 28 29 26 24 23 21 21 22 20 18 18 18 18 17 16 15 15 15 14 14 12 10 10 10 10 11
28 28 29 29 28 28 27 26 25 25 25 24 24 24 26 25 23 23 24 24 23 21 21 18 17 16 16 16 16 16 14 13 12 11 11 11 11 10 10 9 9 8 7
28 28 27 26 25 26 25 24 23 22 21 20 20 22 23 21 20 19 18 19 18 16 17 15 15 14 12 12 10 11 10 11 9 8 8 8 10 8 7 8 8 8 7
24 24 23 23 23 23 23 23 22 20 19 18 18 19 18 19 17 15 14 15 15 13 12 12 11 10 9 8 8 9 8 7 7 7 7 6 5 6 6 7 8 7 6
22 21 20 20 20 19 20 20 20 19 18 18 17 16 15 15 14 12 12 13 11 11 10 9 9 7 8 8 8 7 6 6 6 6 5 5 4 5 6 6 6 6 7
19 19 16 16 17 17 17 17 15 14 14 14 14 13 12 12 12 10 10 10 9 10 9 7 6 4 2 4 5 5 4 5 4 3 3 4 4 4 5 5 5 5 6
16 16 15 15 14 14 14 13 13 13 13 13 12 11 10 10 9 10 8 7 5 6 5 5 5 3 2 0 0 1 2 -0 -1 -1 1 2 3 4 4 5 6 6 7
11 11 12 12 12 12 12 11 11 10 10 10 10 9 9 7 7 7 5 5 2 2 2 4 3 1 0 1 1 1 -3 -4 -3 -3 -1 1 3 4 5 6 5 5 5

GFSGL_sfc_dewp_078.txt.gz
Dewpoint
56 57 56 57 57 56 56 57 56 57 56 55 55 54 54 54 53 52 52 53 53 53 53 53 54 54 55 57 57 56 55 55 52 52 52 52 49 50 46 47 46 44 42
54 56 57 57 57 57 57 57 57 57 57 55 55 55 55 54 53 53 52 52 53 53 53 53 53 54 56 56 56 55 56 56 54 52 50 49 49 49 46 44 46 45 45
53 55 56 56 56 56 57 57 57 57 57 57 56 55 55 54 53 53 52 52 52 53 53 53 53 54 54 55 55 55 56 54 54 53 51 48 48 47 45 45 44 44 42
54 53 55 56 56 56 56 56 58 57 57 57 56 56 56 55 54 53 52 52 53 53 53 53 53 53 54 54 55 56 54 53 53 52 51 47 45 45 46 44 42 42 42
55 54 53 55 56 56 56 56 56 57 57 56 56 55 55 55 54 54 53 53 53 53 54 53 54 52 49 52 55 54 54 52 52 50 49 44 43 41 42 42 41 40 41
55 55 54 54 55 56 56 56 56 56 56 56 56 55 55 54 48 45 51 53 53 53 53 53 53 49 48 46 46 47 51 51 50 49 47 44 43 43 42 39 38 35 32
54 55 55 55 54 55 56 55 55 55 55 55 55 55 55 55 46 44 44 52 53 53 52 53 51 50 47 50 37 38 36 35 34 46 45 39 36 38 37 34 32 32 32
52 53 54 55 55 55 55 55 55 55 55 55 55 55 55 55 45 43 42 52 53 53 52 52 52 46 42 39 35 33 33 33 34 35 34 33 34 35 35 34 33 33 33
42 52 53 54 54 55 55 55 55 55 55 55 55 54 54 54 44 42 43 51 48 39 39 39 39 37 37 37 34 32 29 29 33 34 33 33 32 31 32 33 30 29 30
51 54 51 53 54 54 55 55 56 56 55 55 54 51 48 52 40 41 45 43 35 33 33 34 34 34 34 35 34 31 28 26 26 25 26 27 27 24 24 27 25 27 27
48 53 52 52 53 54 54 55 56 56 50 43 38 37 37 38 39 41 40 38 34 32 31 31 32 33 33 32 31 28 26 28 29 29 28 28 30 29 28 26 26 26 25
44 44 45 45 46 52 53 50 49 45 39 36 34 32 33 34 35 36 35 34 33 30 29 30 31 32 31 31 30 30 29 29 28 28 28 27 26 25 23 21 21 20 20
37 36 35 36 38 42 44 43 42 41 38 35 33 31 30 32 32 33 33 32 31 29 30 30 30 29 28 28 29 29 29 28 28 26 25 25 21 18 18 20 21 19 20
34 33 32 32 31 32 36 37 36 35 34 33 31 29 28 29 30 30 30 30 30 28 28 27 26 25 26 27 26 25 25 25 26 25 25 25 23 23 22 22 21 22 21
32 32 31 30 29 28 28 30 31 32 34 31 29 29 27 26 29 30 28 27 27 26 27 26 25 25 25 25 25 25 26 26 24 24 23 22 20 19 20 20 20 19 17
30 30 30 29 29 28 27 26 30 30 31 31 30 29 30 31 31 30 29 29 30 29 27 26 26 26 25 25 24 23 23 21 20 19 19 19 18 18 17 16 17 16 16
28 28 28 27 27 27 26 25 24 28 30 30 30 30 30 30 30 30 30 31 32 30 26 26 24 24 23 22 22 21 19 18 19 18 17 17 16 15 15 14 14 14 14
28 28 27 27 26 26 25 25 25 23 21 23 28 28 29 29 30 30 29 27 24 25 24 22 22 22 21 20 20 19 17 18 16 15 15 14 12 14 12 11 11 9 10
28 28 28 28 27 27 26 25 25 23 23 23 24 25 26 27 26 26 26 23 22 21 21 20 20 20 19 18 18 17 17 15 14 13 13 12 7 8 7 8 7 6 6
27 27 26 26 25 24 23 22 21 20 20 21 22 22 22 19 18 18 19 18 18 18 18 17 17 17 16 15 15 14 13 12 12 11 7 4 3 5 4 3 3 4 7
25 24 25 25 24 22 21 20 19 18 17 17 17 19 19 16 15 15 15 15 15 15 15 16 14 13 12 12 11 11 10 8 9 8 7 7 2 2 5 4 4 6 7
22 21 20 20 21 21 20 21 20 19 18 16 17 17 17 16 15 14 13 13 12 12 12 12 10 10 9 9 8 6 6 3 5 5 3 2 2 1 3 3 1 2 5
19 19 19 19 18 17 17 17 17 17 16 15 15 14 13 13 13 11 11 12 11 10 9 9 7 7 5 5 7 7 5 6 6 3 -2 -4 -1 1 -1 -0 2 1 1
17 17 16 15 15 15 16 16 15 14 14 14 12 12 11 11 10 9 8 7 7 8 5 4 6 2 2 -2 -0 -1 4 -0 -1 -2 -1 -2 -2 0 -2 0 1 -0 3
14 14 14 14 13 13 12 12 12 11 11 11 10 10 10 10 9 7 5 5 2 2 3 5 1 -1 -1 -6 -4 -1 -5 -7 -10 -9 -7 -3 -2 -4 -1 2 3 6 3
11 11 11 12 11 11 10 10 9 8 8 8 8 8 7 6 5 5 4 -1 -4 -0 0 0 2 -3 -3 0 -1 -5 -9 -8 -10 -7 -8 -2 -3 -1 2 1 -2 1 2

GFSGL_sfc_dewp_081.txt.gz
Dewpoint
56 56 56 57 57 58 57 57 57 57 55 53 53 53 54 54 53 52 52 51 53 53 54 54 54 54 54 55 55 55 54 54 52 52 52 52 50 53 53 52 51 49 46
55 56 55 55 55 56 57 57 57 57 57 55 53 52 52 53 54 52 52 51 51 52 53 53 54 54 54 55 55 54 54 54 53 52 53 48 50 50 51 48 48 46 45
55 56 55 55 55 55 55 55 56 56 56 56 55 54 52 52 53 53 52 51 51 51 52 52 52 52 52 52 53 54 54 54 55 53 52 50 51 47 47 46 47 47 46
53 55 56 56 56 56 56 55 56 56 56 56 55 55 55 53 53 52 52 52 51 51 52 52 52 52 52 52 53 54 55 54 55 54 53 52 48 46 48 47 44 46 45
54 53 54 55 56 56 56 56 56 57 56 56 56 55 55 55 54 54 53 53 52 51 51 52 53 52 49 51 53 54 54 54 54 53 52 51 44 42 44 46 45 44 42
54 53 53 54 55 55 55 55 56 57 56 57 56 56 55 55 49 46 51 53 52 51 51 51 52 48 48 44 45 46 51 54 52 52 52 50 48 46 46 44 41 37 36
53 55 54 54 54 55 55 55 55 55 56 56 57 56 56 55 46 45 44 53 53 52 52 52 52 52 48 51 41 39 37 37 36 49 51 50 43 41 38 35 34 34 33
49 51 54 56 55 54 54 55 55 55 55 55 55 56 56 55 46 43 42 52 53 53 53 53 52 49 47 43 37 35 33 34 35 37 38 36 36 37 37 36 35 34 34
45 47 51 50 51 55 55 54 55 55 55 55 55 55 55 55 45 44 43 50 52 52 43 43 49 45 39 39 36 32 31 31 34 35 34 34 34 35 35 34 32 31 29
43 45 45 45 45 47 53 55 55 55 55 55 55 55 51 55 44 43 44 52 45 36 35 35 36 38 36 36 34 32 29 29 29 29 28 29 31 31 31 32 32 29 29
40 40 40 39 40 42 44 53 56 55 55 53 46 40 39 41 41 40 41 43 42 35 33 32 33 35 35 34 33 32 29 28 28 29 29 29 29 28 28 29 29 28 26
37 36 35 34 34 35 39 42 45 50 45 38 35 33 33 34 35 36 36 36 36 33 31 32 32 33 32 31 30 31 30 29 28 27 27 26 25 23 22 21 21 20 21
34 33 32 31 30 30 31 34 38 40 40 36 35 32 31 32 32 33 33 32 32 30 30 31 31 31 30 30 30 30 29 28 27 26 24 23 24 25 25 24 25 23 23
32 31 29 28 28 28 29 30 30 31 35 34 32 30 29 29 29 29 29 28 28 26 26 27 26 26 26 26 26 27 27 26 25 24 23 24 25 24 22 22 21 21 20
29 29 28 27 27 26 28 28 29 30 31 31 30 30 28 26 27 28 27 26 25 26 26 26 25 24 24 24 24 24 24 24 22 23 22 22 21 21 20 19 18 17 17
27 27 27 27 26 26 25 25 30 30 31 31 31 29 29 30 30 30 30 30 30 29 26 24 24 24 23 22 21 20 21 21 21 21 20 19 18 17 16 16 16 16 15
27 26 25 25 25 25 24 23 23 27 30 30 30 31 31 32 32 31 30 29 29 27 23 22 21 21 21 21 20 19 19 19 19 17 16 16 16 15 14 13 13 12 11
27 26 26 26 25 24 23 23 23 22 21 22 26 27 29 29 29 28 27 25 22 22 21 20 19 19 19 18 18 18 17 16 16 16 15 13 12 12 11 10 9 8 8
25 25 24 24 24 23 24 23 23 23 21 21 21 20 22 24 23 23 22 19 18 17 17 17 17 17 17 17 16 15 14 12 11 10 9 8 5 6 3 5 4 4 6
23 24 23 22 21 20 20 19 18 18 17 16 16 16 17 16 14 14 15 15 16 16 16 15 15 14 14 13 12 12 11 10 9 8 5 3 2 5 3 3 3 3 6
20 20 20 20 20 20 19 17 17 16 15 15 15 16 16 14 12 12 11 11 12 12 12 11 10 10 10 10 9 8 7 7 7 6 4 0 -5 -3 3 1 -2 3 5
20 19 18 18 18 17 17 17 16 15 14 13 14 14 14 12 11 10 10 9 9 9 10 9 7 6 6 7 6 3 2 3 1 -2 -2 -1 -1 -1 -2 -4 -6 -6 -1
16 15 15 16 16 15 15 15 14 12 12 11 11 10 9 8 7 7 7 8 6 5 6 5 2 2 2 1 1 3 0 -1 -3 -7 -7 -9 -5 -6 -12 -8 -6 -7 -7
14 14 13 12 10 10 10 10 10 10 10 8 7 7 8 6 4 2 1 1 2 -2 2 -0 0 -1 -1 -7 -5 -1 -2 -10 -8 -10 -15 -15 -11 -6 -10 -6 -4 -5 1
11 10 10 10 9 7 5 5 5 2 3 1 5 5 5 4 2 -1 -6 -6 -4 -3 1 -2 -5 -7 -8 -5 -5 -7 -10 -10 -15 -12 -14 -12 -14 -15 -11 -2 -2 -4 -7
9 8 7 7 5 3 -1 -1 -3 -4 -5 -3 3 -2 -9 -5 1 -7 -11 -7 -5 -3 -6 -5 -6 -6 -3 -3 -6 -8 -12 -9 -11 -7 -11 -8 -9 -9 -10 -11 -7 -8 -2

GFSGL_sfc_dewp_084.txt.gz
Dewpoint
55 55 56 56 57 57 56 56 56 56 55 54 54 53 54 55 55 55 55 55 55 55 55 54 54 53 53 54 55 54 54 53 51 51 53 53 52 53 53 53 53 52 52
56 55 55 56 56 57 57 57 57 56 56 55 54 54 53 53 54 54 53 53 53 53 53 53 53 53 53 53 53 53 53 54 52 51 51 51 50 52 53 54 53 53 52
57 56 56 57 57 57 57 57 57 57 56 56 54 54 53 53 53 53 53 52 51 51 51 52 52 53 53 53 53 53 53 53 53 53 51 52 53 49 49 48 48 50 49
55 56 55 55 55 56 56 57 57 57 57 56 56 54 53 53 53 53 53 52 51 51 51 51 51 51 52 52 53 53 53 53 53 53 52 52 53 50 50 49 47 47 48
55 56 55 55 56 55 55 55 56 56 56 56 56 56 55 54 52 52 52 52 52 51 51 51 51 50 48 50 51 51 51 51 51 51 52 53 50 44 47 49 50 49 45
54 56 56 57 56 55 55 55 55 55 55 56 56 55 55 55 49 45 49 52 52 51 50 50 51 47 47 44 44 45 49 51 51 51 51 51 52 49 50 49 47 39 38
48 49 53 53 55 56 57 56 56 55 56 56 55 56 55 55 47 46 44 53 53 52 52 51 51 51 47 51 44 42 40 39 40 51 52 52 51 52 50 45 43 40 35
43 45 47 48 48 49 51 56 56 56 56 56 56 56 56 56 47 44 43 53 54 54 53 52 52 51 50 49 46 43 41 37 37 38 42 43 39 40 43 41 38 33 34
39 39 41 42 44 45 46 47 51 56 56 55 56 56 56 56 46 44 44 52 53 54 54 53 53 51 48 44 44 39 32 32 35 36 35 35 35 35 37 36 33 33 30
36 36 36 37 38 40 41 44 46 48 56 56 55 56 53 56 48 45 46 53 51 52 52 41 37 45 44 40 47 39 34 31 31 31 30 30 31 31 31 33 33 30 28
35 34 33 32 32 34 36 39 42 44 45 54 54 42 42 38 39 39 42 51 51 49 42 33 33 35 35 35 35 35 33 30 29 28 28 27 26 25 25 26 28 29 27
33 31 30 29 29 30 32 33 35 38 39 37 36 34 34 34 34 35 36 38 37 36 31 32 32 33 32 31 30 31 30 29 28 26 25 24 24 25 26 27 27 26 26
31 29 28 28 27 28 30 30 30 33 34 33 32 31 30 32 31 32 32 32 32 31 31 31 31 30 30 29 30 29 28 27 26 24 23 23 24 26 26 26 26 26 26
29 28 27 27 26 27 28 28 29 29 31 30 30 29 28 27 27 27 27 27 28 27 26 26 26 26 26 26 25 26 26 26 25 23 22 23 24 23 22 23 21 21 20
27 27 27 26 25 25 27 28 28 29 30 28 28 28 26 26 27 28 27 26 27 27 27 26 25 24 22 22 22 23 23 23 22 22 21 21 20 19 19 20 18 17 16
26 26 26 26 25 24 23 24 27 28 30 31 31 30 30 30 30 31 30 30 29 28 25 23 22 21 19 19 19 20 21 20 20 19 19 19 17 17 16 15 15 14 13
26 25 24 23 23 22 22 21 20 22 23 26 27 29 30 30 29 29 28 28 27 24 21 21 20 20 19 19 19 17 16 18 19 17 17 17 15 13 13 12 11 10 9
22 22 23 23 22 22 21 21 20 19 18 18 21 23 25 25 25 25 25 22 19 19 19 18 17 17 18 18 17 16 16 16 15 13 12 12 12 11 9 8 7 8 7
21 21 21 19 19 18 18 17 17 16 16 16 17 17 18 22 21 21 21 17 15 15 15 14 15 15 15 14 14 12 11 10 10 9 8 7 7 7 6 6 6 6 6
19 19 19 18 17 16 16 15 15 15 14 13 12 13 14 13 11 11 12 12 12 12 12 11 12 12 12 11 11 10 9 9 8 6 2 1 -1 3 3 3 1 -0 5
17 17 17 17 16 16 15 14 13 13 12 11 11 13 12 10 9 9 8 8 9 9 9 8 8 8 8 7 7 5 4 1 2 -0 -1 1 -5 -3 1 1 -1 2 4
17 17 16 16 16 15 14 13 12 12 11 9 9 8 7 7 7 6 5 4 5 6 6 4 4 4 4 3 3 -1 -5 -7 -8 -8 -7 -6 -4 -4 -4 -4 -5 -5 -2
14 13 12 13 13 12 12 12 10 8 7 7 6 5 3 1 2 2 2 -0 1 0 -0 -1 -2 -2 -3 -5 -2 -2 -4 -7 -9 -13 -13 -12 -7 -8 -14 -10 -8 -10 -9
11 12 11 9 8 8 6 5 6 6 5 5 4 3 1 -3 -7 -8 -8 -9 -5 -6 -8 -8 -6 -5 -5 -12 -9 -6 -8 -15 -13 -15 -18 -16 -11 -10 -14 -10 -8 -10 -10
9 8 6 5 4 3 3 2 0 -0 -0 -3 -3 -3 -1 -6 -8 -14 -12 -8 -4 -5 -5 -9 -9 -7 -8 -10 -10 -10 -12 -12 -16 -15 -16 -16 -18 -17 -14 -11 -14 -10 -11
7 6 4 4 1 -2 -3 -3 -7 -8 -6 -8 -9 -14 -13 -9 -14 -20 -17 -13 -13 -11 -10 -9 -7 -9 -10 -9 -9 -10 -12 -11 -14 -14 -19 -14 -16 -17 -17 -16 -13 -13 -6

GFSGL_sfc_dewp_087.txt.gz
Dewpoint
56 56 57 57 57 57 56 56 56 56 54 53 53 54 54 55 56 55 55 54 55 54 54 54 54 54 54 54 55 54 54 53 51 51 51 52 52 52 53 52 52 52 52
56 56 56 56 57 57 56 56 57 56 56 54 53 53 53 54 55 55 55 55 54 54 54 54 54 54 54 54 54 53 52 51 51 50 51 52 52 52 53 53 53 53 53
56 55 55 56 56 56 56 56 56 56 56 56 55 54 53 53 53 54 54 54 53 54 54 54 53 53 53 53 53 52 52 52 53 52 50 51 52 52 51 51 52 53 53
56 56 55 55 56 55 56 56 56 56 56 56 56 55 54 54 52 52 53 53 53 53 53 52 52 53 52 52 52 52 52 52 52 52 52 51 52 52 50 50 49 49 51
56 57 56 56 57 57 57 57 57 57 56 56 56 55 55 54 54 53 52 52 52 52 52 52 52 51 48 50 51 51 52 51 51 51 51 51 51 49 49 51 50 51 51
49 52 54 56 56 56 56 56 56 57 56 56 56 56 55 54 48 45 50 53 52 52 51 51 51 47 47 43 44 44 48 51 50 50 50 49 49 50 51 51 51 49 46
42 43 44 46 47 49 52 56 56 55 56 56 56 56 55 55 48 45 44 52 52 52 52 52 52 51 47 50 44 42 42 42 44 50 49 49 50 50 51 50 50 50 48
37 37 39 40 42 44 45 46 47 51 56 56 56 56 56 56 48 47 45 51 52 52 52 52 52 52 51 49 48 48 46 48 46 46 48 50 51 47 48 49 51 40 34
35 34 35 35 37 38 38 40 43 45 47 49 56 56 56 56 48 45 45 52 52 52 53 53 53 52 49 45 49 48 47 34 36 36 35 35 35 36 39 39 35 36 31
33 32 31 30 32 33 34 36 37 40 43 45 47 45 39 41 36 37 42 53 52 52 52 53 47 51 46 42 48 49 46 36 32 30 29 29 29 30 30 32 35 36 28
31 30 29 29 30 31 32 33 34 36 39 38 36 33 33 32 33 35 37 42 51 51 50 47 34 35 35 36 40 48 44 32 29 27 26 27 27 27 27 27 28 28 24
30 28 28 28 28 29 29 30 31 34 34 33 32 31 30 30 31 32 33 34 37 34 33 32 32 33 33 32 32 32 31 29 27 26 25 24 24 24 25 25 26 26 26
29 27 27 26 27 27 27 28 28 30 30 30 29 28 28 28 28 29 30 30 31 30 30 30 30 29 28 28 29 29 28 26 25 23 22 22 23 24 25 25 26 25 25
27 27 26 25 25 25 27 27 27 28 27 26 26 26 26 26 26 27 28 28 29 28 28 27 27 26 25 25 25 25 25 25 24 22 21 21 22 21 20 22 21 21 20
26 26 26 25 25 24 24 25 25 27 28 26 26 26 25 26 28 29 28 27 27 27 25 24 22 22 21 21 21 22 22 22 20 21 19 19 18 18 18 19 19 18 16
23 24 24 23 22 23 22 22 24 24 26 27 27 26 27 27 27 27 27 27 27 24 21 19 19 19 18 18 17 17 18 18 18 18 18 17 16 15 15 15 15 14 12
24 22 22 22 21 21 20 19 17 18 21 23 25 25 25 25 25 25 25 24 23 20 17 17 17 17 16 16 16 16 15 16 16 15 15 15 14 13 12 10 10 10 9
20 19 19 18 17 16 15 15 15 13 13 14 19 21 23 23 23 23 21 18 15 15 15 15 14 15 15 15 14 13 13 13 12 11 11 11 11 10 9 8 7 8 7
18 17 15 15 15 14 14 13 12 11 11 11 11 13 15 18 18 18 17 13 12 12 12 11 12 13 12 12 11 11 10 9 8 7 7 7 7 7 6 6 6 6 5
16 16 15 15 14 13 12 12 11 10 9 8 8 9 10 9 7 7 9 10 9 9 9 9 9 9 10 10 9 9 8 7 6 5 3 3 4 5 3 3 3 3 4
15 15 13 15 14 13 12 11 11 9 8 7 6 7 7 6 4 5 5 5 5 4 4 5 4 5 6 5 4 2 1 -0 1 1 1 -1 -5 -3 -0 -1 -0 2 2
14 14 14 13 12 11 11 10 9 8 7 6 6 4 4 3 3 2 0 -1 -1 2 2 0 -0 1 1 1 -0 -3 -5 -8 -7 -7 -5 -4 -3 -4 -4 -5 -8 -9 -4
12 10 10 10 9 7 7 8 7 6 4 3 3 2 0 -1 -0 -2 -3 -5 -2 -3 -5 -5 -7 -4 -5 -7 -6 -5 -7 -9 -10 -14 -14 -12 -8 -10 -14 -11 -8 -8 -8
8 8 8 6 6 4 3 2 3 2 3 1 -1 -3 -5 -7 -7 -6 -6 -7 -6 -9 -14 -16 -10 -7 -8 -15 -13 -9 -8 -15 -12 -14 -18 -17 -14 -12 -14 -10 -9 -14 -14
5 4 4 2 1 -0 -1 -2 -4 -3 -4 -7 -9 -8 -7 -8 -8 -15 -12 -10 -11 -15 -11 -14 -12 -11 -12 -15 -14 -11 -12 -12 -18 -17 -18 -18 -18 -18 -16 -14 -18 -12 -14
4 3 1 1 -2 -4 -6 -9 -13 -13 -13 -14 -17 -19 -16 -16 -18 -23 -19 -16 -15 -15 -12 -12 -12 -13 -12 -10 -9 -11 -14 -13 -17 -18 -22 -16 -18 -19 -20 -18 -15 -15 -9

GFSGL_sfc_dewp_090.txt.gz
Dewpoint
54 55 55 56 56 57 56 55 54 54 53 54 54 54 54 55 55 54 55 55 54 54 54 54 53 53 52 53 54 53 53 52 49 49 52 52 52 52 52 53 53 53 52
55 55 55 54 56 56 56 56 56 55 54 53 53 54 54 54 55 54 54 54 54 54 54 54 53 53 53 53 53 52 52 53 52 50 52 52 52 53 52 53 52 52 52
55 55 55 55 55 56 56 57 57 56 56 55 53 53 53 53 54 55 55 54 54 54 54 53 53 54 53 53 54 53 53 53 53 52 50 52 52 52 52 52 53 53 53
56 55 55 56 55 55 56 56 57 57 56 56 56 55 54 53 53 53 54 54 54 54 54 54 54 54 53 53 53 53 53 52 52 52 51 51 52 52 52 51 51 51 52
57 56 56 55 56 56 55 55 56 56 56 56 56 55 55 54 54 53 53 53 53 53 53 53 54 52 49 51 53 52 52 51 51 50 50 51 51 51 50 51 50 51 52
46 46 46 48 54 55 56 56 56 56 56 56 56 55 55 55 48 45 50 52 52 52 52 52 52 48 48 44 44 45 49 51 51 50 50 49 49 50 51 51 51 50 49
39 39 41 43 44 45 46 47 48 51 56 57 56 56 56 55 47 46 44 52 53 52 52 52 52 52 48 51 45 42 42 41 43 50 50 49 49 49 50 50 50 50 49
34 34 34 37 38 39 40 41 43 44 46 49 50 54 56 56 42 43 43 51 53 53 53 53 52 52 52 51 50 50 47 48 47 46 48 50 51 51 51 50 50 49 38
31 31 30 32 33 34 35 36 38 40 42 44 43 39 37 39 35 36 38 50 52 53 53 53 53 53 49 46 50 49 48 47 36 38 36 34 34 34 35 44 41 37 33
30 29 29 30 31 31 32 32 35 37 39 39 35 34 32 33 33 35 36 41 48 51 52 52 43 37 35 39 48 50 48 47 33 30 29 29 29 30 29 30 33 41 33
29 28 29 29 30 30 30 32 32 34 34 34 32 31 30 30 31 33 34 37 37 34 33 32 32 33 34 35 35 37 36 32 29 28 27 26 26 26 25 26 26 28 25
28 27 27 28 28 28 29 29 30 31 31 30 29 29 28 28 30 31 31 31 32 30 29 29 30 31 31 32 30 30 31 28 27 25 24 23 23 23 23 24 25 25 25
27 26 25 25 25 27 27 27 28 28 28 27 26 25 25 27 28 28 29 29 28 27 27 27 26 26 26 25 27 27 27 26 24 22 20 20 21 23 24 24 25 22 21
25 25 24 23 23 23 24 25 26 27 25 25 24 24 25 26 26 26 26 25 25 24 24 24 24 23 23 22 22 23 22 22 20 19 19 19 20 20 19 21 21 21 17
24 24 24 24 24 23 23 24 24 27 27 25 25 25 24 24 26 26 25 24 22 22 21 20 19 19 18 19 19 19 20 20 19 19 18 17 17 17 17 19 18 17 14
22 22 22 22 21 21 21 21 24 24 24 25 25 25 26 25 25 25 25 23 22 21 18 16 16 16 16 16 16 16 16 16 17 17 16 16 14 14 14 14 14 13 11
20 20 19 18 18 18 16 15 13 17 20 22 23 24 25 24 23 23 22 21 20 17 14 14 13 14 14 14 14 14 13 14 15 14 14 14 13 11 10 10 10 10 9
15 16 15 15 14 13 12 11 11 10 10 10 16 19 22 22 21 20 18 15 12 12 12 11 11 12 12 11 11 11 10 10 10 10 10 10 11 9 8 7 7 8 6
16 14 10 11 11 10 10 10 9 8 7 7 8 10 11 16 16 15 14 9 8 8 9 9 10 10 10 11 10 10 9 8 7 7 7 7 8 7 6 6 6 5 4
12 13 11 10 9 9 9 9 8 7 5 4 3 5 6 5 3 3 3 3 4 5 5 5 6 7 7 7 7 7 6 5 6 5 4 4 5 5 4 3 4 3 3
10 12 11 12 11 10 9 8 7 5 4 2 1 2 2 2 0 -0 0 -1 0 0 -1 2 1 2 4 2 1 -0 -2 -2 -0 0 1 0 -3 -0 1 2 2 3 2
10 12 11 10 9 7 7 6 4 3 3 2 1 1 -0 -0 -0 -1 -2 -2 -2 -1 0 -0 -0 -0 -1 -1 -2 -3 -5 -7 -6 -6 -3 -2 -2 -2 -1 -2 -2 -2 -0
9 7 8 7 6 3 3 4 2 -0 -2 -2 -1 -1 -2 -4 -3 -3 -4 -6 -5 -5 -3 -3 -3 -4 -5 -7 -6 -6 -6 -8 -8 -11 -9 -8 -4 -4 -6 -4 -4 -3 -4
6 4 6 2 1 -0 -4 -6 -4 -2 -2 -6 -10 -7 -6 -7 -9 -8 -7 -11 -11 -13 -14 -12 -8 -7 -7 -11 -11 -6 -7 -11 -10 -11 -15 -11 -7 -7 -6 -5 -5 -8 -6
2 -1 -1 -2 -3 -9 -9 -8 -9 -12 -12 -13 -13 -13 -8 -10 -10 -16 -18 -18 -15 -15 -11 -13 -12 -11 -13 -14 -11 -9 -12 -13 -15 -16 -12 -13 -12 -13 -10 -8 -9 -6 -7
3 1 -1 -3 -6 -9 -12 -15 -19 -18 -19 -19 -21 -22 -19 -14 -15 -20 -16 -14 -13 -10 -9 -11 -10 -11 -11 -7 -7 -11 -15 -14 -15 -18 -16 -11 -11 -11 -11 -10 -10 -7 -5

GFSGL_sfc_dewp_093.txt.gz
Dewpoint
56 56 57 56 57 57 56 56 56 56 57 58 57 57 56 56 56 55 55 53 54 54 55 54 53 53 53 53 54 54 53 53 51 50 50 54 54 55 54 55 53 53 52
55 55 55 56 57 57 57 57 57 57 57 57 57 57 56 57 57 57 56 55 55 53 53 56 55 54 54 54 53 53 54 54 51 50 51 52 55 55 53 52 52 52 52
55 55 55 56 56 56 58 57 57 57 56 56 56 56 56 56 56 56 55 55 55 56 55 55 55 56 56 55 55 54 54 53 53 53 52 53 53 55 54 54 53 53 53
56 56 55 55 56 57 57 57 57 57 57 56 55 55 55 55 55 55 55 55 55 55 56 57 56 56 56 57 56 56 55 55 55 53 53 53 53 54 55 54 54 55 55
56 56 56 56 57 57 57 57 57 57 57 57 57 56 56 55 54 55 55 55 55 55 56 55 56 55 50 53 54 56 56 55 54 53 53 53 53 53 53 53 53 53 54
43 44 46 48 48 48 50 55 57 57 57 57 57 56 57 55 48 45 51 55 54 54 55 55 56 50 51 45 46 46 52 55 54 52 51 50 50 50 51 52 52 51 50
37 37 39 41 42 42 44 45 45 46 49 51 52 54 56 48 36 39 42 53 53 53 53 53 53 53 50 54 47 43 44 43 44 52 51 51 51 51 51 51 51 51 50
33 32 34 36 37 38 39 39 41 43 45 46 41 39 42 35 35 35 35 44 52 54 54 53 53 53 53 52 52 52 51 51 49 48 50 52 50 44 46 50 51 51 50
30 30 31 33 33 34 35 36 38 41 41 38 36 34 35 33 34 34 35 42 48 51 53 46 38 41 36 39 48 51 50 49 36 39 34 33 33 32 33 38 41 39 45
29 30 31 31 31 32 33 34 36 36 35 33 31 31 31 31 33 33 35 40 42 38 34 32 32 34 34 35 41 43 45 44 33 31 29 29 29 29 29 29 31 34 35
28 28 29 29 30 31 32 32 33 33 32 31 30 30 29 30 31 31 32 33 34 31 30 29 29 31 31 32 33 34 34 32 30 28 27 26 25 25 24 24 25 26 26
27 25 25 26 27 28 30 30 30 30 30 29 29 29 29 30 29 29 29 29 29 28 27 28 28 28 28 27 28 28 28 27 26 23 23 22 23 23 23 23 23 23 23
26 24 24 24 24 25 27 28 28 28 28 27 27 26 27 28 29 27 27 27 26 27 27 26 25 25 25 25 24 24 24 23 23 20 20 21 24 25 27 26 25 24 23
25 25 24 23 23 23 24 25 26 26 26 25 25 26 26 27 27 28 28 28 26 26 25 25 24 24 23 24 26 26 26 26 24 24 23 24 24 22 23 24 23 22 20
23 23 23 23 22 22 24 25 25 27 26 25 26 26 26 26 27 25 26 27 26 24 25 25 24 24 23 23 23 23 24 24 23 23 23 22 21 21 20 21 18 17 15
22 22 23 22 21 21 20 20 23 24 25 25 26 26 27 26 25 24 23 22 21 21 23 22 22 21 21 21 20 20 20 19 20 20 20 18 17 16 15 14 14 14 12
22 22 20 20 19 19 19 19 18 18 19 20 23 23 23 23 22 21 20 20 19 20 20 19 19 19 19 18 17 17 16 15 15 15 15 15 14 12 13 12 12 10 8
19 17 19 19 19 18 18 18 17 18 17 16 16 18 19 20 19 18 17 18 18 17 16 16 16 16 15 14 13 12 12 13 12 11 13 13 13 12 11 9 9 10 7
19 18 18 18 17 16 17 16 16 15 14 14 15 14 12 14 15 15 15 15 14 14 13 13 14 13 13 12 13 12 12 12 12 12 12 11 12 10 9 8 8 6 6
17 15 16 17 17 16 15 14 13 12 11 10 10 10 12 11 11 10 10 11 11 10 11 10 10 10 10 10 11 11 11 10 10 9 10 10 10 9 7 7 8 7 4
18 16 14 16 15 14 13 12 11 10 8 8 7 7 4 8 7 7 6 7 7 7 8 8 8 8 8 8 6 7 6 8 6 7 8 7 8 7 6 6 6 5 3
15 14 14 13 12 12 10 9 9 7 6 5 6 4 3 7 5 4 4 5 6 6 6 6 5 4 3 3 4 5 3 3 4 5 5 5 6 6 6 5 5 5 4
12 12 10 10 9 8 9 7 7 6 5 5 4 4 4 5 4 4 4 4 4 4 4 4 3 2 2 2 3 3 1 0 1 2 4 5 5 6 6 6 4 4 4
10 11 8 8 8 7 8 7 6 3 4 4 5 4 3 3 3 2 2 3 3 3 3 2 1 -0 -0 1 3 2 0 0 1 1 -0 2 3 4 5 4 4 2 3
9 8 8 7 6 6 6 5 5 5 4 4 4 3 2 3 1 2 2 2 1 2 1 1 1 -0 -1 -3 -2 -2 -3 -4 -3 -5 0 -1 -1 -2 1 3 2 3 1
7 6 6 6 5 5 4 4 3 3 3 3 2 2 2 0 -0 1 0 -1 -0 -1 -1 -0 -1 -2 -3 -4 -2 -3 -5 -5 -4 -7 -2 0 1 2 2 1 -6 3 0

GFSGL_sfc_dewp_096.txt.gz
Dewpoint
57 57 57 57 57 58 57 58 57 58 58 58 58 57 55 54 53 53 52 52 52 53 53 54 54 54 53 55 57 57 55 54 51 51 51 51 53 53 53 54 54 54 52
57 56 57 56 57 57 57 57 57 57 57 58 58 57 56 55 54 51 51 51 51 50 51 53 53 53 54 54 54 54 53 54 53 51 52 52 53 54 55 54 52 51 54
57 57 57 55 56 56 57 58 58 58 58 58 58 57 57 57 56 55 54 53 53 53 53 51 51 53 53 54 54 53 53 53 54 54 54 53 53 53 53 55 56 56 53
56 56 55 55 55 56 57 57 57 57 57 57 57 58 58 57 57 57 57 57 57 56 56 55 54 53 54 56 56 56 56 57 56 55 54 53 54 54 55 54 55 55 55
53 53 55 56 56 56 57 56 57 58 57 56 56 56 57 57 55 57 56 56 56 56 56 56 57 55 51 52 55 56 56 57 56 56 54 54 54 53 53 54 54 55 56
41 42 44 46 47 48 49 50 53 54 56 57 57 57 56 44 36 38 46 56 56 55 55 56 56 51 51 45 44 45 51 55 54 54 53 53 54 54 55 55 55 53 51
38 37 38 39 41 43 44 44 45 47 48 46 45 41 38 36 35 36 36 48 55 56 56 55 55 54 51 55 49 44 44 43 42 52 53 54 53 53 53 53 53 53 53
36 35 36 37 37 39 39 41 43 43 41 39 38 39 36 33 34 34 34 44 48 51 49 42 43 46 42 40 49 53 52 51 50 50 51 46 37 35 38 42 43 44 46
31 32 34 35 36 37 37 39 40 39 36 34 34 34 33 32 33 33 37 43 41 37 33 33 34 34 34 35 41 46 48 43 34 33 33 32 30 30 31 38 38 36 41
30 30 32 32 33 33 35 37 37 34 33 32 31 32 32 31 31 32 37 40 36 33 30 30 30 31 31 32 37 39 39 33 33 31 28 27 26 26 26 27 28 33 35
28 29 29 30 31 32 33 34 34 34 33 33 32 32 31 30 30 30 32 34 33 30 29 28 29 28 29 29 30 30 30 29 27 26 26 25 25 24 24 25 26 26 26
28 27 27 28 29 30 30 31 32 32 32 32 31 31 31 31 29 29 29 29 30 29 29 29 29 27 27 27 27 27 26 26 26 25 25 24 25 25 26 26 27 28 28
26 25 25 25 26 27 28 29 29 29 30 29 28 29 29 30 30 28 26 26 27 29 28 27 26 26 27 28 26 28 29 30 28 27 26 26 27 29 31 31 30 29 26
25 24 24 23 23 24 25 25 26 28 27 27 28 28 28 28 29 30 30 30 28 29 28 30 28 27 27 27 29 30 30 30 29 27 27 28 28 27 26 26 26 26 25
24 23 24 23 22 22 23 24 24 27 27 27 27 27 27 26 26 25 27 28 29 28 31 32 30 29 28 26 26 26 26 26 25 26 25 25 25 25 23 23 21 20 18
24 24 25 25 24 23 21 21 23 23 24 24 25 26 26 24 23 23 23 23 24 26 28 27 25 25 24 24 24 23 23 21 22 22 22 21 19 19 18 17 17 16 14
26 25 24 24 24 23 24 24 21 21 20 21 22 22 22 22 21 21 22 22 23 24 25 24 23 23 22 21 21 20 19 18 18 18 18 18 17 15 16 15 16 14 11
25 23 26 25 25 25 25 24 24 24 22 21 18 19 19 19 20 20 21 22 24 22 21 20 20 20 18 16 15 15 16 17 17 15 17 17 18 16 15 12 13 14 11
25 24 25 24 24 24 24 24 24 23 22 21 21 19 17 16 17 17 18 21 19 17 16 15 17 16 16 15 17 17 16 16 16 17 16 15 17 15 13 13 12 9 10
23 20 22 24 23 23 23 22 21 20 19 18 16 15 18 18 18 17 17 18 16 15 15 13 13 14 14 14 16 16 16 15 14 14 15 15 15 14 12 11 12 11 8
23 21 19 21 21 20 20 19 18 17 16 14 12 11 9 13 13 13 12 13 13 13 14 12 13 13 13 13 11 13 11 13 11 11 12 12 13 13 11 11 11 9 7
20 19 18 18 17 18 16 15 15 13 11 11 11 9 8 13 12 11 11 12 12 11 11 11 10 9 8 9 9 11 9 9 9 10 10 9 10 11 11 10 10 10 8
17 17 15 14 14 13 14 12 13 13 12 12 10 10 11 11 11 10 10 11 9 10 9 9 9 7 8 8 9 8 7 6 7 6 8 9 9 10 11 10 8 8 8
15 15 12 13 14 13 14 14 11 7 9 11 12 10 9 9 10 8 8 8 8 9 8 7 5 3 3 6 8 7 4 4 5 6 4 6 7 7 9 7 7 5 7
15 14 14 13 13 13 12 11 11 11 11 11 10 10 8 9 7 8 8 7 5 7 2 5 5 3 1 -1 1 1 -1 -2 -0 -1 5 5 5 4 5 6 5 6 5
10 10 11 11 11 11 11 11 10 10 10 10 10 9 8 7 6 8 6 3 4 4 -0 5 3 -1 0 -3 -2 0 -3 -3 -2 -3 0 5 5 5 6 5 3 6 5

GFSGL_sfc_dewp_099.txt.gz
Dewpoint
59 58 59 58 57 57 58 59 58 59 59 58 57 57 56 55 55 54 55 53 54 54 54 54 53 55 55 55 56 55 54 54 52 51 50 53 53 54 54 55 55 56 55
58 58 58 58 57 57 58 58 59 59 59 59 58 57 56 55 55 54 54 52 51 52 52 52 52 50 53 55 54 56 56 55 53 53 52 51 53 52 53 53 51 50 54
58 57 57 57 56 57 58 58 58 58 57 58 58 57 56 55 55 55 54 54 53 53 53 53 52 53 53 53 53 53 53 51 53 52 51 51 52 54 55 56 55 56 54
57 57 57 57 57 57 57 57 58 57 57 57 58 57 57 57 55 54 53 53 54 54 55 54 54 53 51 52 51 52 53 54 53 53 52 52 53 55 56 55 55 55 55
47 50 53 57 56 57 57 58 57 57 58 58 58 58 58 57 48 50 55 55 56 55 56 55 55 53 48 49 51 52 54 54 55 54 54 55 55 55 55 56 55 55 56
40 41 45 47 46 47 50 51 56 56 55 54 50 54 44 37 36 37 40 56 57 56 56 57 56 51 51 46 45 45 50 55 55 54 54 54 55 56 56 56 55 54 53
38 38 39 42 43 43 45 45 44 44 43 44 41 38 36 35 34 35 35 48 56 55 49 50 52 45 41 43 45 43 43 42 39 50 52 52 52 43 43 50 52 53 52
35 36 38 39 39 40 41 41 39 38 37 38 37 36 34 33 34 35 35 46 42 37 36 37 38 37 34 36 41 46 46 35 37 37 35 32 31 31 34 39 40 41 43
33 34 35 37 37 39 38 38 37 35 34 34 35 35 33 32 33 35 42 40 35 33 32 32 33 32 32 35 42 45 37 32 32 31 30 29 29 29 29 36 33 35 37
32 33 34 34 35 35 37 37 36 35 34 34 33 32 33 31 31 33 38 37 33 31 30 30 30 30 30 32 35 38 30 29 28 28 27 27 27 27 28 28 28 32 32
32 30 32 33 33 34 34 35 36 36 35 34 33 33 30 30 30 31 33 33 32 30 29 29 30 29 29 29 30 31 29 29 28 28 27 27 28 27 27 28 28 28 28
32 31 28 29 30 31 32 33 33 34 33 33 32 31 32 30 29 29 29 30 31 30 30 30 30 28 29 29 29 28 28 29 30 28 28 28 28 28 29 29 30 29 28
27 27 29 28 27 27 29 30 31 31 31 30 30 29 29 31 32 29 28 28 28 29 29 28 28 28 28 28 28 29 30 32 32 30 28 28 29 30 32 32 33 32 28
26 25 24 24 25 25 25 26 26 29 29 29 29 28 28 27 28 31 31 31 30 31 30 31 29 28 28 28 30 30 30 30 30 29 28 29 30 29 27 28 27 27 25
25 25 25 24 22 21 22 24 24 26 26 27 26 26 26 25 26 26 28 30 31 30 31 31 30 30 27 28 27 27 28 28 27 28 27 26 26 26 23 23 22 20 19
25 25 26 26 25 23 21 20 23 24 24 24 25 26 25 24 24 25 25 26 26 28 28 27 27 27 25 25 25 24 23 22 23 22 23 21 19 19 19 18 18 17 14
26 26 25 25 25 25 26 25 22 21 21 22 22 23 23 22 22 23 23 23 25 26 25 24 25 24 23 21 21 20 19 19 20 19 19 19 19 17 17 16 17 15 13
26 26 26 26 26 26 26 25 26 25 23 22 20 20 20 20 21 22 23 23 23 22 21 20 20 20 18 16 16 16 16 18 18 16 18 18 19 17 17 13 12 14 13
25 26 26 25 25 26 26 25 25 24 23 23 23 21 21 19 19 19 20 21 19 17 16 16 18 17 17 16 19 18 18 17 17 18 17 17 18 16 14 14 15 12 12
23 23 25 26 25 25 24 23 22 22 21 19 17 17 20 19 19 19 19 19 18 17 16 14 14 15 16 16 17 17 17 16 15 15 16 16 17 15 14 13 13 12 10
24 23 22 23 22 22 22 21 20 20 18 16 13 14 12 16 16 15 15 16 15 15 15 13 14 14 13 13 13 14 12 14 12 13 13 13 15 13 12 13 12 10 9
20 19 18 18 18 19 18 17 17 15 14 14 14 12 12 16 14 13 13 14 14 13 13 13 12 10 10 10 11 13 11 10 10 10 11 11 11 12 12 12 11 11 10
17 18 16 15 15 15 17 15 16 16 15 14 13 13 13 14 13 12 12 13 12 12 10 10 10 9 10 11 11 10 8 7 8 8 7 9 10 10 11 11 9 9 8
16 16 12 15 16 16 17 16 14 10 12 14 14 13 12 12 12 11 11 10 11 10 10 10 8 5 4 7 8 7 3 3 4 5 5 7 8 8 8 8 8 8 8
16 16 15 15 15 15 15 14 14 13 13 13 13 13 11 11 10 10 10 8 6 8 7 7 6 4 4 2 3 2 -1 -1 -0 -1 3 6 7 5 7 6 7 6 7
12 12 13 14 13 13 13 13 13 12 12 12 12 12 11 9 8 9 7 5 5 5 2 6 5 2 2 4 2 0 -2 -2 -2 -3 -1 3 6 6 7 7 7 6 5

GFSGL_sfc_dewp_102.txt.gz
Dewpoint
59 59 60 60 58 59 59 59 59 60 59 58 57 57 56 57 57 57 57 57 56 56 56 56 56 55 53 54 55 55 54 54 52 51 51 53 54 54 54 54 56 56 56
59 59 59 59 58 58 59 59 60 59 58 57 58 56 56 56 56 56 55 56 55 55 56 55 55 54 54 55 55 55 54 53 52 50 52 52 51 51 52 53 52 52 53
59 59 58 58 57 57 58 59 59 59 58 58 57 57 56 55 55 55 55 54 54 54 54 54 53 52 51 51 52 53 54 54 53 52 51 51 52 51 51 51 52 52 51
58 58 57 57 57 57 59 59 58 58 58 58 58 57 56 55 55 55 55 54 53 53 53 53 53 53 52 51 51 51 51 53 52 52 52 51 51 51 52 51 51 53 54
42 44 48 54 57 58 58 58 58 57 57 58 58 57 55 53 43 49 54 54 54 53 54 54 53 52 49 51 51 52 52 50 51 51 51 51 52 53 53 55 55 55 55
38 39 41 44 46 49 50 53 52 50 49 47 47 43 40 36 36 37 41 54 54 54 55 55 55 49 48 43 42 42 47 51 51 52 52 54 54 54 52 52 52 52 51
36 37 38 39 40 42 42 42 42 43 42 40 38 37 35 35 35 37 36 49 45 43 42 44 45 40 38 41 42 41 37 37 36 47 50 48 43 36 38 44 48 47 46
35 35 37 37 38 37 37 37 36 37 37 36 35 34 34 33 35 37 39 39 36 34 35 35 35 34 34 36 40 38 34 32 33 33 33 32 31 31 33 37 39 40 41
33 34 35 36 35 35 35 35 35 34 33 33 33 32 32 32 35 37 36 35 33 32 32 33 32 32 33 36 42 35 31 30 32 32 31 30 30 30 30 36 32 34 34
32 32 34 35 36 34 33 33 35 33 33 32 31 31 32 31 34 36 35 34 32 31 31 31 31 31 32 34 34 32 28 28 28 28 28 28 29 29 29 29 29 30 29
33 33 33 33 33 33 33 34 33 33 33 32 31 31 30 31 32 33 34 33 31 30 29 29 30 31 30 30 30 29 28 29 28 28 29 29 29 29 28 28 28 27 27
31 32 31 31 31 32 33 33 33 33 32 32 31 31 31 30 30 31 31 31 31 29 29 29 29 29 30 30 30 30 30 30 30 29 28 27 27 28 28 24 23 23 23
28 27 26 26 28 29 28 28 31 31 31 30 28 27 27 28 31 29 29 29 29 28 28 29 29 29 29 28 29 29 29 29 28 27 26 27 28 29 28 30 27 24 20
27 25 25 23 23 24 25 25 25 27 26 26 26 25 25 26 27 30 30 31 31 30 30 29 28 27 26 26 27 28 28 28 28 27 27 28 28 26 23 22 21 22 20
27 26 25 24 21 21 23 23 24 25 26 24 24 24 24 24 27 29 29 29 30 29 28 28 27 26 26 25 24 24 24 25 25 26 25 23 20 21 19 21 21 21 17
27 27 28 29 26 21 20 20 24 24 24 25 25 24 26 25 26 27 27 27 27 27 26 24 24 24 23 22 22 20 20 19 21 21 19 20 19 19 20 20 21 18 15
27 27 27 27 26 26 28 23 19 21 22 22 23 23 24 25 26 25 24 24 25 24 23 22 21 20 19 19 19 18 18 19 19 19 18 19 19 19 17 15 16 17 17
27 26 26 27 27 26 26 26 26 24 21 21 21 20 21 21 22 24 23 22 20 19 19 19 18 19 18 17 17 17 16 16 17 17 16 15 15 16 15 16 14 9 14
25 27 27 27 27 27 27 26 25 24 21 20 20 22 23 20 20 20 20 19 17 16 16 15 16 16 17 16 17 16 13 12 11 10 11 13 11 13 10 12 12 9 9
25 23 26 26 26 25 25 24 23 22 18 15 14 14 19 18 16 16 16 16 15 15 15 14 14 15 14 16 12 12 13 9 11 11 10 7 8 11 10 9 8 7 10
25 24 23 23 23 23 22 21 21 20 16 13 12 12 12 15 14 14 13 14 14 14 14 12 11 10 12 10 13 10 9 8 8 10 10 9 8 6 10 9 8 11 12
21 21 20 20 19 19 19 19 19 17 16 15 14 13 12 15 13 13 12 11 10 12 13 12 11 11 9 10 9 8 8 6 6 3 5 8 10 10 9 11 7 4 9
19 19 18 18 18 17 17 16 17 17 15 15 14 14 13 12 11 12 10 11 11 9 7 7 5 5 6 10 10 5 2 1 3 4 0 4 6 8 7 9 5 5 1
18 18 15 16 16 16 18 17 13 9 14 15 14 13 12 10 11 8 6 6 10 5 4 6 6 2 1 1 3 2 -0 -4 -0 -2 -3 3 5 3 -0 1 5 -1 3
17 17 17 17 16 17 16 15 14 14 14 13 13 12 12 11 10 10 8 5 3 5 6 6 1 1 -2 1 -1 -3 -7 -6 -9 -8 -5 -4 1 -2 3 4 5 1 -2
14 14 15 15 15 14 14 14 13 12 11 10 11 10 9 9 7 7 5 4 0 2 2 3 3 -3 -2 1 -2 -5 -7 -6 -10 -10 -9 -3 1 1 1 -4 -4 1 1

GFSGL_sfc_dewp_105.txt.gz
Dewpoint
58 58 58 59 60 59 59 59 58 58 58 58 57 57 57 57 57 58 57 58 58 58 58 57 57 56 56 55 54 55 54 54 52 52 52 53 54 55 56 56 56 56 55
50 58 58 58 59 58 59 59 58 58 58 58 57 57 56 56 57 57 56 57 56 56 57 57 56 56 54 54 55 54 54 55 53 51 51 51 52 53 54 54 53 55 56
45 58 58 58 58 58 58 59 59 58 58 58 57 56 56 56 56 56 56 56 56 56 56 56 56 56 55 54 54 54 54 54 53 52 51 52 52 52 52 51 52 52 51
42 45 49 57 58 59 59 59 59 58 57 57 57 56 56 56 56 56 56 56 55 56 56 56 55 55 55 54 53 52 52 53 52 51 51 51 51 51 51 50 50 52 52
38 39 42 46 52 53 55 58 59 59 58 58 57 56 55 54 49 55 55 55 54 54 55 54 55 53 49 50 53 52 51 51 50 50 50 51 51 51 51 52 54 55 53
36 38 38 40 41 43 45 46 48 47 46 44 44 42 40 38 36 38 47 55 55 54 53 54 54 47 46 41 41 40 44 52 50 50 49 49 50 53 48 51 51 50 48
34 35 37 38 38 39 38 38 38 39 38 37 37 36 36 37 37 38 38 48 46 44 43 46 43 39 39 43 37 36 35 35 33 44 50 46 41 36 37 42 45 46 44
33 33 35 37 37 36 37 37 35 35 35 34 34 35 36 37 37 37 36 36 35 34 35 35 35 35 35 40 37 34 33 33 33 33 32 32 32 32 33 37 39 40 35
32 32 33 33 35 35 35 35 35 33 32 31 32 32 33 35 36 35 34 33 31 31 32 33 33 33 35 39 35 31 30 30 33 33 33 33 32 31 32 36 32 34 33
31 31 32 33 33 33 33 33 34 33 31 31 30 31 32 32 35 35 34 33 31 30 31 31 32 32 33 34 34 32 29 28 29 29 29 30 30 29 28 29 28 27 30
31 30 31 31 31 32 32 33 33 33 32 31 30 30 30 31 32 34 33 32 30 29 29 30 31 32 32 32 32 31 29 30 29 29 29 29 29 28 26 26 24 23 22
27 27 27 29 29 29 29 32 32 31 30 29 28 28 30 30 32 32 32 31 31 29 28 30 30 31 31 32 31 31 30 30 29 27 26 26 27 28 22 19 19 21 22
24 24 24 25 26 27 26 27 28 28 28 27 26 26 27 29 31 32 31 30 29 28 29 30 29 29 29 28 29 29 29 28 26 25 25 26 25 25 24 26 23 21 19
24 23 22 22 22 23 24 24 25 25 24 25 24 24 26 28 29 30 30 30 31 30 29 28 26 26 25 25 25 26 27 27 26 25 25 25 24 22 21 20 19 17 17
27 28 23 21 20 22 23 23 24 26 25 23 24 25 25 26 29 31 30 29 29 28 27 27 26 25 23 22 22 22 23 23 22 22 20 18 18 19 20 21 20 18 15
27 27 27 26 22 20 20 21 24 24 25 26 26 25 27 28 29 29 28 28 27 26 24 22 21 21 20 20 20 19 20 20 20 20 19 20 18 17 18 18 18 17 14
25 26 26 26 26 26 20 19 18 21 22 23 24 24 25 28 26 24 24 24 24 22 20 19 18 18 18 18 17 17 17 19 19 18 17 17 17 17 15 14 14 15 15
26 25 24 26 26 25 24 23 22 16 15 18 23 22 22 23 23 22 21 19 17 18 17 17 17 17 18 18 17 16 15 15 15 15 14 15 13 15 14 13 13 9 13
22 25 26 20 20 23 19 20 20 17 14 12 14 16 19 19 20 20 19 16 15 15 15 14 14 15 15 14 14 12 10 11 10 9 8 10 6 10 9 10 10 6 8
20 20 22 21 20 18 17 18 16 13 11 9 10 10 13 13 11 11 12 12 13 13 12 11 11 11 11 12 8 8 9 8 8 9 6 7 6 7 5 6 6 4 9
18 15 18 17 15 18 16 16 17 10 5 3 3 4 10 11 10 7 9 9 10 11 10 9 7 7 8 9 10 6 5 3 4 4 4 6 7 2 8 8 4 9 9
17 19 18 14 15 15 17 15 13 13 13 8 5 10 10 8 8 7 5 2 -1 6 8 6 5 5 8 6 3 -2 -4 -5 -1 -2 -2 1 6 3 5 7 3 -1 4
17 14 15 15 19 13 8 11 12 10 7 7 7 7 5 2 3 4 7 5 2 2 -1 -1 -3 -1 3 2 -2 -2 -7 -9 -4 -11 -10 -7 3 -3 -6 -3 1 -1 0
14 14 17 9 7 8 8 -0 0 6 11 8 3 -0 -0 2 -1 -6 -9 -3 -1 -10 -7 -5 -4 -4 -4 -10 -9 -7 -5 -11 -10 -11 -15 -13 -5 -0 -6 -3 -3 -7 -7
9 11 10 10 8 11 8 8 3 5 0 2 3 2 6 6 7 -3 -9 -10 -7 -10 1 -8 -8 -7 -3 -8 -9 -9 -10 -10 -15 -13 -13 -13 -10 -1 -2 -4 -8 -4 -6
8 7 8 8 6 2 5 6 4 1 1 2 3 2 2 -0 -5 1 -6 -9 -10 -3 -1 -2 -7 -5 -5 -5 -6 -9 -12 -12 -15 -13 -17 -11 -10 -13 -13 -12 -9 -10 -5

GFSGL_sfc_dewp_108.txt.gz
Dewpoint
45 54 60 60 59 59 59 59 59 58 58 57 57 58 58 58 58 58 58 59 58 58 59 58 57 57 56 55 55 55 55 54 51 52 52 53 55 55 56 55 56 56 54
43 47 58 59 58 58 59 59 58 58 57 57 57 57 56 57 57 57 57 58 58 58 58 58 57 57 56 56 55 54 54 54 52 51 52 52 52 55 55 55 56 56 56
40 42 46 49 58 58 58 58 58 58 57 57 57 57 56 56 57 57 57 57 57 57 57 57 57 57 56 56 56 55 54 54 54 52 51 53 53 53 52 53 52 53 53
38 40 40 42 47 56 58 59 58 58 57 57 57 57 57 57 57 56 56 56 56 56 56 57 57 57 56 55 55 54 54 54 53 53 52 52 52 52 51 51 50 51 51
36 37 38 40 41 44 50 59 59 58 58 58 57 56 56 55 48 54 56 56 56 56 56 56 56 55 51 53 55 55 53 53 53 52 51 49 49 50 49 51 51 52 49
35 35 36 37 38 39 40 44 45 45 44 44 43 42 42 40 37 38 43 55 55 55 54 55 55 49 44 42 40 38 47 53 52 51 50 48 48 50 48 51 52 52 49
32 34 34 35 35 36 37 36 37 38 40 38 38 39 39 38 38 39 41 47 44 43 43 48 43 40 42 39 36 35 35 34 34 47 49 45 44 38 39 42 45 46 43
31 31 33 34 33 34 34 33 33 33 34 34 35 36 36 35 36 36 36 36 35 35 35 36 37 37 37 39 36 34 33 33 33 33 34 32 33 33 35 38 40 37 34
28 29 31 32 33 33 33 32 32 33 31 32 32 33 33 34 35 35 34 33 32 32 33 34 34 35 37 37 35 32 31 31 33 33 33 32 31 32 34 36 33 34 32
27 28 30 31 30 32 32 32 32 32 31 31 31 31 33 32 34 34 33 32 31 31 31 32 33 34 35 34 32 31 28 29 29 30 30 29 28 29 29 30 31 32 30
27 27 28 28 29 30 31 32 32 31 30 30 29 30 31 31 33 34 33 31 30 30 29 30 32 33 33 32 32 30 29 30 30 29 29 29 27 25 26 26 25 26 25
24 24 25 26 27 28 29 29 29 29 28 28 28 28 29 30 31 32 32 31 31 29 28 29 31 31 32 31 31 31 30 29 28 27 27 26 27 24 22 22 22 22 22
22 22 23 24 24 25 26 26 26 27 26 26 27 27 28 29 30 31 31 31 30 28 29 29 29 29 29 29 29 29 28 28 27 25 24 23 22 20 25 25 24 23 22
24 20 21 22 22 23 23 24 24 24 24 25 25 26 27 28 29 29 29 30 29 28 27 26 26 25 24 25 25 25 25 25 24 23 22 22 21 22 21 21 22 21 17
26 26 22 20 20 21 24 24 24 26 26 24 24 26 26 27 29 30 29 28 27 27 26 25 24 22 21 21 21 21 22 22 21 21 21 21 20 20 20 21 20 17 15
24 25 26 23 20 20 20 21 25 26 27 27 28 26 28 28 28 28 28 28 26 25 22 20 19 19 19 19 19 19 19 19 20 19 19 19 18 18 17 17 18 17 14
23 25 25 25 25 20 19 19 17 20 24 24 26 26 28 24 24 24 24 23 22 21 18 18 17 17 17 17 17 17 17 18 18 17 17 17 18 17 16 15 15 15 14
20 21 19 18 19 19 16 15 12 11 10 11 18 23 23 23 22 21 20 19 16 17 16 16 15 16 17 16 15 15 14 13 13 13 13 12 13 14 13 12 11 10 13
21 22 20 17 16 15 15 12 9 8 7 8 10 14 15 19 19 19 18 14 13 13 13 12 13 13 13 12 10 10 9 9 8 8 8 8 3 9 9 10 10 8 8
14 16 14 12 14 15 14 11 8 7 7 7 8 4 7 10 8 8 9 10 9 9 9 9 10 9 9 9 4 4 6 5 5 5 3 2 2 6 5 4 4 6 8
14 12 11 13 13 13 12 10 6 4 4 7 6 2 5 7 3 2 5 5 7 7 6 7 6 6 7 6 4 1 -1 -3 -1 -1 0 2 -2 1 5 3 3 7 7
15 17 16 13 13 13 12 12 10 8 7 7 4 8 4 1 4 3 -0 -5 -6 2 3 -1 2 4 2 -1 -3 -10 -10 -10 -10 -8 -6 -4 -1 -1 2 1 -1 -2 2
14 11 13 14 15 8 6 12 7 4 7 2 2 3 1 -4 -4 -0 -2 -11 -5 -6 -6 -5 -5 -2 -5 -10 -9 -8 -9 -11 -12 -16 -15 -11 -4 -4 -10 -5 -4 -6 -6
11 10 15 8 5 6 -0 -6 0 6 4 -2 -8 -7 -6 -11 -14 -12 -13 -12 -13 -14 -15 -12 -6 -5 -7 -16 -14 -10 -8 -16 -14 -16 -19 -18 -10 -3 -9 -7 -6 -10 -10
3 4 8 6 6 5 5 3 0 -1 2 2 3 -1 2 -3 -6 -15 -16 -14 -13 -13 -9 -12 -11 -7 -11 -13 -12 -10 -12 -14 -18 -16 -17 -14 -15 -15 -12 -11 -13 -8 -10
5 3 3 6 2 2 2 1 -1 0 -0 -2 -5 -6 -7 -8 -8 -13 -15 -13 -11 -8 -6 -10 -10 -8 -10 -10 -10 -11 -15 -13 -17 -17 -22 -15 -17 -17 -17 -15 -12 -13 -8

GFSGL_sfc_dewp_111.txt.gz
Dewpoint
41 43 47 55 57 62 61 60 59 59 59 58 58 57 57 57 57 57 57 58 58 58 59 58 57 57 56 56 56 56 55 54 50 52 52 54 55 54 54 54 54 54 53
40 42 43 46 49 59 60 60 59 59 59 58 58 57 57 57 57 57 57 58 58 58 58 58 57 57 56 56 56 55 55 55 53 51 52 52 53 55 56 56 56 55 56
38 39 41 42 43 46 52 59 59 59 58 58 58 57 57 57 57 57 57 57 58 58 58 58 57 57 56 56 55 54 54 55 54 52 52 53 53 53 53 54 54 55 54
36 37 38 39 41 41 43 47 58 58 58 57 57 57 56 56 56 56 57 57 57 57 58 58 57 57 56 56 56 55 55 54 54 54 53 53 53 53 53 52 52 51 50
33 35 36 37 38 38 38 38 41 57 58 57 57 57 57 56 54 56 56 56 56 56 56 56 57 55 51 53 56 56 55 54 54 53 52 51 51 51 51 52 51 52 48
32 32 34 35 36 36 36 36 36 37 41 47 47 47 45 41 38 39 46 56 56 56 55 56 56 49 48 45 45 47 52 54 53 53 52 51 51 51 51 52 51 50 47
30 31 32 34 34 34 34 34 34 34 34 35 37 39 38 38 38 40 41 49 48 46 47 52 46 43 44 41 36 36 35 35 36 51 52 51 49 45 45 45 47 48 44
29 29 30 31 32 32 33 33 33 33 33 32 33 34 35 35 35 36 36 37 36 35 36 38 40 40 40 40 37 34 33 33 34 34 35 33 33 35 38 40 42 36 33
27 27 28 30 30 31 31 31 32 32 32 32 32 32 33 33 35 34 34 34 32 32 33 35 36 37 37 38 34 32 31 31 33 32 32 32 32 33 35 37 34 35 32
25 26 27 28 28 29 30 30 31 31 31 31 30 31 32 32 34 34 33 32 31 31 31 32 34 34 34 34 32 31 29 29 30 29 28 28 29 29 29 29 32 33 30
24 24 25 25 27 27 28 29 29 29 29 29 29 30 30 31 32 33 33 32 31 30 30 30 32 33 33 33 32 31 30 31 30 29 28 26 26 26 26 26 27 29 29
23 23 23 23 25 25 26 26 27 28 27 28 28 28 29 30 31 32 31 31 31 29 28 29 31 31 31 31 30 30 30 29 29 27 27 24 23 22 23 23 24 23 23
21 21 22 23 24 24 24 24 24 26 26 27 27 27 27 29 29 31 31 30 29 27 28 28 29 29 29 28 29 29 29 27 26 24 23 23 23 26 26 23 22 23 21
24 21 20 21 22 23 23 24 24 24 24 25 25 26 27 28 28 28 28 28 28 27 26 25 25 25 24 24 25 25 25 25 23 22 21 22 23 22 21 22 19 19 17
24 24 21 20 20 20 23 25 24 27 27 25 25 27 26 26 28 29 28 26 25 25 24 23 22 22 21 21 21 22 22 22 21 22 21 20 20 20 20 21 19 17 15
22 23 24 22 20 20 19 20 24 24 26 27 29 26 27 27 27 26 26 25 25 24 21 19 18 18 18 19 18 19 19 19 20 20 20 19 18 18 18 19 19 17 15
23 23 22 22 23 19 18 17 13 16 21 23 25 25 24 24 24 24 23 22 21 19 16 16 16 17 17 17 16 16 15 16 17 16 17 18 18 17 16 16 16 16 14
19 19 17 18 16 16 12 8 7 5 5 9 15 21 21 21 22 21 19 17 14 15 14 13 13 14 14 13 13 12 12 12 12 12 12 12 14 14 13 12 12 13 13
17 14 11 9 12 13 10 6 2 3 2 4 9 11 11 17 17 17 16 10 10 10 11 11 11 11 10 9 6 6 5 6 7 7 8 8 8 11 10 11 9 7 8
9 11 8 5 5 7 5 4 5 5 5 5 5 3 5 7 5 4 5 4 5 6 7 7 8 7 6 5 3 3 3 3 3 5 4 4 4 8 6 7 7 7 7
9 11 9 11 10 8 6 4 2 2 3 3 -1 -4 2 3 1 1 3 2 2 2 -0 3 2 2 3 1 1 -2 -4 -5 -2 -0 -0 1 -4 2 4 4 5 7 6
12 14 15 11 11 8 9 11 7 5 5 4 0 4 -0 -3 -1 -2 -4 -10 -12 -2 -0 -2 -0 -1 -3 -4 -6 -13 -12 -14 -12 -9 -6 -4 -3 -3 -1 -2 -4 -5 1
11 9 11 13 12 6 4 8 8 6 0 -4 -2 -0 -3 -9 -9 -5 -10 -16 -10 -11 -10 -7 -8 -7 -10 -13 -12 -11 -11 -14 -15 -19 -18 -16 -7 -8 -13 -8 -7 -7 -8
9 7 11 7 2 4 -7 -6 1 5 5 -3 -10 -9 -10 -13 -15 -14 -16 -17 -16 -19 -20 -16 -10 -9 -11 -19 -16 -12 -10 -18 -16 -18 -21 -18 -12 -7 -12 -9 -9 -13 -13
-1 -2 -0 2 2 -0 -1 1 -7 -7 -2 -3 -5 -8 -7 -12 -10 -17 -18 -16 -13 -16 -13 -15 -12 -12 -14 -16 -13 -12 -14 -16 -20 -19 -18 -16 -18 -17 -15 -13 -16 -10 -12
3 3 2 1 -2 -2 -2 -3 -4 -4 -9 -11 -9 -7 -8 -7 -10 -18 -17 -14 -12 -9 -11 -15 -13 -12 -14 -12 -11 -13 -15 -14 -19 -20 -24 -16 -18 -18 -18 -16 -15 -15 -10

GFSGL_sfc_dewp_114.txt.gz
Dewpoint
39 41 43 44 46 53 55 61 61 60 59 59 60 60 60 59 59 59 59 58 58 58 58 58 57 58 57 57 56 56 55 54 51 52 54 55 54 55 54 54 55 55 54
38 39 41 42 43 44 47 49 61 60 60 59 59 59 59 58 58 58 57 57 57 56 56 58 58 57 56 56 56 55 54 54 53 51 53 53 54 55 55 54 54 54 55
36 37 38 39 40 41 42 44 46 59 59 59 59 58 58 57 57 57 56 56 57 57 57 58 58 57 56 56 56 55 55 54 54 53 53 54 54 54 55 55 55 54 46
34 35 36 37 38 39 39 40 41 43 52 58 58 58 58 57 57 57 56 56 57 57 57 58 58 57 56 56 55 55 55 55 54 53 53 52 53 54 54 53 52 52 44
32 33 34 35 36 36 37 38 38 38 39 41 52 57 57 57 54 56 56 56 56 56 57 57 57 56 51 53 55 55 55 54 54 53 52 52 52 51 52 53 53 51 46
30 31 32 33 33 34 35 36 36 36 36 36 37 39 40 40 38 40 51 56 56 55 55 56 56 50 48 45 46 47 52 54 54 53 53 52 52 53 52 53 52 49 45
28 29 30 31 32 32 32 33 33 34 35 35 35 35 35 35 36 37 40 52 52 47 48 52 49 46 46 43 37 37 36 36 37 53 53 53 52 52 52 49 50 50 45
27 27 28 29 30 30 31 31 32 32 33 33 33 34 34 34 35 35 35 37 36 36 36 38 42 42 41 41 38 35 34 33 34 36 37 35 34 37 44 46 46 35 34
25 26 27 27 28 28 29 30 30 30 30 31 31 32 32 32 34 34 33 33 32 32 34 36 37 38 37 38 36 33 32 31 33 34 34 34 34 34 36 40 37 38 32
23 24 25 26 27 27 28 28 30 30 30 30 29 30 31 31 33 34 33 32 31 31 32 32 34 34 34 34 33 32 29 29 29 29 29 29 29 30 29 31 35 35 31
23 24 23 23 25 25 26 28 28 28 29 29 28 29 29 30 31 32 32 30 30 30 30 30 32 33 33 32 32 31 30 30 29 27 26 26 26 26 26 27 27 31 32
22 22 23 24 24 25 24 24 25 27 27 27 26 27 28 29 30 30 30 30 29 27 26 28 30 31 31 31 30 30 30 29 28 25 23 23 23 23 24 24 25 25 25
23 21 21 22 24 24 24 25 24 24 24 25 26 26 26 28 28 28 29 29 27 26 27 28 28 27 27 27 28 27 27 27 26 23 22 22 23 25 24 23 24 24 23
22 22 20 20 21 22 22 23 24 25 24 23 24 24 25 26 26 27 27 26 26 25 25 25 25 25 24 24 24 24 24 24 23 22 22 23 25 23 22 23 21 21 19
22 22 21 19 19 19 21 24 23 25 27 25 24 25 24 24 26 27 27 25 24 23 23 22 21 21 20 21 21 21 22 23 22 22 22 21 21 21 21 22 20 18 17
21 21 22 23 19 18 18 16 21 23 23 25 25 24 25 25 24 24 24 23 22 22 19 18 17 18 17 18 17 18 18 19 20 21 21 21 20 20 19 19 19 17 15
21 22 20 20 20 18 15 13 11 14 18 20 22 22 22 22 22 22 21 21 20 17 14 14 14 14 15 15 15 14 14 15 16 16 17 18 17 16 17 16 16 15 14
13 14 13 13 9 8 4 3 2 2 1 5 12 17 19 19 20 19 18 15 12 13 12 11 11 11 11 10 10 10 10 11 12 12 12 13 15 14 14 12 13 14 12
15 10 3 2 5 4 1 -1 -1 1 3 2 5 8 7 14 15 15 14 7 8 8 9 9 9 8 7 6 5 6 6 6 6 8 8 9 10 12 11 10 9 9 9
8 9 6 2 2 3 1 3 4 3 3 2 3 0 2 4 1 1 2 -0 3 4 6 6 5 4 3 3 1 1 3 3 4 5 5 5 7 9 8 8 8 8 7
7 10 8 9 7 5 4 2 1 -0 -1 -0 -4 -6 -1 1 -2 -2 0 -1 -1 0 -0 2 0 -1 2 0 -1 -3 -5 -6 -2 -0 1 2 -0 5 7 7 8 7 6
11 12 12 9 10 6 7 9 4 4 3 1 -2 1 -4 -6 -3 -4 -5 -10 -11 -3 -1 -2 -3 -4 -4 -4 -6 -9 -10 -10 -8 -6 -3 -1 1 2 3 3 3 3 5
10 9 10 10 8 4 1 9 7 3 -2 -6 -3 -3 -5 -11 -11 -6 -9 -17 -9 -9 -8 -8 -8 -8 -9 -11 -9 -8 -8 -9 -10 -13 -9 -5 -1 -1 -2 0 0 1 1
7 4 8 4 1 3 -5 -5 2 5 1 -5 -11 -10 -10 -14 -17 -15 -16 -17 -12 -15 -17 -14 -8 -8 -8 -14 -10 -8 -9 -13 -11 -12 -13 -8 -4 -3 -3 -2 -2 -5 -4
-1 -5 -4 -2 -5 -8 -6 -1 -4 -4 -5 -3 -5 -7 -4 -9 -10 -17 -18 -16 -11 -12 -10 -12 -11 -10 -12 -13 -12 -11 -13 -15 -16 -17 -12 -11 -10 -9 -7 -6 -6 -3 -6
2 0 -2 -2 -4 -9 -11 -12 -9 -5 -6 -7 -7 -6 -5 -5 -7 -14 -13 -14 -12 -10 -11 -12 -11 -12 -12 -11 -11 -12 -15 -15 -16 -20 -16 -9 -9 -9 -8 -8 -8 -6 -5

GFSGL_sfc_dewp_117.txt.gz
Dewpoint
38 40 41 42 44 46 48 52 53 61 61 61 62 62 62 61 61 61 61 61 61 60 60 60 59 60 59 59 59 59 57 57 54 54 55 56 57 57 56 57 57 57 55
36 38 39 39 40 42 43 44 48 50 61 61 60 60 61 61 61 60 59 60 60 59 59 59 59 58 59 58 58 57 57 56 55 52 54 55 55 56 56 56 56 55 57
35 36 37 37 38 39 40 41 43 45 48 57 60 60 60 60 59 59 59 59 59 58 58 57 57 57 58 58 57 56 56 55 55 53 53 55 55 55 55 56 55 56 48
33 34 35 35 36 37 37 39 40 41 41 43 45 56 59 58 58 58 59 58 57 57 58 57 57 58 58 57 56 57 55 55 54 53 53 53 54 55 55 54 55 52 48
31 32 33 34 35 35 36 36 37 38 39 39 39 39 40 39 38 40 50 57 57 57 57 57 58 57 52 54 57 56 55 54 54 53 53 53 53 53 53 54 54 51 46
29 30 31 32 32 33 33 34 35 35 36 36 37 37 36 36 36 37 39 50 57 56 56 57 57 51 51 45 45 47 54 55 54 53 53 52 52 53 53 53 53 48 45
28 28 29 30 31 31 32 32 32 33 33 33 34 34 34 34 35 36 38 39 43 48 49 52 54 50 49 46 38 37 36 36 38 54 53 53 53 53 53 53 53 51 49
26 26 27 28 30 30 31 31 31 32 32 31 31 32 32 33 35 35 35 35 34 34 35 37 41 43 42 43 41 36 34 34 35 36 39 38 37 41 51 53 53 45 36
25 26 26 27 28 29 30 31 32 31 31 30 30 30 31 31 33 34 35 34 33 32 32 34 35 35 36 39 37 34 32 31 34 34 34 34 34 34 35 42 39 40 33
25 26 26 28 27 27 29 30 32 32 32 32 31 30 30 30 32 32 32 33 32 32 32 31 32 33 34 34 34 34 30 31 30 30 30 29 29 30 30 32 35 39 33
25 25 26 27 28 28 30 30 30 32 32 31 32 32 30 31 31 30 31 29 28 27 28 29 30 31 32 32 32 31 30 29 28 27 26 27 26 25 25 27 28 33 33
24 24 25 26 27 28 27 29 29 28 28 28 28 29 30 31 29 29 29 28 28 27 26 27 28 29 29 28 29 29 29 28 27 25 24 24 24 23 25 25 26 26 26
23 21 22 23 24 25 26 27 26 27 25 25 26 26 26 28 29 28 27 27 26 27 28 28 27 27 27 27 28 27 26 26 25 23 22 22 24 25 25 26 26 26 26
21 21 19 19 20 21 21 21 23 26 24 24 24 25 25 26 26 27 29 30 27 27 26 26 26 25 25 25 26 26 27 26 25 24 23 24 25 24 23 25 23 24 23
20 20 21 20 19 17 20 21 22 25 25 23 24 25 25 24 25 25 25 26 27 24 26 26 25 24 23 23 23 23 25 25 25 25 24 24 24 24 23 23 23 23 22
18 19 21 21 20 18 16 16 20 20 21 22 22 24 24 23 22 22 22 22 21 21 23 23 23 22 21 21 20 19 20 20 23 24 24 24 23 23 21 19 19 20 20
20 20 20 20 19 17 16 16 16 19 16 17 19 20 20 20 21 21 19 19 19 19 20 20 19 20 19 18 17 17 16 17 19 20 21 21 20 17 17 16 16 14 13
20 16 20 21 21 18 17 17 17 16 16 16 15 16 17 18 18 18 16 17 17 16 16 16 16 16 15 14 14 14 14 15 15 14 16 17 18 17 16 15 15 16 14
19 20 20 21 20 16 17 17 16 15 14 14 14 13 12 13 14 15 15 16 15 14 13 13 14 13 13 12 14 14 15 14 14 15 15 16 17 15 14 13 12 11 11
18 17 16 19 19 19 17 16 15 14 13 12 11 10 12 12 13 12 12 13 13 12 12 11 10 10 11 12 13 14 14 14 14 14 15 16 17 15 14 12 13 11 8
18 18 16 17 17 17 16 16 15 14 13 12 11 9 5 9 9 9 9 10 10 9 10 9 9 9 9 8 7 10 9 11 10 11 13 13 15 14 13 13 12 9 7
15 15 15 15 15 16 15 15 15 14 12 11 11 9 5 10 8 7 6 7 8 8 6 6 4 3 2 3 3 6 5 6 7 8 10 10 12 12 12 12 11 11 9
13 13 12 12 13 13 14 13 15 15 14 13 11 10 10 10 8 7 7 7 6 6 5 5 4 2 2 2 2 2 1 1 2 4 7 10 10 11 12 11 9 9 8
12 12 10 11 12 12 13 13 13 11 12 13 13 12 11 10 10 7 7 7 7 6 5 3 3 1 -0 1 2 1 -1 -1 1 1 2 7 8 7 9 8 7 6 7
11 11 11 10 10 10 11 11 11 12 12 12 12 12 10 10 9 9 8 6 5 6 2 3 3 -0 -2 -4 -3 -3 -4 -5 -4 -5 3 3 3 3 4 5 5 5 3
10 9 9 10 10 10 9 9 10 10 10 10 11 10 10 9 9 9 7 5 5 5 2 5 1 -4 -5 -2 -3 -5 -6 -6 -5 -8 -0 3 4 4 5 2 -3 5 1

GFSGL_sfc_dewp_120.txt.gz
Dewpoint
38 39 41 42 43 44 46 47 50 53 54 63 63 63 63 63 62 62 62 62 62 62 62 62 62 62 61 62 61 61 60 58 55 56 57 58 58 58 58 58 57 57 55
37 37 38 39 39 41 42 43 45 48 50 56 62 62 62 62 62 61 61 61 61 61 62 61 61 61 60 61 60 60 59 59 57 55 55 56 56 58 57 57 57 55 57
36 36 36 37 37 38 39 40 41 43 44 46 47 51 59 61 61 61 61 60 60 60 61 61 61 60 59 60 59 58 59 58 57 56 54 56 56 57 57 57 57 57 52
35 36 35 35 36 36 37 37 39 39 40 41 41 41 42 41 41 43 49 59 60 60 60 61 60 59 59 59 58 58 58 57 56 55 54 54 55 55 56 55 55 52 49
32 34 35 34 34 35 36 36 36 36 37 37 38 37 38 37 36 38 41 47 56 59 59 59 59 57 52 54 59 58 57 56 55 54 53 53 53 53 53 54 53 51 49
31 31 32 34 33 33 34 34 34 34 34 35 35 34 34 35 35 36 39 47 45 52 56 58 58 52 53 45 45 46 53 56 55 54 53 52 53 53 54 53 52 48 45
29 30 30 31 32 33 32 32 32 33 33 33 33 33 33 33 34 35 36 38 37 37 38 40 43 49 47 55 40 38 37 37 39 54 53 54 53 54 54 53 53 51 50
29 28 29 30 30 31 32 33 34 33 33 32 32 32 32 32 33 33 35 37 35 34 34 35 36 37 37 42 44 39 36 35 35 37 39 38 39 43 53 53 53 47 38
29 29 29 29 30 30 31 32 33 33 34 33 33 32 32 31 32 32 33 34 33 33 32 34 34 34 34 37 39 34 32 32 33 33 33 33 33 33 35 47 42 42 35
29 30 30 30 30 30 32 32 33 34 33 34 33 32 31 32 31 31 31 30 30 28 30 31 32 32 33 34 35 34 30 30 31 30 30 29 29 29 29 31 36 47 34
29 29 30 30 31 32 32 33 32 33 33 32 32 32 32 32 31 30 29 32 32 29 27 28 29 30 31 32 31 30 29 29 28 28 28 27 27 27 26 27 28 32 34
26 26 26 28 32 33 32 33 33 33 32 32 32 32 32 32 29 29 28 28 29 31 30 30 30 30 30 29 29 29 28 28 27 25 24 24 24 25 26 27 27 27 28
22 23 23 23 24 25 29 30 28 31 29 29 28 29 29 31 32 27 28 28 28 30 29 28 27 28 28 28 28 28 28 27 26 24 22 23 24 25 26 27 27 28 27
19 18 20 20 20 21 20 21 23 24 25 24 25 25 26 27 28 29 30 30 28 29 30 31 29 28 28 28 29 30 30 30 28 26 26 27 28 27 26 27 26 26 25
17 18 18 19 18 17 19 21 20 23 21 22 23 24 24 24 25 25 25 27 28 27 31 31 30 29 27 28 28 27 28 29 28 28 28 27 27 26 26 28 28 27 25
16 16 20 20 19 17 16 17 20 18 18 19 19 21 23 21 22 22 21 21 21 23 27 27 26 26 25 25 25 25 26 25 26 26 26 25 25 24 24 25 25 25 24
21 18 19 19 19 19 19 19 19 21 17 17 16 17 18 19 19 20 19 19 19 23 25 25 24 24 23 22 22 22 22 22 24 23 24 24 24 23 22 20 20 19 20
22 20 22 23 23 22 22 22 22 21 20 21 18 16 15 16 17 18 18 19 22 20 19 20 20 20 18 17 17 18 19 21 20 19 21 22 23 21 20 18 18 18 15
20 21 22 23 23 22 22 22 21 20 19 19 18 15 15 14 14 15 16 19 18 17 16 16 17 17 17 17 20 20 20 20 21 22 21 21 22 20 18 16 16 14 13
19 17 18 21 20 20 20 19 18 18 17 17 16 14 13 14 16 17 17 17 17 15 15 14 14 14 15 16 18 19 19 19 19 19 20 21 21 19 17 16 16 14 11
18 17 15 17 17 17 17 17 16 16 16 15 15 14 9 13 13 13 12 13 13 12 14 12 13 13 13 13 12 15 14 17 15 16 17 17 19 18 16 16 15 12 10
14 13 13 14 13 15 14 14 15 15 13 13 13 12 10 14 12 11 11 12 12 11 10 11 10 8 8 8 9 12 11 12 13 14 15 14 15 16 15 15 15 14 11
12 12 11 10 12 11 14 13 14 16 15 14 13 12 12 13 12 11 11 11 10 10 9 9 10 7 8 8 8 7 6 7 8 9 12 13 13 14 16 14 12 12 11
11 12 9 11 13 11 14 14 14 12 13 14 15 14 12 12 12 11 11 11 10 10 9 8 6 3 4 6 7 5 3 3 6 8 8 11 11 11 12 10 10 9 10
13 13 12 12 12 12 12 12 12 13 13 14 14 14 12 12 10 11 11 10 8 8 3 5 7 2 2 1 1 1 -1 -2 -1 1 8 6 6 5 7 8 8 8 6
12 11 11 12 12 12 11 11 11 11 11 13 12 13 12 11 10 10 9 8 7 7 4 7 2 -4 -5 -5 1 -1 -2 -3 -1 -2 5 7 7 8 8 5 -4 9 4

GFSGL_sfc_dewp_123.txt.gz
Dewpoint
39 40 41 44 45 45 45 46 48 51 51 53 59 64 64 64 63 63 63 63 63 62 63 63 62 63 63 62 62 62 61 60 58 58 57 59 59 60 60 59 59 58 57
37 37 39 39 40 40 41 42 45 46 47 47 49 50 57 61 63 62 61 61 62 62 62 61 62 62 62 62 61 61 61 60 59 56 58 58 59 59 59 59 59 59 59
38 37 37 37 37 37 37 37 39 40 41 41 42 43 41 42 42 44 47 57 61 61 62 62 61 61 61 61 61 60 60 59 60 57 57 58 58 58 57 58 58 58 57
35 36 35 35 36 36 36 36 36 36 37 37 38 37 38 37 37 38 41 45 50 56 61 61 61 61 60 60 60 60 59 59 59 57 57 55 55 56 57 56 55 57 50
33 34 35 36 35 35 35 35 35 35 35 35 36 35 35 35 35 37 40 45 48 48 51 59 60 58 53 55 59 59 59 58 57 56 55 55 54 54 54 55 54 51 48
31 32 34 34 34 35 34 35 34 34 34 34 34 34 33 33 34 36 38 39 39 39 40 43 46 49 45 45 46 45 53 58 57 55 55 53 53 54 54 54 53 48 45
30 30 31 32 33 34 34 34 33 33 33 32 33 33 32 32 33 34 35 35 35 34 34 35 37 38 39 40 44 38 37 36 35 51 55 54 54 54 54 53 53 50 50
29 29 30 31 31 32 32 33 34 34 33 32 32 32 32 30 32 33 32 33 32 32 32 32 33 34 35 37 42 37 35 34 34 36 36 35 35 36 46 54 53 49 40
30 30 30 29 30 30 31 32 33 33 34 33 33 32 32 32 31 31 32 31 30 30 30 31 31 31 33 35 37 34 33 32 33 33 32 32 32 32 33 44 43 44 35
31 31 32 32 32 32 33 33 34 33 33 34 34 33 31 31 30 30 31 31 32 31 30 30 30 31 31 32 33 33 31 29 31 31 30 29 29 29 29 30 32 44 35
30 29 32 33 33 33 34 35 34 35 34 34 33 33 33 32 31 29 29 31 31 31 30 30 30 29 30 30 30 29 29 30 29 28 28 28 28 27 28 28 28 30 33
24 25 25 27 31 31 33 33 33 33 33 32 32 32 33 32 28 28 29 29 30 31 29 31 31 29 30 30 30 30 29 29 28 26 25 24 25 26 27 28 28 29 30
19 20 22 21 21 23 26 28 27 28 29 28 27 28 29 30 30 26 26 28 29 31 32 31 30 29 28 30 30 30 30 30 28 26 25 25 26 28 28 28 29 29 28
17 18 19 19 19 18 19 18 20 21 21 22 23 24 25 26 26 27 27 29 27 29 31 32 31 29 29 30 30 30 31 30 30 29 28 28 30 30 29 30 29 28 25
16 17 19 20 19 17 19 21 20 22 19 19 20 22 23 21 23 23 24 26 27 28 30 31 30 29 28 29 29 29 30 30 29 29 28 28 28 28 27 30 29 28 26
17 17 20 20 20 18 18 19 21 20 18 18 17 18 20 19 19 20 21 22 21 25 28 27 26 27 26 26 26 26 26 25 26 27 27 26 25 25 25 26 26 27 26
19 18 19 20 19 19 20 20 20 22 19 20 17 17 16 16 17 18 20 21 21 22 23 24 24 24 23 21 22 22 22 22 23 24 24 25 24 24 24 23 24 23 23
21 20 21 22 23 22 22 23 23 22 21 23 20 17 16 16 16 17 18 19 20 19 19 19 19 20 18 18 18 18 20 21 21 20 22 22 23 21 21 19 19 19 17
20 21 21 22 23 22 22 22 21 20 20 19 19 17 16 15 16 16 16 18 17 16 15 15 16 16 16 17 19 21 21 21 21 23 23 22 23 20 19 17 17 17 15
19 17 17 20 20 20 19 19 18 18 17 17 17 17 13 14 17 17 17 17 16 14 15 13 13 14 16 15 18 19 19 19 19 20 21 22 22 20 18 17 17 16 12
18 17 15 16 16 16 17 16 15 16 17 16 16 18 10 13 15 14 13 14 13 12 13 12 14 13 12 12 12 15 15 17 16 17 17 19 19 19 17 17 16 13 11
14 14 13 14 13 15 14 13 15 15 15 17 16 14 13 16 14 13 14 14 14 12 11 12 12 10 9 9 10 12 12 12 12 13 17 15 16 16 16 15 16 15 12
12 13 12 10 12 12 14 13 14 17 15 15 16 15 15 16 14 13 13 14 12 12 12 9 10 8 8 11 10 9 7 8 9 10 12 16 12 16 16 14 12 13 12
12 14 11 12 14 12 16 15 15 12 13 14 16 17 17 16 14 13 14 14 11 12 12 10 9 4 3 6 7 6 2 3 6 8 9 11 13 12 13 10 10 9 10
15 16 15 14 14 14 14 14 14 14 15 15 15 16 14 15 13 15 14 12 11 10 9 8 8 6 4 2 2 1 -0 -1 0 -0 9 9 7 8 8 9 9 8 7
16 15 15 15 15 16 15 15 14 14 13 14 14 15 14 13 12 13 13 10 10 8 7 8 6 -2 0 5 2 0 -1 -1 -1 -0 5 8 7 8 9 6 4 8 5

GFSGL_sfc_dewp_126.txt.gz
Dewpoint
39 39 38 40 41 42 42 44 45 45 45 47 48 49 50 54 59 63 63 63 63 63 63 62 62 62 60 59 62 61 61 60 58 58 58 59 59 59 59 59 59 60 59
38 37 38 38 38 39 38 40 41 41 42 42 42 43 43 42 43 46 49 57 61 61 62 62 60 60 59 60 61 61 60 60 60 58 58 58 57 58 59 59 59 60 60
37 37 35 36 36 36 37 37 37 38 39 38 38 38 38 39 39 41 43 46 50 53 59 61 61 60 59 60 61 61 60 60 60 59 58 58 58 58 57 59 59 59 59
35 35 35 35 35 36 36 36 36 36 36 36 36 36 36 36 38 39 44 46 46 47 47 48 50 52 57 61 61 61 60 60 59 59 58 57 56 57 57 56 56 57 51
33 34 35 35 36 35 35 34 35 34 34 34 34 33 33 34 35 38 40 39 39 39 40 39 42 42 40 40 45 55 60 59 58 58 57 55 55 54 54 55 55 55 48
30 31 33 34 34 34 34 34 33 33 32 33 32 31 31 31 34 34 35 35 34 33 34 35 37 37 37 37 39 39 38 50 57 56 55 54 54 54 55 54 54 48 46
29 29 30 31 31 32 32 32 32 32 32 31 31 31 30 31 33 34 33 32 31 31 31 31 32 33 34 35 38 37 35 34 32 40 50 52 53 54 54 54 54 50 51
28 29 29 30 29 29 30 31 31 31 31 31 30 30 30 30 31 32 33 32 31 30 30 30 30 31 32 34 38 35 33 33 32 33 32 32 32 33 36 47 53 51 42
29 29 30 29 29 31 30 31 31 31 32 32 30 28 28 28 30 30 31 31 30 31 31 30 30 30 31 32 33 34 33 32 33 33 32 32 31 32 32 38 42 43 35
29 31 30 31 30 29 30 31 32 31 31 32 32 30 29 27 29 30 29 29 29 29 29 29 29 29 30 30 29 28 28 28 29 30 31 31 31 31 31 30 32 36 35
29 27 29 31 29 30 29 28 28 30 28 28 29 30 29 27 26 27 28 29 29 28 28 29 30 28 29 29 30 29 28 28 27 27 27 27 28 28 29 29 30 31 32
22 24 24 25 26 26 26 26 25 25 25 24 25 25 27 26 24 25 25 26 28 29 29 30 30 30 29 29 29 30 30 30 29 27 26 26 27 27 28 29 29 29 31
19 20 22 21 20 22 23 24 21 20 20 20 20 21 22 22 22 23 24 25 26 28 29 31 30 30 30 28 29 29 28 28 28 26 26 27 28 30 31 30 29 29 29
17 19 19 20 20 20 20 20 21 20 19 18 17 18 19 18 19 20 22 23 24 27 27 30 29 28 28 28 27 27 28 29 28 27 27 28 29 28 27 30 28 28 25
18 17 19 20 20 19 21 22 22 20 19 18 17 17 17 16 17 19 21 22 23 24 28 27 26 26 25 25 26 24 25 25 26 27 27 26 25 26 26 28 28 26 24
17 18 20 21 21 19 19 20 22 20 20 19 18 18 18 17 18 18 20 22 23 24 24 23 23 23 22 21 22 23 22 22 23 25 25 26 25 25 25 25 26 25 24
20 19 19 21 21 20 20 21 20 23 24 23 20 18 17 17 20 18 18 20 21 20 19 19 18 19 19 19 19 19 19 20 22 22 22 22 24 24 24 24 24 23 22
21 22 20 21 22 22 22 22 22 21 20 20 22 18 16 15 19 17 17 17 17 17 16 17 16 16 16 17 18 19 20 20 20 22 22 20 22 20 19 19 19 21 20
20 21 21 21 22 21 21 21 20 20 19 19 19 19 14 13 17 17 17 15 14 14 13 15 14 14 15 15 18 16 20 18 19 21 21 21 21 18 15 17 17 13 16
19 18 17 19 20 19 19 18 17 17 17 18 18 17 14 13 14 14 14 11 11 12 12 12 14 12 11 12 13 15 14 15 15 17 18 15 19 20 15 14 13 13 15
18 18 15 17 17 17 17 15 15 17 16 16 17 14 8 12 14 12 15 11 10 11 10 12 12 11 9 9 10 10 12 11 10 11 13 16 17 12 18 17 15 14 13
15 15 15 15 14 15 15 14 16 15 15 15 15 15 16 13 15 12 13 11 11 10 10 9 11 10 8 10 10 7 7 6 7 7 8 12 15 15 18 12 14 14 12
13 15 14 13 14 13 14 15 15 14 14 14 14 14 16 17 15 12 13 11 9 8 11 7 6 1 3 7 8 4 0 -0 2 5 5 8 13 12 13 12 11 9 7
13 16 14 14 16 14 15 15 14 12 12 13 14 14 14 15 15 15 13 14 7 5 8 3 7 3 -0 -3 1 2 -1 -3 -1 -1 -0 4 8 8 9 11 9 6 7
16 16 17 16 16 15 15 15 15 15 14 14 13 13 13 14 13 12 13 13 8 4 5 5 8 2 0 -1 -4 -5 -7 -5 -8 -6 0 3 5 7 5 6 3 8 3
16 16 17 17 16 16 16 15 15 15 14 13 12 11 12 13 13 13 13 11 10 6 2 8 9 3 -3 5 -2 -5 -7 -7 -7 -6 -1 7 3 3 3 7 3 8 5